<?xml version="1.0" encoding="UTF-8" standalone="no" ?>
<gpx xmlns="http://www.topografix.com/GPX/1/1" xmlns:xsi="http://www.w3.org/2001/XMLSchema-instance" xsi:schemaLocation="http://www.topografix.com/GPX/1/1 http://www.topografix.com/GPX/1/1/gpx.xsd" version="1.1" creator="VisuGPX - https://www.visugpx.com">
  <metadata>
    <name>RIEULAY 16 05 2020</name>
  </metadata>
  <trk>
    <name><![CDATA[RIEULAY 16 05 2020_1]]></name>
    <trkseg>
      <trkpt lat="50.38549" lon="3.24842">
        <ele>24.466357</ele>
        <time>2019-12-08T09:18:01.000Z</time>
      </trkpt>
      <trkpt lat="50.38544" lon="3.24858">
        <ele>24.617584</ele>
        <time>2019-12-08T09:18:04.000Z</time>
      </trkpt>
      <trkpt lat="50.38539" lon="3.24873">
        <ele>24.768555</ele>
        <time>2019-12-08T09:18:07.000Z</time>
      </trkpt>
      <trkpt lat="50.38528" lon="3.24873">
        <ele>24.91304</ele>
        <time>2019-12-08T09:18:13.000Z</time>
      </trkpt>
      <trkpt lat="50.38521" lon="3.24863">
        <ele>25.047053</ele>
        <time>2019-12-08T09:18:17.000Z</time>
      </trkpt>
      <trkpt lat="50.38514" lon="3.24848">
        <ele>25.205698</ele>
        <time>2019-12-08T09:18:21.000Z</time>
      </trkpt>
      <trkpt lat="50.38509" lon="3.24836">
        <ele>25.334721</ele>
        <time>2019-12-08T09:18:24.000Z</time>
      </trkpt>
      <trkpt lat="50.38505" lon="3.24823">
        <ele>25.460174</ele>
        <time>2019-12-08T09:18:27.000Z</time>
      </trkpt>
      <trkpt lat="50.38505" lon="3.24823">
        <ele>25.460174</ele>
        <time>2019-12-08T09:18:27.000Z</time>
      </trkpt>
      <trkpt lat="50.38501" lon="3.24808">
        <ele>25.595096</ele>
        <time>2019-12-08T09:18:30.000Z</time>
      </trkpt>
      <trkpt lat="50.38498" lon="3.24793">
        <ele>25.734217</ele>
        <time>2019-12-08T09:18:33.000Z</time>
      </trkpt>
      <trkpt lat="50.38496" lon="3.24778">
        <ele>25.869958</ele>
        <time>2019-12-08T09:18:36.000Z</time>
      </trkpt>
      <trkpt lat="50.38495" lon="3.24762">
        <ele>26.005356</ele>
        <time>2019-12-08T09:18:39.000Z</time>
      </trkpt>
      <trkpt lat="50.38493" lon="3.24747">
        <ele>26.228191</ele>
        <time>2019-12-08T09:18:42.000Z</time>
      </trkpt>
      <trkpt lat="50.38492" lon="3.24731">
        <ele>26.596969</ele>
        <time>2019-12-08T09:18:45.000Z</time>
      </trkpt>
      <trkpt lat="50.3849" lon="3.24716">
        <ele>26.96536</ele>
        <time>2019-12-08T09:18:48.000Z</time>
      </trkpt>
      <trkpt lat="50.38487" lon="3.24702">
        <ele>27.313782</ele>
        <time>2019-12-08T09:18:51.000Z</time>
      </trkpt>
      <trkpt lat="50.38483" lon="3.24685">
        <ele>27.746836</ele>
        <time>2019-12-08T09:18:55.000Z</time>
      </trkpt>
      <trkpt lat="50.38477" lon="3.24674">
        <ele>28.085028</ele>
        <time>2019-12-08T09:18:58.000Z</time>
      </trkpt>
      <trkpt lat="50.38469" lon="3.24665">
        <ele>28.429299</ele>
        <time>2019-12-08T09:19:01.000Z</time>
      </trkpt>
      <trkpt lat="50.38462" lon="3.24657">
        <ele>28.763195</ele>
        <time>2019-12-08T09:19:04.000Z</time>
      </trkpt>
      <trkpt lat="50.38454" lon="3.24647">
        <ele>29.111914</ele>
        <time>2019-12-08T09:19:07.000Z</time>
      </trkpt>
      <trkpt lat="50.3845" lon="3.24635">
        <ele>29.449891</ele>
        <time>2019-12-08T09:19:10.000Z</time>
      </trkpt>
      <trkpt lat="50.3845" lon="3.24617">
        <ele>29.876507</ele>
        <time>2019-12-08T09:19:14.000Z</time>
      </trkpt>
      <trkpt lat="50.38455" lon="3.24603">
        <ele>30.263956</ele>
        <time>2019-12-08T09:19:17.000Z</time>
      </trkpt>
      <trkpt lat="50.3846" lon="3.2459">
        <ele>30.607859</ele>
        <time>2019-12-08T09:19:20.000Z</time>
      </trkpt>
      <trkpt lat="50.38465" lon="3.24577">
        <ele>30.963728</ele>
        <time>2019-12-08T09:19:23.000Z</time>
      </trkpt>
      <trkpt lat="50.3847" lon="3.24563">
        <ele>31.347099</ele>
        <time>2019-12-08T09:19:26.000Z</time>
      </trkpt>
      <trkpt lat="50.38473" lon="3.24548">
        <ele>31.716829</ele>
        <time>2019-12-08T09:19:29.000Z</time>
      </trkpt>
      <trkpt lat="50.38474" lon="3.24532">
        <ele>32.085608</ele>
        <time>2019-12-08T09:19:32.000Z</time>
      </trkpt>
      <trkpt lat="50.38474" lon="3.24517">
        <ele>32.447785</ele>
        <time>2019-12-08T09:19:35.000Z</time>
      </trkpt>
      <trkpt lat="50.38471" lon="3.24502">
        <ele>32.70038</ele>
        <time>2019-12-08T09:19:38.000Z</time>
      </trkpt>
      <trkpt lat="50.38467" lon="3.24488">
        <ele>32.694796</ele>
        <time>2019-12-08T09:19:41.000Z</time>
      </trkpt>
      <trkpt lat="50.38461" lon="3.24473">
        <ele>32.688375</ele>
        <time>2019-12-08T09:19:44.000Z</time>
      </trkpt>
      <trkpt lat="50.38454" lon="3.24455">
        <ele>32.681236</ele>
        <time>2019-12-08T09:19:47.000Z</time>
      </trkpt>
      <trkpt lat="50.3845" lon="3.24443">
        <ele>32.676114</ele>
        <time>2019-12-08T09:19:49.000Z</time>
      </trkpt>
      <trkpt lat="50.38445" lon="3.24429">
        <ele>32.670681</ele>
        <time>2019-12-08T09:19:51.000Z</time>
      </trkpt>
      <trkpt lat="50.38442" lon="3.24414">
        <ele>32.66505</ele>
        <time>2019-12-08T09:19:53.000Z</time>
      </trkpt>
      <trkpt lat="50.38438" lon="3.24399">
        <ele>32.659327</ele>
        <time>2019-12-08T09:19:55.000Z</time>
      </trkpt>
      <trkpt lat="50.38434" lon="3.24383">
        <ele>32.653492</ele>
        <time>2019-12-08T09:19:57.000Z</time>
      </trkpt>
      <trkpt lat="50.38429" lon="3.24368">
        <ele>32.647474</ele>
        <time>2019-12-08T09:19:59.000Z</time>
      </trkpt>
      <trkpt lat="50.38424" lon="3.24354">
        <ele>32.641499</ele>
        <time>2019-12-08T09:20:01.000Z</time>
      </trkpt>
      <trkpt lat="50.38417" lon="3.24341">
        <ele>32.636033</ele>
        <time>2019-12-08T09:20:03.000Z</time>
      </trkpt>
      <trkpt lat="50.38411" lon="3.24331">
        <ele>32.630807</ele>
        <time>2019-12-08T09:20:05.000Z</time>
      </trkpt>
      <trkpt lat="50.38404" lon="3.24321">
        <ele>32.625782</ele>
        <time>2019-12-08T09:20:07.000Z</time>
      </trkpt>
      <trkpt lat="50.38398" lon="3.24311">
        <ele>32.620812</ele>
        <time>2019-12-08T09:20:09.000Z</time>
      </trkpt>
      <trkpt lat="50.38391" lon="3.24301">
        <ele>32.615593</ele>
        <time>2019-12-08T09:20:11.000Z</time>
      </trkpt>
      <trkpt lat="50.38385" lon="3.24291">
        <ele>32.610715</ele>
        <time>2019-12-08T09:20:13.000Z</time>
      </trkpt>
      <trkpt lat="50.38375" lon="3.24277">
        <ele>32.60337</ele>
        <time>2019-12-08T09:20:16.000Z</time>
      </trkpt>
      <trkpt lat="50.38366" lon="3.24264">
        <ele>32.866995</ele>
        <time>2019-12-08T09:20:19.000Z</time>
      </trkpt>
      <trkpt lat="50.38358" lon="3.24251">
        <ele>33.156314</ele>
        <time>2019-12-08T09:20:22.000Z</time>
      </trkpt>
      <trkpt lat="50.3835" lon="3.24239">
        <ele>33.433404</ele>
        <time>2019-12-08T09:20:25.000Z</time>
      </trkpt>
      <trkpt lat="50.38343" lon="3.24227">
        <ele>33.701122</ele>
        <time>2019-12-08T09:20:28.000Z</time>
      </trkpt>
      <trkpt lat="50.38336" lon="3.24215">
        <ele>33.957757</ele>
        <time>2019-12-08T09:20:31.000Z</time>
      </trkpt>
      <trkpt lat="50.38329" lon="3.24203">
        <ele>34.228391</ele>
        <time>2019-12-08T09:20:34.000Z</time>
      </trkpt>
      <trkpt lat="50.38322" lon="3.24191">
        <ele>34.489223</ele>
        <time>2019-12-08T09:20:37.000Z</time>
      </trkpt>
      <trkpt lat="50.38314" lon="3.24179">
        <ele>34.762893</ele>
        <time>2019-12-08T09:20:40.000Z</time>
      </trkpt>
      <trkpt lat="50.38307" lon="3.24166">
        <ele>35.041271</ele>
        <time>2019-12-08T09:20:43.000Z</time>
      </trkpt>
      <trkpt lat="50.38302" lon="3.24152">
        <ele>35.302133</ele>
        <time>2019-12-08T09:20:46.000Z</time>
      </trkpt>
      <trkpt lat="50.38298" lon="3.2414">
        <ele>35.529643</ele>
        <time>2019-12-08T09:20:49.000Z</time>
      </trkpt>
      <trkpt lat="50.38293" lon="3.24125">
        <ele>35.798583</ele>
        <time>2019-12-08T09:20:52.000Z</time>
      </trkpt>
      <trkpt lat="50.38289" lon="3.24108">
        <ele>36.085367</ele>
        <time>2019-12-08T09:20:55.000Z</time>
      </trkpt>
      <trkpt lat="50.38286" lon="3.24092">
        <ele>36.354852</ele>
        <time>2019-12-08T09:20:58.000Z</time>
      </trkpt>
      <trkpt lat="50.38285" lon="3.24076">
        <ele>36.620697</ele>
        <time>2019-12-08T09:21:01.000Z</time>
      </trkpt>
      <trkpt lat="50.38283" lon="3.2406">
        <ele>36.880942</ele>
        <time>2019-12-08T09:21:04.000Z</time>
      </trkpt>
      <trkpt lat="50.38284" lon="3.24042">
        <ele>37.158715</ele>
        <time>2019-12-08T09:21:07.000Z</time>
      </trkpt>
      <trkpt lat="50.38288" lon="3.24024">
        <ele>37.202007</ele>
        <time>2019-12-08T09:21:10.000Z</time>
      </trkpt>
      <trkpt lat="50.38292" lon="3.24009">
        <ele>37.239944</ele>
        <time>2019-12-08T09:21:13.000Z</time>
      </trkpt>
      <trkpt lat="50.38295" lon="3.23993">
        <ele>37.279926</ele>
        <time>2019-12-08T09:21:17.000Z</time>
      </trkpt>
      <trkpt lat="50.38297" lon="3.23979">
        <ele>37.315256</ele>
        <time>2019-12-08T09:21:22.000Z</time>
      </trkpt>
      <trkpt lat="50.38292" lon="3.23963">
        <ele>37.356505</ele>
        <time>2019-12-08T09:23:06.000Z</time>
      </trkpt>
      <trkpt lat="50.38283" lon="3.23952">
        <ele>37.398447</ele>
        <time>2019-12-08T09:23:11.000Z</time>
      </trkpt>
      <trkpt lat="50.38274" lon="3.23942">
        <ele>37.439207</ele>
        <time>2019-12-08T09:23:14.000Z</time>
      </trkpt>
      <trkpt lat="50.38266" lon="3.2393">
        <ele>37.478961</ele>
        <time>2019-12-08T09:23:17.000Z</time>
      </trkpt>
      <trkpt lat="50.38259" lon="3.23918">
        <ele>37.519142</ele>
        <time>2019-12-08T09:23:20.000Z</time>
      </trkpt>
      <trkpt lat="50.38249" lon="3.23905">
        <ele>37.565618</ele>
        <time>2019-12-08T09:23:23.000Z</time>
      </trkpt>
      <trkpt lat="50.38242" lon="3.23895">
        <ele>37.601297</ele>
        <time>2019-12-08T09:23:25.000Z</time>
      </trkpt>
      <trkpt lat="50.38234" lon="3.23885">
        <ele>37.637181</ele>
        <time>2019-12-08T09:23:27.000Z</time>
      </trkpt>
      <trkpt lat="50.38224" lon="3.23874">
        <ele>37.683382</ele>
        <time>2019-12-08T09:23:30.000Z</time>
      </trkpt>
      <trkpt lat="50.38216" lon="3.23863">
        <ele>37.723722</ele>
        <time>2019-12-08T09:23:34.000Z</time>
      </trkpt>
      <trkpt lat="50.38211" lon="3.23848">
        <ele>37.764386</ele>
        <time>2019-12-08T09:23:40.000Z</time>
      </trkpt>
      <trkpt lat="50.38205" lon="3.23832">
        <ele>37.806852</ele>
        <time>2019-12-08T09:23:43.000Z</time>
      </trkpt>
      <trkpt lat="50.382" lon="3.23818">
        <ele>37.243453</ele>
        <time>2019-12-08T09:23:46.000Z</time>
      </trkpt>
      <trkpt lat="50.38195" lon="3.23806">
        <ele>36.444925</ele>
        <time>2019-12-08T09:23:48.000Z</time>
      </trkpt>
      <trkpt lat="50.38186" lon="3.23794">
        <ele>35.388378</ele>
        <time>2019-12-08T09:23:51.000Z</time>
      </trkpt>
      <trkpt lat="50.38176" lon="3.23787">
        <ele>34.467217</ele>
        <time>2019-12-08T09:23:54.000Z</time>
      </trkpt>
      <trkpt lat="50.38165" lon="3.23783">
        <ele>33.566614</ele>
        <time>2019-12-08T09:23:57.000Z</time>
      </trkpt>
      <trkpt lat="50.38157" lon="3.23777">
        <ele>32.796179</ele>
        <time>2019-12-08T09:24:00.000Z</time>
      </trkpt>
      <trkpt lat="50.38147" lon="3.23765">
        <ele>31.684419</ele>
        <time>2019-12-08T09:24:03.000Z</time>
      </trkpt>
      <trkpt lat="50.38138" lon="3.23753">
        <ele>30.704911</ele>
        <time>2019-12-08T09:24:05.000Z</time>
      </trkpt>
      <trkpt lat="50.38129" lon="3.23742">
        <ele>29.762473</ele>
        <time>2019-12-08T09:24:07.000Z</time>
      </trkpt>
      <trkpt lat="50.38122" lon="3.23731">
        <ele>28.885941</ele>
        <time>2019-12-08T09:24:09.000Z</time>
      </trkpt>
      <trkpt lat="50.38117" lon="3.23717">
        <ele>28.036372</ele>
        <time>2019-12-08T09:24:11.000Z</time>
      </trkpt>
      <trkpt lat="50.3811" lon="3.2371">
        <ele>27.271043</ele>
        <time>2019-12-08T09:24:13.000Z</time>
      </trkpt>
      <trkpt lat="50.38099" lon="3.23704">
        <ele>26.33266</ele>
        <time>2019-12-08T09:24:16.000Z</time>
      </trkpt>
      <trkpt lat="50.38088" lon="3.23703">
        <ele>25.38622</ele>
        <time>2019-12-08T09:24:21.000Z</time>
      </trkpt>
      <trkpt lat="50.38081" lon="3.23695">
        <ele>24.584251</ele>
        <time>2019-12-08T09:24:23.000Z</time>
      </trkpt>
      <trkpt lat="50.38072" lon="3.23682">
        <ele>23.589774</ele>
        <time>2019-12-08T09:24:25.000Z</time>
      </trkpt>
      <trkpt lat="50.38068" lon="3.23668">
        <ele>22.753079</ele>
        <time>2019-12-08T09:24:27.000Z</time>
      </trkpt>
      <trkpt lat="50.38067" lon="3.23653">
        <ele>23.004257</ele>
        <time>2019-12-08T09:24:30.000Z</time>
      </trkpt>
      <trkpt lat="50.38077" lon="3.23646">
        <ele>23.904968</ele>
        <time>2019-12-08T09:24:35.000Z</time>
      </trkpt>
      <trkpt lat="50.38088" lon="3.23647">
        <ele>24.773487</ele>
        <time>2019-12-08T09:24:39.000Z</time>
      </trkpt>
      <trkpt lat="50.381" lon="3.23645">
        <ele>25.699452</ele>
        <time>2019-12-08T09:24:43.000Z</time>
      </trkpt>
      <trkpt lat="50.3811" lon="3.23643">
        <ele>26.486832</ele>
        <time>2019-12-08T09:24:46.000Z</time>
      </trkpt>
      <trkpt lat="50.3812" lon="3.2364">
        <ele>27.345831</ele>
        <time>2019-12-08T09:24:50.000Z</time>
      </trkpt>
      <trkpt lat="50.3813" lon="3.23637">
        <ele>28.10988</ele>
        <time>2019-12-08T09:24:54.000Z</time>
      </trkpt>
      <trkpt lat="50.38139" lon="3.23649">
        <ele>29.027208</ele>
        <time>2019-12-08T09:24:59.000Z</time>
      </trkpt>
      <trkpt lat="50.38146" lon="3.23663">
        <ele>29.945131</ele>
        <time>2019-12-08T09:25:03.000Z</time>
      </trkpt>
      <trkpt lat="50.38152" lon="3.23675">
        <ele>30.698156</ele>
        <time>2019-12-08T09:25:06.000Z</time>
      </trkpt>
      <trkpt lat="50.38158" lon="3.23685">
        <ele>31.424439</ele>
        <time>2019-12-08T09:25:09.000Z</time>
      </trkpt>
      <trkpt lat="50.38167" lon="3.23699">
        <ele>32.363214</ele>
        <time>2019-12-08T09:25:13.000Z</time>
      </trkpt>
      <trkpt lat="50.38173" lon="3.2371">
        <ele>33.084581</ele>
        <time>2019-12-08T09:25:16.000Z</time>
      </trkpt>
      <trkpt lat="50.38179" lon="3.23723">
        <ele>33.916196</ele>
        <time>2019-12-08T09:25:19.000Z</time>
      </trkpt>
      <trkpt lat="50.38186" lon="3.23735">
        <ele>34.738633</ele>
        <time>2019-12-08T09:25:22.000Z</time>
      </trkpt>
      <trkpt lat="50.38191" lon="3.23747">
        <ele>35.489951</ele>
        <time>2019-12-08T09:25:25.000Z</time>
      </trkpt>
      <trkpt lat="50.38197" lon="3.23759">
        <ele>36.247953</ele>
        <time>2019-12-08T09:25:28.000Z</time>
      </trkpt>
      <trkpt lat="50.38203" lon="3.23771">
        <ele>37.056959</ele>
        <time>2019-12-08T09:25:31.000Z</time>
      </trkpt>
      <trkpt lat="50.3821" lon="3.23783">
        <ele>37.975054</ele>
        <time>2019-12-08T09:25:34.000Z</time>
      </trkpt>
      <trkpt lat="50.38217" lon="3.23797">
        <ele>38.966151</ele>
        <time>2019-12-08T09:25:37.000Z</time>
      </trkpt>
      <trkpt lat="50.38224" lon="3.23811">
        <ele>39.966123</ele>
        <time>2019-12-08T09:25:40.000Z</time>
      </trkpt>
      <trkpt lat="50.3823" lon="3.23824">
        <ele>40.897036</ele>
        <time>2019-12-08T09:25:43.000Z</time>
      </trkpt>
      <trkpt lat="50.38236" lon="3.23839">
        <ele>41.90828</ele>
        <time>2019-12-08T09:25:46.000Z</time>
      </trkpt>
      <trkpt lat="50.38243" lon="3.2385">
        <ele>42.752531</ele>
        <time>2019-12-08T09:25:49.000Z</time>
      </trkpt>
      <trkpt lat="50.38249" lon="3.23861">
        <ele>43.593181</ele>
        <time>2019-12-08T09:25:52.000Z</time>
      </trkpt>
      <trkpt lat="50.38256" lon="3.23873">
        <ele>44.482787</ele>
        <time>2019-12-08T09:25:55.000Z</time>
      </trkpt>
      <trkpt lat="50.38262" lon="3.23885">
        <ele>45.34047</ele>
        <time>2019-12-08T09:25:58.000Z</time>
      </trkpt>
      <trkpt lat="50.38268" lon="3.23896">
        <ele>46.181051</ele>
        <time>2019-12-08T09:26:01.000Z</time>
      </trkpt>
      <trkpt lat="50.38274" lon="3.23908">
        <ele>47.021632</ele>
        <time>2019-12-08T09:26:04.000Z</time>
      </trkpt>
      <trkpt lat="50.3828" lon="3.23919">
        <ele>47.832283</ele>
        <time>2019-12-08T09:26:07.000Z</time>
      </trkpt>
      <trkpt lat="50.38286" lon="3.23934">
        <ele>48.838943</ele>
        <time>2019-12-08T09:26:11.000Z</time>
      </trkpt>
      <trkpt lat="50.38293" lon="3.23947">
        <ele>49.815653</ele>
        <time>2019-12-08T09:26:15.000Z</time>
      </trkpt>
      <trkpt lat="50.38303" lon="3.23951">
        <ele>50.758411</ele>
        <time>2019-12-08T09:26:20.000Z</time>
      </trkpt>
      <trkpt lat="50.38309" lon="3.23939">
        <ele>51.634482</ele>
        <time>2019-12-08T09:26:25.000Z</time>
      </trkpt>
      <trkpt lat="50.38319" lon="3.2394">
        <ele>52.558867</ele>
        <time>2019-12-08T09:26:31.000Z</time>
      </trkpt>
      <trkpt lat="50.38331" lon="3.23939">
        <ele>52.399186</ele>
        <time>2019-12-08T09:26:36.000Z</time>
      </trkpt>
      <trkpt lat="50.38338" lon="3.23929">
        <ele>52.158614</ele>
        <time>2019-12-08T09:26:40.000Z</time>
      </trkpt>
      <trkpt lat="50.38348" lon="3.23927">
        <ele>51.91739</ele>
        <time>2019-12-08T09:26:43.000Z</time>
      </trkpt>
      <trkpt lat="50.3836" lon="3.23926">
        <ele>51.61141</ele>
        <time>2019-12-08T09:26:46.000Z</time>
      </trkpt>
      <trkpt lat="50.3837" lon="3.23929">
        <ele>51.373053</ele>
        <time>2019-12-08T09:26:49.000Z</time>
      </trkpt>
      <trkpt lat="50.3838" lon="3.23936">
        <ele>51.114511</ele>
        <time>2019-12-08T09:26:52.000Z</time>
      </trkpt>
      <trkpt lat="50.38391" lon="3.2394">
        <ele>50.830976</ele>
        <time>2019-12-08T09:26:55.000Z</time>
      </trkpt>
      <trkpt lat="50.38403" lon="3.23945">
        <ele>50.522413</ele>
        <time>2019-12-08T09:26:58.000Z</time>
      </trkpt>
      <trkpt lat="50.38416" lon="3.2395">
        <ele>50.205214</ele>
        <time>2019-12-08T09:27:01.000Z</time>
      </trkpt>
      <trkpt lat="50.38427" lon="3.23955">
        <ele>49.920105</ele>
        <time>2019-12-08T09:27:04.000Z</time>
      </trkpt>
      <trkpt lat="50.3844" lon="3.23958">
        <ele>49.619308</ele>
        <time>2019-12-08T09:27:07.000Z</time>
      </trkpt>
      <trkpt lat="50.3845" lon="3.23959">
        <ele>49.366502</ele>
        <time>2019-12-08T09:27:10.000Z</time>
      </trkpt>
      <trkpt lat="50.38463" lon="3.23965">
        <ele>49.041119</ele>
        <time>2019-12-08T09:27:13.000Z</time>
      </trkpt>
      <trkpt lat="50.38474" lon="3.23972">
        <ele>48.746454</ele>
        <time>2019-12-08T09:27:16.000Z</time>
      </trkpt>
      <trkpt lat="50.38484" lon="3.23973">
        <ele>48.50523</ele>
        <time>2019-12-08T09:27:19.000Z</time>
      </trkpt>
      <trkpt lat="50.38496" lon="3.23976">
        <ele>48.235926</ele>
        <time>2019-12-08T09:27:22.000Z</time>
      </trkpt>
      <trkpt lat="50.38509" lon="3.2398">
        <ele>48.009833</ele>
        <time>2019-12-08T09:27:25.000Z</time>
      </trkpt>
      <trkpt lat="50.3852" lon="3.23984">
        <ele>47.828725</ele>
        <time>2019-12-08T09:27:28.000Z</time>
      </trkpt>
      <trkpt lat="50.3853" lon="3.23987">
        <ele>47.652485</ele>
        <time>2019-12-08T09:27:31.000Z</time>
      </trkpt>
      <trkpt lat="50.38542" lon="3.23996">
        <ele>47.440734</ele>
        <time>2019-12-08T09:27:34.000Z</time>
      </trkpt>
      <trkpt lat="50.38552" lon="3.24006">
        <ele>47.242049</ele>
        <time>2019-12-08T09:27:37.000Z</time>
      </trkpt>
      <trkpt lat="50.38564" lon="3.24015">
        <ele>47.025558</ele>
        <time>2019-12-08T09:27:40.000Z</time>
      </trkpt>
      <trkpt lat="50.38575" lon="3.24024">
        <ele>46.812894</ele>
        <time>2019-12-08T09:27:43.000Z</time>
      </trkpt>
      <trkpt lat="50.38585" lon="3.24032">
        <ele>46.620977</ele>
        <time>2019-12-08T09:27:46.000Z</time>
      </trkpt>
      <trkpt lat="50.38594" lon="3.24038">
        <ele>46.463103</ele>
        <time>2019-12-08T09:27:49.000Z</time>
      </trkpt>
      <trkpt lat="50.38605" lon="3.2404">
        <ele>46.278659</ele>
        <time>2019-12-08T09:27:52.000Z</time>
      </trkpt>
      <trkpt lat="50.38614" lon="3.24044">
        <ele>46.122559</ele>
        <time>2019-12-08T09:27:54.000Z</time>
      </trkpt>
      <trkpt lat="50.38623" lon="3.24053">
        <ele>45.936874</ele>
        <time>2019-12-08T09:27:57.000Z</time>
      </trkpt>
      <trkpt lat="50.38632" lon="3.24063">
        <ele>45.758934</ele>
        <time>2019-12-08T09:28:00.000Z</time>
      </trkpt>
      <trkpt lat="50.38641" lon="3.24076">
        <ele>45.552677</ele>
        <time>2019-12-08T09:28:03.000Z</time>
      </trkpt>
      <trkpt lat="50.38649" lon="3.24088">
        <ele>45.374554</ele>
        <time>2019-12-08T09:28:06.000Z</time>
      </trkpt>
      <trkpt lat="50.38654" lon="3.24103">
        <ele>44.704268</ele>
        <time>2019-12-08T09:28:10.000Z</time>
      </trkpt>
      <trkpt lat="50.38654" lon="3.24119">
        <ele>43.6246</ele>
        <time>2019-12-08T09:28:14.000Z</time>
      </trkpt>
      <trkpt lat="50.38653" lon="3.24137">
        <ele>42.449739</ele>
        <time>2019-12-08T09:28:18.000Z</time>
      </trkpt>
      <trkpt lat="50.38654" lon="3.24151">
        <ele>41.492981</ele>
        <time>2019-12-08T09:28:23.000Z</time>
      </trkpt>
      <trkpt lat="50.38652" lon="3.24169">
        <ele>40.355594</ele>
        <time>2019-12-08T09:28:27.000Z</time>
      </trkpt>
      <trkpt lat="50.38649" lon="3.24185">
        <ele>39.213996</ele>
        <time>2019-12-08T09:28:31.000Z</time>
      </trkpt>
      <trkpt lat="50.3865" lon="3.24203">
        <ele>38.055397</ele>
        <time>2019-12-08T09:28:34.000Z</time>
      </trkpt>
      <trkpt lat="50.38649" lon="3.2422">
        <ele>36.922962</ele>
        <time>2019-12-08T09:28:37.000Z</time>
      </trkpt>
      <trkpt lat="50.38649" lon="3.24239">
        <ele>35.718268</ele>
        <time>2019-12-08T09:28:40.000Z</time>
      </trkpt>
      <trkpt lat="50.38649" lon="3.24257">
        <ele>34.507035</ele>
        <time>2019-12-08T09:28:43.000Z</time>
      </trkpt>
      <trkpt lat="50.38648" lon="3.24276">
        <ele>33.294932</ele>
        <time>2019-12-08T09:28:46.000Z</time>
      </trkpt>
      <trkpt lat="50.38648" lon="3.24291">
        <ele>32.280489</ele>
        <time>2019-12-08T09:28:49.000Z</time>
      </trkpt>
      <trkpt lat="50.38649" lon="3.24308">
        <ele>31.210752</ele>
        <time>2019-12-08T09:28:52.000Z</time>
      </trkpt>
      <trkpt lat="50.3865" lon="3.24323">
        <ele>30.207031</ele>
        <time>2019-12-08T09:28:56.000Z</time>
      </trkpt>
      <trkpt lat="50.38657" lon="3.24312">
        <ele>29.168123</ele>
        <time>2019-12-08T09:29:05.000Z</time>
      </trkpt>
      <trkpt lat="50.3866" lon="3.24297">
        <ele>28.141947</ele>
        <time>2019-12-08T09:29:10.000Z</time>
      </trkpt>
      <trkpt lat="50.38662" lon="3.24279">
        <ele>26.927876</ele>
        <time>2019-12-08T09:29:14.000Z</time>
      </trkpt>
      <trkpt lat="50.38664" lon="3.24264">
        <ele>26.514179</ele>
        <time>2019-12-08T09:29:17.000Z</time>
      </trkpt>
      <trkpt lat="50.38666" lon="3.24247">
        <ele>26.128658</ele>
        <time>2019-12-08T09:29:20.000Z</time>
      </trkpt>
      <trkpt lat="50.38669" lon="3.24232">
        <ele>25.761264</ele>
        <time>2019-12-08T09:29:23.000Z</time>
      </trkpt>
      <trkpt lat="50.38671" lon="3.24216">
        <ele>25.377038</ele>
        <time>2019-12-08T09:29:26.000Z</time>
      </trkpt>
      <trkpt lat="50.38671" lon="3.24199">
        <ele>24.977453</ele>
        <time>2019-12-08T09:29:29.000Z</time>
      </trkpt>
      <trkpt lat="50.38671" lon="3.2418">
        <ele>24.543248</ele>
        <time>2019-12-08T09:29:33.000Z</time>
      </trkpt>
      <trkpt lat="50.38674" lon="3.24163">
        <ele>24.138206</ele>
        <time>2019-12-08T09:29:36.000Z</time>
      </trkpt>
      <trkpt lat="50.38677" lon="3.24143">
        <ele>23.672809</ele>
        <time>2019-12-08T09:29:39.000Z</time>
      </trkpt>
      <trkpt lat="50.38679" lon="3.24124">
        <ele>23.229823</ele>
        <time>2019-12-08T09:29:42.000Z</time>
      </trkpt>
      <trkpt lat="50.38682" lon="3.24108">
        <ele>22.83716</ele>
        <time>2019-12-08T09:29:45.000Z</time>
      </trkpt>
      <trkpt lat="50.38682" lon="3.24093">
        <ele>22.479211</ele>
        <time>2019-12-08T09:29:48.000Z</time>
      </trkpt>
      <trkpt lat="50.38684" lon="3.24077">
        <ele>22.119333</ele>
        <time>2019-12-08T09:29:54.000Z</time>
      </trkpt>
      <trkpt lat="50.38691" lon="3.24066">
        <ele>21.752243</ele>
        <time>2019-12-08T09:29:57.000Z</time>
      </trkpt>
      <trkpt lat="50.38697" lon="3.24048">
        <ele>21.286142</ele>
        <time>2019-12-08T09:30:00.000Z</time>
      </trkpt>
      <trkpt lat="50.387" lon="3.24034">
        <ele>20.943684</ele>
        <time>2019-12-08T09:30:02.000Z</time>
      </trkpt>
      <trkpt lat="50.38704" lon="3.2402">
        <ele>20.596483</ele>
        <time>2019-12-08T09:30:04.000Z</time>
      </trkpt>
      <trkpt lat="50.38707" lon="3.24006">
        <ele>20.28762</ele>
        <time>2019-12-08T09:30:06.000Z</time>
      </trkpt>
      <trkpt lat="50.38711" lon="3.23992">
        <ele>20.112271</ele>
        <time>2019-12-08T09:30:08.000Z</time>
      </trkpt>
      <trkpt lat="50.38717" lon="3.23973">
        <ele>19.85767</ele>
        <time>2019-12-08T09:30:10.000Z</time>
      </trkpt>
      <trkpt lat="50.38723" lon="3.23955">
        <ele>19.622755</ele>
        <time>2019-12-08T09:30:12.000Z</time>
      </trkpt>
      <trkpt lat="50.38728" lon="3.23938">
        <ele>19.410902</ele>
        <time>2019-12-08T09:30:14.000Z</time>
      </trkpt>
      <trkpt lat="50.38731" lon="3.23922">
        <ele>19.21819</ele>
        <time>2019-12-08T09:30:16.000Z</time>
      </trkpt>
      <trkpt lat="50.38733" lon="3.23907">
        <ele>19.041899</ele>
        <time>2019-12-08T09:30:18.000Z</time>
      </trkpt>
      <trkpt lat="50.38734" lon="3.23891">
        <ele>18.858872</ele>
        <time>2019-12-08T09:30:20.000Z</time>
      </trkpt>
      <trkpt lat="50.38738" lon="3.23877">
        <ele>18.683863</ele>
        <time>2019-12-08T09:30:22.000Z</time>
      </trkpt>
      <trkpt lat="50.38743" lon="3.23864">
        <ele>18.510637</ele>
        <time>2019-12-08T09:30:24.000Z</time>
      </trkpt>
      <trkpt lat="50.38746" lon="3.2385">
        <ele>18.343091</ele>
        <time>2019-12-08T09:30:26.000Z</time>
      </trkpt>
      <trkpt lat="50.38747" lon="3.23836">
        <ele>18.175885</ele>
        <time>2019-12-08T09:30:28.000Z</time>
      </trkpt>
      <trkpt lat="50.38749" lon="3.23822">
        <ele>18.005293</ele>
        <time>2019-12-08T09:30:30.000Z</time>
      </trkpt>
      <trkpt lat="50.38752" lon="3.23808">
        <ele>17.838686</ele>
        <time>2019-12-08T09:30:32.000Z</time>
      </trkpt>
      <trkpt lat="50.38754" lon="3.23787">
        <ele>17.599711</ele>
        <time>2019-12-08T09:30:35.000Z</time>
      </trkpt>
      <trkpt lat="50.38757" lon="3.23768">
        <ele>17.366301</ele>
        <time>2019-12-08T09:30:38.000Z</time>
      </trkpt>
      <trkpt lat="50.3876" lon="3.23748">
        <ele>17.139722</ele>
        <time>2019-12-08T09:30:41.000Z</time>
      </trkpt>
      <trkpt lat="50.38762" lon="3.23729">
        <ele>16.925346</ele>
        <time>2019-12-08T09:30:44.000Z</time>
      </trkpt>
      <trkpt lat="50.38763" lon="3.23715">
        <ele>16.766287</ele>
        <time>2019-12-08T09:30:46.000Z</time>
      </trkpt>
      <trkpt lat="50.38762" lon="3.237">
        <ele>16.607912</ele>
        <time>2019-12-08T09:30:48.000Z</time>
      </trkpt>
      <trkpt lat="50.38757" lon="3.23682">
        <ele>16.387982</ele>
        <time>2019-12-08T09:30:51.000Z</time>
      </trkpt>
      <trkpt lat="50.38752" lon="3.23664">
        <ele>16.174846</ele>
        <time>2019-12-08T09:30:54.000Z</time>
      </trkpt>
      <trkpt lat="50.38744" lon="3.23648">
        <ele>15.957989</ele>
        <time>2019-12-08T09:30:57.000Z</time>
      </trkpt>
      <trkpt lat="50.38739" lon="3.2363">
        <ele>15.745996</ele>
        <time>2019-12-08T09:31:00.000Z</time>
      </trkpt>
      <trkpt lat="50.38736" lon="3.23613">
        <ele>15.551107</ele>
        <time>2019-12-08T09:31:03.000Z</time>
      </trkpt>
      <trkpt lat="50.38736" lon="3.23593">
        <ele>15.340695</ele>
        <time>2019-12-08T09:31:06.000Z</time>
      </trkpt>
      <trkpt lat="50.38734" lon="3.23573">
        <ele>15.115617</ele>
        <time>2019-12-08T09:31:09.000Z</time>
      </trkpt>
      <trkpt lat="50.38734" lon="3.23551">
        <ele>14.883414</ele>
        <time>2019-12-08T09:31:12.000Z</time>
      </trkpt>
      <trkpt lat="50.38731" lon="3.23537">
        <ele>14.720046</ele>
        <time>2019-12-08T09:31:14.000Z</time>
      </trkpt>
      <trkpt lat="50.38729" lon="3.23523">
        <ele>14.56037</ele>
        <time>2019-12-08T09:31:16.000Z</time>
      </trkpt>
      <trkpt lat="50.38727" lon="3.23508">
        <ele>14.394501</ele>
        <time>2019-12-08T09:31:18.000Z</time>
      </trkpt>
      <trkpt lat="50.38726" lon="3.23487">
        <ele>14.171372</ele>
        <time>2019-12-08T09:31:21.000Z</time>
      </trkpt>
      <trkpt lat="50.38726" lon="3.23469">
        <ele>14.036313</ele>
        <time>2019-12-08T09:31:24.000Z</time>
      </trkpt>
      <trkpt lat="50.38724" lon="3.2345">
        <ele>14.277033</ele>
        <time>2019-12-08T09:31:27.000Z</time>
      </trkpt>
      <trkpt lat="50.38724" lon="3.23433">
        <ele>14.474445</ele>
        <time>2019-12-08T09:31:30.000Z</time>
      </trkpt>
      <trkpt lat="50.38728" lon="3.2342">
        <ele>14.652029</ele>
        <time>2019-12-08T09:31:36.000Z</time>
      </trkpt>
      <trkpt lat="50.38738" lon="3.23414">
        <ele>14.861656</ele>
        <time>2019-12-08T09:31:45.000Z</time>
      </trkpt>
      <trkpt lat="50.38749" lon="3.23413">
        <ele>15.076837</ele>
        <time>2019-12-08T09:31:49.000Z</time>
      </trkpt>
      <trkpt lat="50.38759" lon="3.23422">
        <ele>15.291495</ele>
        <time>2019-12-08T09:31:52.000Z</time>
      </trkpt>
      <trkpt lat="50.38769" lon="3.23434">
        <ele>15.525398</ele>
        <time>2019-12-08T09:31:55.000Z</time>
      </trkpt>
      <trkpt lat="50.38779" lon="3.23448">
        <ele>15.782648</ele>
        <time>2019-12-08T09:31:58.000Z</time>
      </trkpt>
      <trkpt lat="50.38785" lon="3.23458">
        <ele>15.950311</ele>
        <time>2019-12-08T09:32:00.000Z</time>
      </trkpt>
      <trkpt lat="50.38792" lon="3.23467">
        <ele>16.126111</ele>
        <time>2019-12-08T09:32:02.000Z</time>
      </trkpt>
      <trkpt lat="50.38802" lon="3.23481">
        <ele>16.37669</ele>
        <time>2019-12-08T09:32:05.000Z</time>
      </trkpt>
      <trkpt lat="50.3881" lon="3.23491">
        <ele>16.56509</ele>
        <time>2019-12-08T09:32:07.000Z</time>
      </trkpt>
      <trkpt lat="50.38817" lon="3.235">
        <ele>16.74293</ele>
        <time>2019-12-08T09:32:09.000Z</time>
      </trkpt>
      <trkpt lat="50.38827" lon="3.2351">
        <ele>16.968816</ele>
        <time>2019-12-08T09:32:12.000Z</time>
      </trkpt>
      <trkpt lat="50.38837" lon="3.23516">
        <ele>17.16867</ele>
        <time>2019-12-08T09:32:15.000Z</time>
      </trkpt>
      <trkpt lat="50.38842" lon="3.23528">
        <ele>17.346004</ele>
        <time>2019-12-08T09:32:20.000Z</time>
      </trkpt>
      <trkpt lat="50.38841" lon="3.23544">
        <ele>17.448968</ele>
        <time>2019-12-08T09:32:24.000Z</time>
      </trkpt>
      <trkpt lat="50.38839" lon="3.23558">
        <ele>17.490616</ele>
        <time>2019-12-08T09:32:32.000Z</time>
      </trkpt>
      <trkpt lat="50.38851" lon="3.23562">
        <ele>17.544893</ele>
        <time>2019-12-08T09:32:36.000Z</time>
      </trkpt>
      <trkpt lat="50.38861" lon="3.23563">
        <ele>17.590311</ele>
        <time>2019-12-08T09:32:39.000Z</time>
      </trkpt>
      <trkpt lat="50.38862" lon="3.23585">
        <ele>17.654697</ele>
        <time>2019-12-08T09:33:01.000Z</time>
      </trkpt>
      <trkpt lat="50.38858" lon="3.236">
        <ele>17.701302</ele>
        <time>2019-12-08T09:33:04.000Z</time>
      </trkpt>
      <trkpt lat="50.38855" lon="3.23618">
        <ele>17.756581</ele>
        <time>2019-12-08T09:33:07.000Z</time>
      </trkpt>
      <trkpt lat="50.38851" lon="3.23637">
        <ele>17.81275</ele>
        <time>2019-12-08T09:33:10.000Z</time>
      </trkpt>
      <trkpt lat="50.38848" lon="3.23655">
        <ele>17.868029</ele>
        <time>2019-12-08T09:33:13.000Z</time>
      </trkpt>
      <trkpt lat="50.38845" lon="3.23674">
        <ele>17.922875</ele>
        <time>2019-12-08T09:33:16.000Z</time>
      </trkpt>
      <trkpt lat="50.38842" lon="3.23693">
        <ele>17.980284</ele>
        <time>2019-12-08T09:33:19.000Z</time>
      </trkpt>
      <trkpt lat="50.38841" lon="3.23713">
        <ele>18.038481</ele>
        <time>2019-12-08T09:33:22.000Z</time>
      </trkpt>
      <trkpt lat="50.38842" lon="3.23727">
        <ele>18.080394</ele>
        <time>2019-12-08T09:33:24.000Z</time>
      </trkpt>
      <trkpt lat="50.38843" lon="3.23748">
        <ele>18.140174</ele>
        <time>2019-12-08T09:33:27.000Z</time>
      </trkpt>
      <trkpt lat="50.38843" lon="3.23768">
        <ele>18.19798</ele>
        <time>2019-12-08T09:33:30.000Z</time>
      </trkpt>
      <trkpt lat="50.3884" lon="3.23787">
        <ele>18.220453</ele>
        <time>2019-12-08T09:33:33.000Z</time>
      </trkpt>
      <trkpt lat="50.38838" lon="3.23807">
        <ele>18.171529</ele>
        <time>2019-12-08T09:33:36.000Z</time>
      </trkpt>
      <trkpt lat="50.38837" lon="3.23822">
        <ele>18.136653</ele>
        <time>2019-12-08T09:33:38.000Z</time>
      </trkpt>
      <trkpt lat="50.38836" lon="3.23837">
        <ele>18.100181</ele>
        <time>2019-12-08T09:33:40.000Z</time>
      </trkpt>
      <trkpt lat="50.38836" lon="3.23852">
        <ele>18.063978</ele>
        <time>2019-12-08T09:33:42.000Z</time>
      </trkpt>
      <trkpt lat="50.38835" lon="3.23872">
        <ele>18.015304</ele>
        <time>2019-12-08T09:33:45.000Z</time>
      </trkpt>
      <trkpt lat="50.38832" lon="3.23891">
        <ele>17.969283</ele>
        <time>2019-12-08T09:33:48.000Z</time>
      </trkpt>
      <trkpt lat="50.3883" lon="3.2391">
        <ele>17.923114</ele>
        <time>2019-12-08T09:33:51.000Z</time>
      </trkpt>
      <trkpt lat="50.38829" lon="3.23931">
        <ele>17.874521</ele>
        <time>2019-12-08T09:33:54.000Z</time>
      </trkpt>
      <trkpt lat="50.3883" lon="3.23945">
        <ele>17.840923</ele>
        <time>2019-12-08T09:33:56.000Z</time>
      </trkpt>
      <trkpt lat="50.38827" lon="3.23962">
        <ele>17.798451</ele>
        <time>2019-12-08T09:33:59.000Z</time>
      </trkpt>
      <trkpt lat="50.38825" lon="3.23982">
        <ele>17.750107</ele>
        <time>2019-12-08T09:34:02.000Z</time>
      </trkpt>
      <trkpt lat="50.38824" lon="3.23996">
        <ele>17.715939</ele>
        <time>2019-12-08T09:34:04.000Z</time>
      </trkpt>
      <trkpt lat="50.3882" lon="3.24016">
        <ele>17.666639</ele>
        <time>2019-12-08T09:34:07.000Z</time>
      </trkpt>
      <trkpt lat="50.38815" lon="3.24036">
        <ele>17.616578</ele>
        <time>2019-12-08T09:34:10.000Z</time>
      </trkpt>
      <trkpt lat="50.38811" lon="3.24049">
        <ele>17.581273</ele>
        <time>2019-12-08T09:34:12.000Z</time>
      </trkpt>
      <trkpt lat="50.38807" lon="3.24062">
        <ele>17.578802</ele>
        <time>2019-12-08T09:34:14.000Z</time>
      </trkpt>
      <trkpt lat="50.38802" lon="3.24074">
        <ele>17.607607</ele>
        <time>2019-12-08T09:34:16.000Z</time>
      </trkpt>
      <trkpt lat="50.38796" lon="3.24093">
        <ele>17.649752</ele>
        <time>2019-12-08T09:34:19.000Z</time>
      </trkpt>
      <trkpt lat="50.38791" lon="3.24112">
        <ele>17.692049</ele>
        <time>2019-12-08T09:34:22.000Z</time>
      </trkpt>
      <trkpt lat="50.38786" lon="3.24126">
        <ele>17.723195</ele>
        <time>2019-12-08T09:34:24.000Z</time>
      </trkpt>
      <trkpt lat="50.38782" lon="3.2414">
        <ele>17.754784</ele>
        <time>2019-12-08T09:34:26.000Z</time>
      </trkpt>
      <trkpt lat="50.38777" lon="3.24155">
        <ele>17.787761</ele>
        <time>2019-12-08T09:34:28.000Z</time>
      </trkpt>
      <trkpt lat="50.38772" lon="3.24169">
        <ele>17.820948</ele>
        <time>2019-12-08T09:34:30.000Z</time>
      </trkpt>
      <trkpt lat="50.38767" lon="3.24184">
        <ele>17.853957</ele>
        <time>2019-12-08T09:34:32.000Z</time>
      </trkpt>
      <trkpt lat="50.38762" lon="3.24198">
        <ele>17.886933</ele>
        <time>2019-12-08T09:34:34.000Z</time>
      </trkpt>
      <trkpt lat="50.38759" lon="3.24213">
        <ele>17.919181</ele>
        <time>2019-12-08T09:34:36.000Z</time>
      </trkpt>
      <trkpt lat="50.38755" lon="3.24227">
        <ele>17.949025</ele>
        <time>2019-12-08T09:34:38.000Z</time>
      </trkpt>
      <trkpt lat="50.38752" lon="3.24243">
        <ele>17.981575</ele>
        <time>2019-12-08T09:34:40.000Z</time>
      </trkpt>
      <trkpt lat="50.38749" lon="3.24258">
        <ele>18.014445</ele>
        <time>2019-12-08T09:34:42.000Z</time>
      </trkpt>
      <trkpt lat="50.38747" lon="3.24275">
        <ele>18.048481</ele>
        <time>2019-12-08T09:34:44.000Z</time>
      </trkpt>
      <trkpt lat="50.38745" lon="3.2429">
        <ele>18.080395</ele>
        <time>2019-12-08T09:34:46.000Z</time>
      </trkpt>
      <trkpt lat="50.38744" lon="3.24306">
        <ele>18.111958</ele>
        <time>2019-12-08T09:34:48.000Z</time>
      </trkpt>
      <trkpt lat="50.38745" lon="3.24321">
        <ele>18.080754</ele>
        <time>2019-12-08T09:34:50.000Z</time>
      </trkpt>
      <trkpt lat="50.38748" lon="3.24342">
        <ele>17.893461</ele>
        <time>2019-12-08T09:34:53.000Z</time>
      </trkpt>
      <trkpt lat="50.38751" lon="3.24357">
        <ele>17.752954</ele>
        <time>2019-12-08T09:34:55.000Z</time>
      </trkpt>
      <trkpt lat="50.38755" lon="3.24371">
        <ele>17.618304</ele>
        <time>2019-12-08T09:34:57.000Z</time>
      </trkpt>
      <trkpt lat="50.38759" lon="3.24385">
        <ele>17.482248</ele>
        <time>2019-12-08T09:34:59.000Z</time>
      </trkpt>
      <trkpt lat="50.38766" lon="3.24396">
        <ele>17.352522</ele>
        <time>2019-12-08T09:35:01.000Z</time>
      </trkpt>
      <trkpt lat="50.38773" lon="3.24407">
        <ele>17.207136</ele>
        <time>2019-12-08T09:35:03.000Z</time>
      </trkpt>
      <trkpt lat="50.38782" lon="3.24419">
        <ele>17.05189</ele>
        <time>2019-12-08T09:35:05.000Z</time>
      </trkpt>
      <trkpt lat="50.3879" lon="3.24431">
        <ele>16.900701</ele>
        <time>2019-12-08T09:35:07.000Z</time>
      </trkpt>
      <trkpt lat="50.38798" lon="3.24443">
        <ele>16.742285</ele>
        <time>2019-12-08T09:35:09.000Z</time>
      </trkpt>
      <trkpt lat="50.38806" lon="3.24457">
        <ele>16.58115</ele>
        <time>2019-12-08T09:35:11.000Z</time>
      </trkpt>
      <trkpt lat="50.38813" lon="3.24471">
        <ele>16.422873</ele>
        <time>2019-12-08T09:35:13.000Z</time>
      </trkpt>
      <trkpt lat="50.38821" lon="3.24484">
        <ele>16.264283</ele>
        <time>2019-12-08T09:35:15.000Z</time>
      </trkpt>
      <trkpt lat="50.38829" lon="3.24494">
        <ele>16.129102</ele>
        <time>2019-12-08T09:35:17.000Z</time>
      </trkpt>
      <trkpt lat="50.38836" lon="3.24503">
        <ele>16.005469</ele>
        <time>2019-12-08T09:35:19.000Z</time>
      </trkpt>
      <trkpt lat="50.38842" lon="3.24513">
        <ele>15.877904</ele>
        <time>2019-12-08T09:35:21.000Z</time>
      </trkpt>
      <trkpt lat="50.3885" lon="3.24522">
        <ele>15.748372</ele>
        <time>2019-12-08T09:35:23.000Z</time>
      </trkpt>
      <trkpt lat="50.38857" lon="3.24532">
        <ele>15.769926</ele>
        <time>2019-12-08T09:35:25.000Z</time>
      </trkpt>
      <trkpt lat="50.38866" lon="3.24545">
        <ele>16.368711</ele>
        <time>2019-12-08T09:35:28.000Z</time>
      </trkpt>
      <trkpt lat="50.38873" lon="3.24556">
        <ele>16.815333</ele>
        <time>2019-12-08T09:35:30.000Z</time>
      </trkpt>
      <trkpt lat="50.38879" lon="3.24568">
        <ele>17.254705</ele>
        <time>2019-12-08T09:35:32.000Z</time>
      </trkpt>
      <trkpt lat="50.38886" lon="3.24578">
        <ele>17.697811</ele>
        <time>2019-12-08T09:35:34.000Z</time>
      </trkpt>
      <trkpt lat="50.38894" lon="3.24589">
        <ele>18.176032</ele>
        <time>2019-12-08T09:35:36.000Z</time>
      </trkpt>
      <trkpt lat="50.38901" lon="3.24599">
        <ele>18.633384</ele>
        <time>2019-12-08T09:35:38.000Z</time>
      </trkpt>
      <trkpt lat="50.3891" lon="3.24615">
        <ele>19.266065</ele>
        <time>2019-12-08T09:35:41.000Z</time>
      </trkpt>
      <trkpt lat="50.3892" lon="3.2463">
        <ele>19.914499</ele>
        <time>2019-12-08T09:35:44.000Z</time>
      </trkpt>
      <trkpt lat="50.38927" lon="3.24642">
        <ele>20.373349</ele>
        <time>2019-12-08T09:35:46.000Z</time>
      </trkpt>
      <trkpt lat="50.38934" lon="3.24654">
        <ele>20.846768</ele>
        <time>2019-12-08T09:35:48.000Z</time>
      </trkpt>
      <trkpt lat="50.3894" lon="3.24664">
        <ele>21.283123</ele>
        <time>2019-12-08T09:35:50.000Z</time>
      </trkpt>
      <trkpt lat="50.38947" lon="3.24674">
        <ele>21.714814</ele>
        <time>2019-12-08T09:35:52.000Z</time>
      </trkpt>
      <trkpt lat="50.38955" lon="3.24684">
        <ele>22.192937</ele>
        <time>2019-12-08T09:35:54.000Z</time>
      </trkpt>
      <trkpt lat="50.38963" lon="3.24693">
        <ele>22.649509</ele>
        <time>2019-12-08T09:35:56.000Z</time>
      </trkpt>
      <trkpt lat="50.38972" lon="3.24703">
        <ele>23.138567</ele>
        <time>2019-12-08T09:35:58.000Z</time>
      </trkpt>
      <trkpt lat="50.38979" lon="3.24713">
        <ele>23.608257</ele>
        <time>2019-12-08T09:36:00.000Z</time>
      </trkpt>
      <trkpt lat="50.38987" lon="3.24723">
        <ele>24.030137</ele>
        <time>2019-12-08T09:36:02.000Z</time>
      </trkpt>
      <trkpt lat="50.38995" lon="3.24736">
        <ele>24.395074</ele>
        <time>2019-12-08T09:36:05.000Z</time>
      </trkpt>
      <trkpt lat="50.39004" lon="3.24747">
        <ele>24.731572</ele>
        <time>2019-12-08T09:36:08.000Z</time>
      </trkpt>
      <trkpt lat="50.39013" lon="3.24759">
        <ele>25.101258</ele>
        <time>2019-12-08T09:36:11.000Z</time>
      </trkpt>
      <trkpt lat="50.39022" lon="3.24769">
        <ele>25.41959</ele>
        <time>2019-12-08T09:36:14.000Z</time>
      </trkpt>
      <trkpt lat="50.3903" lon="3.24779">
        <ele>25.739283</ele>
        <time>2019-12-08T09:36:17.000Z</time>
      </trkpt>
      <trkpt lat="50.39039" lon="3.24792">
        <ele>26.100289</ele>
        <time>2019-12-08T09:36:20.000Z</time>
      </trkpt>
      <trkpt lat="50.39047" lon="3.24807">
        <ele>26.493411</ele>
        <time>2019-12-08T09:36:23.000Z</time>
      </trkpt>
      <trkpt lat="50.39054" lon="3.24819">
        <ele>26.801768</ele>
        <time>2019-12-08T09:36:25.000Z</time>
      </trkpt>
      <trkpt lat="50.39061" lon="3.24831">
        <ele>27.124302</ele>
        <time>2019-12-08T09:36:27.000Z</time>
      </trkpt>
      <trkpt lat="50.39068" lon="3.24843">
        <ele>27.422241</ele>
        <time>2019-12-08T09:36:29.000Z</time>
      </trkpt>
      <trkpt lat="50.39074" lon="3.24853">
        <ele>27.697631</ele>
        <time>2019-12-08T09:36:31.000Z</time>
      </trkpt>
      <trkpt lat="50.39081" lon="3.24864">
        <ele>28.00764</ele>
        <time>2019-12-08T09:36:33.000Z</time>
      </trkpt>
      <trkpt lat="50.39088" lon="3.24876">
        <ele>28.313966</ele>
        <time>2019-12-08T09:36:35.000Z</time>
      </trkpt>
      <trkpt lat="50.39095" lon="3.24889">
        <ele>28.647503</ele>
        <time>2019-12-08T09:36:37.000Z</time>
      </trkpt>
      <trkpt lat="50.39101" lon="3.24901">
        <ele>28.940506</ele>
        <time>2019-12-08T09:36:39.000Z</time>
      </trkpt>
      <trkpt lat="50.39108" lon="3.24913">
        <ele>29.258119</ele>
        <time>2019-12-08T09:36:41.000Z</time>
      </trkpt>
      <trkpt lat="50.39114" lon="3.24925">
        <ele>29.412769</ele>
        <time>2019-12-08T09:36:43.000Z</time>
      </trkpt>
      <trkpt lat="50.39121" lon="3.24935">
        <ele>29.249889</ele>
        <time>2019-12-08T09:36:45.000Z</time>
      </trkpt>
      <trkpt lat="50.39127" lon="3.24947">
        <ele>29.085951</ele>
        <time>2019-12-08T09:36:47.000Z</time>
      </trkpt>
      <trkpt lat="50.39132" lon="3.24958">
        <ele>28.928785</ele>
        <time>2019-12-08T09:36:49.000Z</time>
      </trkpt>
      <trkpt lat="50.39139" lon="3.24969">
        <ele>28.759061</ele>
        <time>2019-12-08T09:36:51.000Z</time>
      </trkpt>
      <trkpt lat="50.39146" lon="3.2498">
        <ele>28.583311</ele>
        <time>2019-12-08T09:36:53.000Z</time>
      </trkpt>
      <trkpt lat="50.39153" lon="3.24992">
        <ele>28.40051</ele>
        <time>2019-12-08T09:36:55.000Z</time>
      </trkpt>
      <trkpt lat="50.3916" lon="3.25003">
        <ele>28.231201</ele>
        <time>2019-12-08T09:36:57.000Z</time>
      </trkpt>
      <trkpt lat="50.39167" lon="3.25012">
        <ele>28.071781</ele>
        <time>2019-12-08T09:36:59.000Z</time>
      </trkpt>
      <trkpt lat="50.39177" lon="3.25024">
        <ele>27.843764</ele>
        <time>2019-12-08T09:37:02.000Z</time>
      </trkpt>
      <trkpt lat="50.39188" lon="3.25036">
        <ele>27.623708</ele>
        <time>2019-12-08T09:37:05.000Z</time>
      </trkpt>
      <trkpt lat="50.39198" lon="3.25047">
        <ele>27.407996</ele>
        <time>2019-12-08T09:37:08.000Z</time>
      </trkpt>
      <trkpt lat="50.39207" lon="3.25053">
        <ele>27.236521</ele>
        <time>2019-12-08T09:37:10.000Z</time>
      </trkpt>
      <trkpt lat="50.39216" lon="3.25057">
        <ele>27.066628</ele>
        <time>2019-12-08T09:37:12.000Z</time>
      </trkpt>
      <trkpt lat="50.39227" lon="3.25061">
        <ele>26.865344</ele>
        <time>2019-12-08T09:37:15.000Z</time>
      </trkpt>
      <trkpt lat="50.39237" lon="3.25067">
        <ele>26.691417</ele>
        <time>2019-12-08T09:37:18.000Z</time>
      </trkpt>
      <trkpt lat="50.39248" lon="3.25074">
        <ele>26.474433</ele>
        <time>2019-12-08T09:37:21.000Z</time>
      </trkpt>
      <trkpt lat="50.39258" lon="3.2508">
        <ele>26.215708</ele>
        <time>2019-12-08T09:37:24.000Z</time>
      </trkpt>
      <trkpt lat="50.3927" lon="3.25088">
        <ele>25.610097</ele>
        <time>2019-12-08T09:37:27.000Z</time>
      </trkpt>
      <trkpt lat="50.3928" lon="3.25093">
        <ele>25.138744</ele>
        <time>2019-12-08T09:37:29.000Z</time>
      </trkpt>
      <trkpt lat="50.3929" lon="3.25098">
        <ele>24.652754</ele>
        <time>2019-12-08T09:37:31.000Z</time>
      </trkpt>
      <trkpt lat="50.393" lon="3.25105">
        <ele>24.150184</ele>
        <time>2019-12-08T09:37:33.000Z</time>
      </trkpt>
      <trkpt lat="50.3931" lon="3.25113">
        <ele>23.65037</ele>
        <time>2019-12-08T09:37:35.000Z</time>
      </trkpt>
      <trkpt lat="50.3932" lon="3.2512">
        <ele>23.129199</ele>
        <time>2019-12-08T09:37:38.000Z</time>
      </trkpt>
      <trkpt lat="50.39329" lon="3.25125">
        <ele>22.695614</ele>
        <time>2019-12-08T09:37:41.000Z</time>
      </trkpt>
      <trkpt lat="50.39338" lon="3.25132">
        <ele>22.207984</ele>
        <time>2019-12-08T09:37:44.000Z</time>
      </trkpt>
      <trkpt lat="50.39349" lon="3.2514">
        <ele>21.649401</ele>
        <time>2019-12-08T09:37:47.000Z</time>
      </trkpt>
      <trkpt lat="50.39361" lon="3.25144">
        <ele>21.091446</ele>
        <time>2019-12-08T09:37:50.000Z</time>
      </trkpt>
      <trkpt lat="50.3937" lon="3.25147">
        <ele>20.656219</ele>
        <time>2019-12-08T09:37:52.000Z</time>
      </trkpt>
      <trkpt lat="50.3938" lon="3.25152">
        <ele>20.210826</ele>
        <time>2019-12-08T09:37:54.000Z</time>
      </trkpt>
      <trkpt lat="50.3939" lon="3.25159">
        <ele>19.684679</ele>
        <time>2019-12-08T09:37:57.000Z</time>
      </trkpt>
      <trkpt lat="50.394" lon="3.25169">
        <ele>19.146592</ele>
        <time>2019-12-08T09:38:00.000Z</time>
      </trkpt>
      <trkpt lat="50.39409" lon="3.25176">
        <ele>18.694502</ele>
        <time>2019-12-08T09:38:03.000Z</time>
      </trkpt>
      <trkpt lat="50.39419" lon="3.25183">
        <ele>18.167165</ele>
        <time>2019-12-08T09:38:06.000Z</time>
      </trkpt>
      <trkpt lat="50.39431" lon="3.25189">
        <ele>18.420699</ele>
        <time>2019-12-08T09:38:09.000Z</time>
      </trkpt>
      <trkpt lat="50.39439" lon="3.25194">
        <ele>18.841803</ele>
        <time>2019-12-08T09:38:11.000Z</time>
      </trkpt>
      <trkpt lat="50.39451" lon="3.25202">
        <ele>19.416815</ele>
        <time>2019-12-08T09:38:14.000Z</time>
      </trkpt>
      <trkpt lat="50.3946" lon="3.25209">
        <ele>19.863367</ele>
        <time>2019-12-08T09:38:16.000Z</time>
      </trkpt>
      <trkpt lat="50.39468" lon="3.25218">
        <ele>20.29491</ele>
        <time>2019-12-08T09:38:18.000Z</time>
      </trkpt>
      <trkpt lat="50.39477" lon="3.25226">
        <ele>20.752526</ele>
        <time>2019-12-08T09:38:20.000Z</time>
      </trkpt>
      <trkpt lat="50.39485" lon="3.25232">
        <ele>21.161909</ele>
        <time>2019-12-08T09:38:22.000Z</time>
      </trkpt>
      <trkpt lat="50.39492" lon="3.25241">
        <ele>21.576927</ele>
        <time>2019-12-08T09:38:24.000Z</time>
      </trkpt>
      <trkpt lat="50.39502" lon="3.25249">
        <ele>22.072907</ele>
        <time>2019-12-08T09:38:26.000Z</time>
      </trkpt>
      <trkpt lat="50.39511" lon="3.2526">
        <ele>22.566786</ele>
        <time>2019-12-08T09:38:28.000Z</time>
      </trkpt>
      <trkpt lat="50.39519" lon="3.25272">
        <ele>23.068782</ele>
        <time>2019-12-08T09:38:30.000Z</time>
      </trkpt>
      <trkpt lat="50.39527" lon="3.25282">
        <ele>23.548522</ele>
        <time>2019-12-08T09:38:32.000Z</time>
      </trkpt>
      <trkpt lat="50.39537" lon="3.25291">
        <ele>24.057039</ele>
        <time>2019-12-08T09:38:34.000Z</time>
      </trkpt>
      <trkpt lat="50.39546" lon="3.253">
        <ele>24.547185</ele>
        <time>2019-12-08T09:38:36.000Z</time>
      </trkpt>
      <trkpt lat="50.39554" lon="3.25309">
        <ele>24.999111</ele>
        <time>2019-12-08T09:38:38.000Z</time>
      </trkpt>
      <trkpt lat="50.39562" lon="3.25319">
        <ele>25.448826</ele>
        <time>2019-12-08T09:38:40.000Z</time>
      </trkpt>
      <trkpt lat="50.3957" lon="3.25327">
        <ele>25.875679</ele>
        <time>2019-12-08T09:38:42.000Z</time>
      </trkpt>
      <trkpt lat="50.39578" lon="3.25334">
        <ele>26.010516</ele>
        <time>2019-12-08T09:38:44.000Z</time>
      </trkpt>
      <trkpt lat="50.39588" lon="3.25341">
        <ele>25.750333</ele>
        <time>2019-12-08T09:38:47.000Z</time>
      </trkpt>
      <trkpt lat="50.39597" lon="3.2535">
        <ele>25.487383</ele>
        <time>2019-12-08T09:38:50.000Z</time>
      </trkpt>
      <trkpt lat="50.39607" lon="3.25356">
        <ele>25.247833</ele>
        <time>2019-12-08T09:38:53.000Z</time>
      </trkpt>
      <trkpt lat="50.39616" lon="3.25364">
        <ele>24.993193</ele>
        <time>2019-12-08T09:38:57.000Z</time>
      </trkpt>
      <trkpt lat="50.39625" lon="3.25376">
        <ele>24.699864</ele>
        <time>2019-12-08T09:39:01.000Z</time>
      </trkpt>
      <trkpt lat="50.39635" lon="3.25386">
        <ele>24.418782</ele>
        <time>2019-12-08T09:39:04.000Z</time>
      </trkpt>
      <trkpt lat="50.39646" lon="3.25393">
        <ele>24.137238</ele>
        <time>2019-12-08T09:39:07.000Z</time>
      </trkpt>
      <trkpt lat="50.39655" lon="3.25399">
        <ele>23.88805</ele>
        <time>2019-12-08T09:39:10.000Z</time>
      </trkpt>
      <trkpt lat="50.39663" lon="3.25407">
        <ele>23.66684</ele>
        <time>2019-12-08T09:39:13.000Z</time>
      </trkpt>
      <trkpt lat="50.39673" lon="3.25416">
        <ele>23.401582</ele>
        <time>2019-12-08T09:39:16.000Z</time>
      </trkpt>
      <trkpt lat="50.39681" lon="3.25427">
        <ele>23.137666</ele>
        <time>2019-12-08T09:39:19.000Z</time>
      </trkpt>
      <trkpt lat="50.39691" lon="3.25437">
        <ele>22.8549</ele>
        <time>2019-12-08T09:39:22.000Z</time>
      </trkpt>
      <trkpt lat="50.397" lon="3.25449">
        <ele>22.559452</ele>
        <time>2019-12-08T09:39:25.000Z</time>
      </trkpt>
      <trkpt lat="50.39708" lon="3.25458">
        <ele>22.341783</ele>
        <time>2019-12-08T09:39:27.000Z</time>
      </trkpt>
      <trkpt lat="50.39718" lon="3.25469">
        <ele>22.04469</ele>
        <time>2019-12-08T09:39:30.000Z</time>
      </trkpt>
      <trkpt lat="50.39727" lon="3.25481">
        <ele>21.766296</ele>
        <time>2019-12-08T09:39:33.000Z</time>
      </trkpt>
      <trkpt lat="50.39735" lon="3.25495">
        <ele>21.572386</ele>
        <time>2019-12-08T09:39:36.000Z</time>
      </trkpt>
      <trkpt lat="50.39744" lon="3.25507">
        <ele>21.388255</ele>
        <time>2019-12-08T09:39:39.000Z</time>
      </trkpt>
      <trkpt lat="50.39753" lon="3.25518">
        <ele>21.212052</ele>
        <time>2019-12-08T09:39:42.000Z</time>
      </trkpt>
      <trkpt lat="50.39759" lon="3.25528">
        <ele>21.06527</ele>
        <time>2019-12-08T09:39:45.000Z</time>
      </trkpt>
      <trkpt lat="50.39766" lon="3.25537">
        <ele>20.920016</ele>
        <time>2019-12-08T09:39:48.000Z</time>
      </trkpt>
      <trkpt lat="50.39774" lon="3.25548">
        <ele>20.763316</ele>
        <time>2019-12-08T09:39:51.000Z</time>
      </trkpt>
      <trkpt lat="50.3978" lon="3.2556">
        <ele>20.606935</ele>
        <time>2019-12-08T09:39:54.000Z</time>
      </trkpt>
      <trkpt lat="50.39788" lon="3.25571">
        <ele>20.441902</ele>
        <time>2019-12-08T09:39:57.000Z</time>
      </trkpt>
      <trkpt lat="50.39795" lon="3.25584">
        <ele>20.26489</ele>
        <time>2019-12-08T09:40:00.000Z</time>
      </trkpt>
      <trkpt lat="50.39802" lon="3.25598">
        <ele>20.087372</ele>
        <time>2019-12-08T09:40:03.000Z</time>
      </trkpt>
      <trkpt lat="50.39806" lon="3.25611">
        <ele>19.94128</ele>
        <time>2019-12-08T09:40:05.000Z</time>
      </trkpt>
      <trkpt lat="50.3981" lon="3.25624">
        <ele>19.791134</ele>
        <time>2019-12-08T09:40:07.000Z</time>
      </trkpt>
      <trkpt lat="50.39815" lon="3.25639">
        <ele>19.621857</ele>
        <time>2019-12-08T09:40:09.000Z</time>
      </trkpt>
      <trkpt lat="50.39819" lon="3.25652">
        <ele>19.474866</ele>
        <time>2019-12-08T09:40:11.000Z</time>
      </trkpt>
      <trkpt lat="50.39823" lon="3.25666">
        <ele>19.324721</ele>
        <time>2019-12-08T09:40:13.000Z</time>
      </trkpt>
      <trkpt lat="50.39828" lon="3.25678">
        <ele>19.177591</ele>
        <time>2019-12-08T09:40:15.000Z</time>
      </trkpt>
      <trkpt lat="50.39834" lon="3.25697">
        <ele>18.966792</ele>
        <time>2019-12-08T09:40:18.000Z</time>
      </trkpt>
      <trkpt lat="50.39838" lon="3.2571">
        <ele>19.003121</ele>
        <time>2019-12-08T09:40:20.000Z</time>
      </trkpt>
      <trkpt lat="50.39843" lon="3.25722">
        <ele>19.088561</ele>
        <time>2019-12-08T09:40:22.000Z</time>
      </trkpt>
      <trkpt lat="50.39848" lon="3.25734">
        <ele>19.171508</ele>
        <time>2019-12-08T09:40:24.000Z</time>
      </trkpt>
      <trkpt lat="50.39855" lon="3.25749">
        <ele>19.283525</ele>
        <time>2019-12-08T09:40:27.000Z</time>
      </trkpt>
      <trkpt lat="50.39864" lon="3.25763">
        <ele>19.399942</ele>
        <time>2019-12-08T09:40:30.000Z</time>
      </trkpt>
      <trkpt lat="50.39873" lon="3.25774">
        <ele>19.506843</ele>
        <time>2019-12-08T09:40:33.000Z</time>
      </trkpt>
      <trkpt lat="50.3988" lon="3.25785">
        <ele>19.599588</ele>
        <time>2019-12-08T09:40:36.000Z</time>
      </trkpt>
      <trkpt lat="50.3989" lon="3.25796">
        <ele>19.712011</ele>
        <time>2019-12-08T09:40:39.000Z</time>
      </trkpt>
      <trkpt lat="50.39898" lon="3.25807">
        <ele>19.811283</ele>
        <time>2019-12-08T09:40:42.000Z</time>
      </trkpt>
      <trkpt lat="50.39909" lon="3.25818">
        <ele>19.930846</ele>
        <time>2019-12-08T09:40:45.000Z</time>
      </trkpt>
      <trkpt lat="50.39919" lon="3.25831">
        <ele>20.046097</ele>
        <time>2019-12-08T09:40:48.000Z</time>
      </trkpt>
      <trkpt lat="50.39927" lon="3.25842">
        <ele>20.150684</ele>
        <time>2019-12-08T09:40:51.000Z</time>
      </trkpt>
      <trkpt lat="50.39936" lon="3.25853">
        <ele>20.253538</ele>
        <time>2019-12-08T09:40:54.000Z</time>
      </trkpt>
      <trkpt lat="50.39943" lon="3.25862">
        <ele>20.338482</ele>
        <time>2019-12-08T09:40:57.000Z</time>
      </trkpt>
      <trkpt lat="50.39949" lon="3.25873">
        <ele>20.429698</ele>
        <time>2019-12-08T09:41:00.000Z</time>
      </trkpt>
      <trkpt lat="50.39956" lon="3.25886">
        <ele>20.526334</ele>
        <time>2019-12-08T09:41:03.000Z</time>
      </trkpt>
      <trkpt lat="50.39964" lon="3.25901">
        <ele>20.885361</ele>
        <time>2019-12-08T09:41:06.000Z</time>
      </trkpt>
      <trkpt lat="50.3997" lon="3.25912">
        <ele>21.473624</ele>
        <time>2019-12-08T09:41:08.000Z</time>
      </trkpt>
      <trkpt lat="50.39976" lon="3.25925">
        <ele>22.158327</ele>
        <time>2019-12-08T09:41:12.000Z</time>
      </trkpt>
      <trkpt lat="50.39986" lon="3.25936">
        <ele>22.956694</ele>
        <time>2019-12-08T09:41:17.000Z</time>
      </trkpt>
      <trkpt lat="50.39993" lon="3.25945">
        <ele>23.592889</ele>
        <time>2019-12-08T09:41:20.000Z</time>
      </trkpt>
      <trkpt lat="50.4" lon="3.25955">
        <ele>24.205345</ele>
        <time>2019-12-08T09:41:23.000Z</time>
      </trkpt>
      <trkpt lat="50.40007" lon="3.25967">
        <ele>24.88907</ele>
        <time>2019-12-08T09:41:26.000Z</time>
      </trkpt>
      <trkpt lat="50.40014" lon="3.25978">
        <ele>25.548359</ele>
        <time>2019-12-08T09:41:29.000Z</time>
      </trkpt>
      <trkpt lat="50.40021" lon="3.25992">
        <ele>26.309766</ele>
        <time>2019-12-08T09:41:32.000Z</time>
      </trkpt>
      <trkpt lat="50.40027" lon="3.26004">
        <ele>26.954014</ele>
        <time>2019-12-08T09:41:34.000Z</time>
      </trkpt>
      <trkpt lat="50.40035" lon="3.26021">
        <ele>27.843489</ele>
        <time>2019-12-08T09:41:36.000Z</time>
      </trkpt>
      <trkpt lat="50.40041" lon="3.26032">
        <ele>28.489094</ele>
        <time>2019-12-08T09:41:38.000Z</time>
      </trkpt>
      <trkpt lat="50.40046" lon="3.26048">
        <ele>29.253913</ele>
        <time>2019-12-08T09:41:41.000Z</time>
      </trkpt>
      <trkpt lat="50.40053" lon="3.26065">
        <ele>30.073035</ele>
        <time>2019-12-08T09:41:44.000Z</time>
      </trkpt>
      <trkpt lat="50.40059" lon="3.2608">
        <ele>30.8528</ele>
        <time>2019-12-08T09:41:47.000Z</time>
      </trkpt>
      <trkpt lat="50.40065" lon="3.26097">
        <ele>31.654851</ele>
        <time>2019-12-08T09:41:50.000Z</time>
      </trkpt>
      <trkpt lat="50.40073" lon="3.2611">
        <ele>32.434078</ele>
        <time>2019-12-08T09:41:53.000Z</time>
      </trkpt>
      <trkpt lat="50.40082" lon="3.26124">
        <ele>32.495612</ele>
        <time>2019-12-08T09:41:56.000Z</time>
      </trkpt>
      <trkpt lat="50.4009" lon="3.2614">
        <ele>32.396321</ele>
        <time>2019-12-08T09:41:59.000Z</time>
      </trkpt>
      <trkpt lat="50.40098" lon="3.2615">
        <ele>32.320639</ele>
        <time>2019-12-08T09:42:01.000Z</time>
      </trkpt>
      <trkpt lat="50.40105" lon="3.26162">
        <ele>32.241442</ele>
        <time>2019-12-08T09:42:03.000Z</time>
      </trkpt>
      <trkpt lat="50.40112" lon="3.26177">
        <ele>32.153778</ele>
        <time>2019-12-08T09:42:05.000Z</time>
      </trkpt>
      <trkpt lat="50.40119" lon="3.26193">
        <ele>32.057629</ele>
        <time>2019-12-08T09:42:07.000Z</time>
      </trkpt>
      <trkpt lat="50.40127" lon="3.26207">
        <ele>31.968663</ele>
        <time>2019-12-08T09:42:09.000Z</time>
      </trkpt>
      <trkpt lat="50.40136" lon="3.26218">
        <ele>31.88286</ele>
        <time>2019-12-08T09:42:11.000Z</time>
      </trkpt>
      <trkpt lat="50.40144" lon="3.26232">
        <ele>31.788491</ele>
        <time>2019-12-08T09:42:13.000Z</time>
      </trkpt>
      <trkpt lat="50.40154" lon="3.26248">
        <ele>31.68556</ele>
        <time>2019-12-08T09:42:15.000Z</time>
      </trkpt>
      <trkpt lat="50.40161" lon="3.26263">
        <ele>31.593319</ele>
        <time>2019-12-08T09:42:17.000Z</time>
      </trkpt>
      <trkpt lat="50.40168" lon="3.26278">
        <ele>31.502714</ele>
        <time>2019-12-08T09:42:19.000Z</time>
      </trkpt>
      <trkpt lat="50.40176" lon="3.26293">
        <ele>31.410925</ele>
        <time>2019-12-08T09:42:21.000Z</time>
      </trkpt>
      <trkpt lat="50.40183" lon="3.26309">
        <ele>31.317688</ele>
        <time>2019-12-08T09:42:23.000Z</time>
      </trkpt>
      <trkpt lat="50.40189" lon="3.26324">
        <ele>31.229578</ele>
        <time>2019-12-08T09:42:25.000Z</time>
      </trkpt>
      <trkpt lat="50.40196" lon="3.26338">
        <ele>30.336559</ele>
        <time>2019-12-08T09:42:27.000Z</time>
      </trkpt>
      <trkpt lat="50.40203" lon="3.26352">
        <ele>29.266153</ele>
        <time>2019-12-08T09:42:29.000Z</time>
      </trkpt>
      <trkpt lat="50.4021" lon="3.26366">
        <ele>28.203319</ele>
        <time>2019-12-08T09:42:31.000Z</time>
      </trkpt>
      <trkpt lat="50.40217" lon="3.2638">
        <ele>27.14723</ele>
        <time>2019-12-08T09:42:33.000Z</time>
      </trkpt>
      <trkpt lat="50.40225" lon="3.26394">
        <ele>26.018019</ele>
        <time>2019-12-08T09:42:35.000Z</time>
      </trkpt>
      <trkpt lat="50.40232" lon="3.26408">
        <ele>24.967668</ele>
        <time>2019-12-08T09:42:37.000Z</time>
      </trkpt>
      <trkpt lat="50.40239" lon="3.26422">
        <ele>23.896338</ele>
        <time>2019-12-08T09:42:39.000Z</time>
      </trkpt>
      <trkpt lat="50.40246" lon="3.26436">
        <ele>22.793567</ele>
        <time>2019-12-08T09:42:41.000Z</time>
      </trkpt>
      <trkpt lat="50.40254" lon="3.2645">
        <ele>21.695929</ele>
        <time>2019-12-08T09:42:43.000Z</time>
      </trkpt>
      <trkpt lat="50.40262" lon="3.26464">
        <ele>20.581195</ele>
        <time>2019-12-08T09:42:45.000Z</time>
      </trkpt>
      <trkpt lat="50.40269" lon="3.26479">
        <ele>19.472433</ele>
        <time>2019-12-08T09:42:47.000Z</time>
      </trkpt>
      <trkpt lat="50.40277" lon="3.26492">
        <ele>18.362118</ele>
        <time>2019-12-08T09:42:49.000Z</time>
      </trkpt>
      <trkpt lat="50.40284" lon="3.26505">
        <ele>17.3082</ele>
        <time>2019-12-08T09:42:51.000Z</time>
      </trkpt>
      <trkpt lat="50.40291" lon="3.26519">
        <ele>16.276948</ele>
        <time>2019-12-08T09:42:53.000Z</time>
      </trkpt>
      <trkpt lat="50.40298" lon="3.26532">
        <ele>15.287867</ele>
        <time>2019-12-08T09:42:55.000Z</time>
      </trkpt>
      <trkpt lat="50.40305" lon="3.26544">
        <ele>14.286678</ele>
        <time>2019-12-08T09:42:57.000Z</time>
      </trkpt>
      <trkpt lat="50.40312" lon="3.26557">
        <ele>13.865672</ele>
        <time>2019-12-08T09:42:59.000Z</time>
      </trkpt>
      <trkpt lat="50.40319" lon="3.2657">
        <ele>13.474903</ele>
        <time>2019-12-08T09:43:01.000Z</time>
      </trkpt>
      <trkpt lat="50.40326" lon="3.26583">
        <ele>13.054603</ele>
        <time>2019-12-08T09:43:03.000Z</time>
      </trkpt>
      <trkpt lat="50.40333" lon="3.26595">
        <ele>12.663834</ele>
        <time>2019-12-08T09:43:05.000Z</time>
      </trkpt>
      <trkpt lat="50.4034" lon="3.26607">
        <ele>12.281636</ele>
        <time>2019-12-08T09:43:07.000Z</time>
      </trkpt>
      <trkpt lat="50.40347" lon="3.26619">
        <ele>11.901191</ele>
        <time>2019-12-08T09:43:09.000Z</time>
      </trkpt>
      <trkpt lat="50.40353" lon="3.26632">
        <ele>11.524525</ele>
        <time>2019-12-08T09:43:11.000Z</time>
      </trkpt>
      <trkpt lat="50.40359" lon="3.26644">
        <ele>11.146477</ele>
        <time>2019-12-08T09:43:13.000Z</time>
      </trkpt>
      <trkpt lat="50.40366" lon="3.26655">
        <ele>10.774574</ele>
        <time>2019-12-08T09:43:15.000Z</time>
      </trkpt>
      <trkpt lat="50.40371" lon="3.26667">
        <ele>10.419346</ele>
        <time>2019-12-08T09:43:17.000Z</time>
      </trkpt>
      <trkpt lat="50.40377" lon="3.2668">
        <ele>10.051616</ele>
        <time>2019-12-08T09:43:19.000Z</time>
      </trkpt>
      <trkpt lat="50.40383" lon="3.26693">
        <ele>9.671952</ele>
        <time>2019-12-08T09:43:21.000Z</time>
      </trkpt>
      <trkpt lat="50.4039" lon="3.26706">
        <ele>9.256502</ele>
        <time>2019-12-08T09:43:23.000Z</time>
      </trkpt>
      <trkpt lat="50.40397" lon="3.26721">
        <ele>8.802673</ele>
        <time>2019-12-08T09:43:25.000Z</time>
      </trkpt>
      <trkpt lat="50.40405" lon="3.26735">
        <ele>8.374201</ele>
        <time>2019-12-08T09:43:27.000Z</time>
      </trkpt>
      <trkpt lat="50.40412" lon="3.26749">
        <ele>7.939578</ele>
        <time>2019-12-08T09:43:29.000Z</time>
      </trkpt>
      <trkpt lat="50.40419" lon="3.26763">
        <ele>7.531648</ele>
        <time>2019-12-08T09:43:31.000Z</time>
      </trkpt>
      <trkpt lat="50.40425" lon="3.26775">
        <ele>7.544916</ele>
        <time>2019-12-08T09:43:33.000Z</time>
      </trkpt>
      <trkpt lat="50.40432" lon="3.26788">
        <ele>7.558869</ele>
        <time>2019-12-08T09:43:35.000Z</time>
      </trkpt>
      <trkpt lat="50.40439" lon="3.26802">
        <ele>7.573748</ele>
        <time>2019-12-08T09:43:37.000Z</time>
      </trkpt>
      <trkpt lat="50.40447" lon="3.26818">
        <ele>7.589818</ele>
        <time>2019-12-08T09:43:39.000Z</time>
      </trkpt>
      <trkpt lat="50.40455" lon="3.26832">
        <ele>7.605325</ele>
        <time>2019-12-08T09:43:41.000Z</time>
      </trkpt>
      <trkpt lat="50.40462" lon="3.26846">
        <ele>7.620204</ele>
        <time>2019-12-08T09:43:43.000Z</time>
      </trkpt>
      <trkpt lat="50.4047" lon="3.2686">
        <ele>7.635506</ele>
        <time>2019-12-08T09:43:45.000Z</time>
      </trkpt>
      <trkpt lat="50.40477" lon="3.26874">
        <ele>7.650402</ele>
        <time>2019-12-08T09:43:47.000Z</time>
      </trkpt>
      <trkpt lat="50.40485" lon="3.26889">
        <ele>7.66599</ele>
        <time>2019-12-08T09:43:49.000Z</time>
      </trkpt>
      <trkpt lat="50.40492" lon="3.26903">
        <ele>7.680842</ele>
        <time>2019-12-08T09:43:51.000Z</time>
      </trkpt>
      <trkpt lat="50.40499" lon="3.26916">
        <ele>7.695302</ele>
        <time>2019-12-08T09:43:53.000Z</time>
      </trkpt>
      <trkpt lat="50.40506" lon="3.26929">
        <ele>7.709005</ele>
        <time>2019-12-08T09:43:55.000Z</time>
      </trkpt>
      <trkpt lat="50.40513" lon="3.26942">
        <ele>7.723064</ele>
        <time>2019-12-08T09:43:57.000Z</time>
      </trkpt>
      <trkpt lat="50.40521" lon="3.26956">
        <ele>7.738088</ele>
        <time>2019-12-08T09:43:59.000Z</time>
      </trkpt>
      <trkpt lat="50.40527" lon="3.26972">
        <ele>7.753994</ele>
        <time>2019-12-08T09:44:01.000Z</time>
      </trkpt>
      <trkpt lat="50.40535" lon="3.26985">
        <ele>7.687794</ele>
        <time>2019-12-08T09:44:03.000Z</time>
      </trkpt>
      <trkpt lat="50.40542" lon="3.26998">
        <ele>7.462835</ele>
        <time>2019-12-08T09:44:05.000Z</time>
      </trkpt>
      <trkpt lat="50.4055" lon="3.27011">
        <ele>7.236934</ele>
        <time>2019-12-08T09:44:07.000Z</time>
      </trkpt>
      <trkpt lat="50.40558" lon="3.27023">
        <ele>7.016568</ele>
        <time>2019-12-08T09:44:09.000Z</time>
      </trkpt>
      <trkpt lat="50.40566" lon="3.27037">
        <ele>6.777368</ele>
        <time>2019-12-08T09:44:11.000Z</time>
      </trkpt>
      <trkpt lat="50.40574" lon="3.27049">
        <ele>6.55326</ele>
        <time>2019-12-08T09:44:13.000Z</time>
      </trkpt>
      <trkpt lat="50.40582" lon="3.27062">
        <ele>6.325069</ele>
        <time>2019-12-08T09:44:15.000Z</time>
      </trkpt>
      <trkpt lat="50.4059" lon="3.27075">
        <ele>6.092784</ele>
        <time>2019-12-08T09:44:17.000Z</time>
      </trkpt>
      <trkpt lat="50.40597" lon="3.27089">
        <ele>5.870852</ele>
        <time>2019-12-08T09:44:19.000Z</time>
      </trkpt>
      <trkpt lat="50.40604" lon="3.27103">
        <ele>5.648789</ele>
        <time>2019-12-08T09:44:21.000Z</time>
      </trkpt>
      <trkpt lat="50.40611" lon="3.27117">
        <ele>5.425118</ele>
        <time>2019-12-08T09:44:23.000Z</time>
      </trkpt>
      <trkpt lat="50.40618" lon="3.27131">
        <ele>5.194451</ele>
        <time>2019-12-08T09:44:25.000Z</time>
      </trkpt>
      <trkpt lat="50.40625" lon="3.27145">
        <ele>4.963056</ele>
        <time>2019-12-08T09:44:27.000Z</time>
      </trkpt>
      <trkpt lat="50.40632" lon="3.27158">
        <ele>4.745058</ele>
        <time>2019-12-08T09:44:29.000Z</time>
      </trkpt>
      <trkpt lat="50.40638" lon="3.27171">
        <ele>4.540721</ele>
        <time>2019-12-08T09:44:31.000Z</time>
      </trkpt>
      <trkpt lat="50.40644" lon="3.27184">
        <ele>4.333258</ele>
        <time>2019-12-08T09:44:33.000Z</time>
      </trkpt>
      <trkpt lat="50.40651" lon="3.27196">
        <ele>4.22148</ele>
        <time>2019-12-08T09:44:35.000Z</time>
      </trkpt>
      <trkpt lat="50.40656" lon="3.27208">
        <ele>4.508845</ele>
        <time>2019-12-08T09:44:37.000Z</time>
      </trkpt>
      <trkpt lat="50.40662" lon="3.27219">
        <ele>4.803631</ele>
        <time>2019-12-08T09:44:39.000Z</time>
      </trkpt>
      <trkpt lat="50.40669" lon="3.2723">
        <ele>5.096901</ele>
        <time>2019-12-08T09:44:41.000Z</time>
      </trkpt>
      <trkpt lat="50.40675" lon="3.27243">
        <ele>5.430534</ele>
        <time>2019-12-08T09:44:43.000Z</time>
      </trkpt>
      <trkpt lat="50.40682" lon="3.27255">
        <ele>5.742513</ele>
        <time>2019-12-08T09:44:45.000Z</time>
      </trkpt>
      <trkpt lat="50.40688" lon="3.27267">
        <ele>6.057526</ele>
        <time>2019-12-08T09:44:47.000Z</time>
      </trkpt>
      <trkpt lat="50.40694" lon="3.2728">
        <ele>6.361868</ele>
        <time>2019-12-08T09:44:49.000Z</time>
      </trkpt>
      <trkpt lat="50.407" lon="3.27291">
        <ele>6.652121</ele>
        <time>2019-12-08T09:44:51.000Z</time>
      </trkpt>
      <trkpt lat="50.40706" lon="3.27301">
        <ele>6.92668</ele>
        <time>2019-12-08T09:44:53.000Z</time>
      </trkpt>
      <trkpt lat="50.40712" lon="3.27313">
        <ele>7.226046</ele>
        <time>2019-12-08T09:44:55.000Z</time>
      </trkpt>
      <trkpt lat="50.40719" lon="3.27325">
        <ele>7.54777</ele>
        <time>2019-12-08T09:44:57.000Z</time>
      </trkpt>
      <trkpt lat="50.40725" lon="3.27337">
        <ele>7.864306</ele>
        <time>2019-12-08T09:44:59.000Z</time>
      </trkpt>
      <trkpt lat="50.40731" lon="3.2735">
        <ele>8.170263</ele>
        <time>2019-12-08T09:45:01.000Z</time>
      </trkpt>
      <trkpt lat="50.40736" lon="3.27364">
        <ele>8.508194</ele>
        <time>2019-12-08T09:45:03.000Z</time>
      </trkpt>
      <trkpt lat="50.4074" lon="3.27379">
        <ele>8.830033</ele>
        <time>2019-12-08T09:45:05.000Z</time>
      </trkpt>
      <trkpt lat="50.40744" lon="3.27394">
        <ele>9.140898</ele>
        <time>2019-12-08T09:45:07.000Z</time>
      </trkpt>
      <trkpt lat="50.40748" lon="3.27407">
        <ele>9.436366</ele>
        <time>2019-12-08T09:45:09.000Z</time>
      </trkpt>
      <trkpt lat="50.40752" lon="3.27421">
        <ele>9.74438</ele>
        <time>2019-12-08T09:45:11.000Z</time>
      </trkpt>
      <trkpt lat="50.40757" lon="3.27435">
        <ele>9.677336</ele>
        <time>2019-12-08T09:45:13.000Z</time>
      </trkpt>
      <trkpt lat="50.40762" lon="3.27449">
        <ele>9.556768</ele>
        <time>2019-12-08T09:45:15.000Z</time>
      </trkpt>
      <trkpt lat="50.40768" lon="3.27463">
        <ele>9.434557</ele>
        <time>2019-12-08T09:45:17.000Z</time>
      </trkpt>
      <trkpt lat="50.40775" lon="3.27476">
        <ele>9.303918</ele>
        <time>2019-12-08T09:45:19.000Z</time>
      </trkpt>
      <trkpt lat="50.40782" lon="3.27489">
        <ele>9.17824</ele>
        <time>2019-12-08T09:45:21.000Z</time>
      </trkpt>
      <trkpt lat="50.40789" lon="3.27501">
        <ele>9.053524</ele>
        <time>2019-12-08T09:45:23.000Z</time>
      </trkpt>
      <trkpt lat="50.40795" lon="3.27515">
        <ele>8.929899</ele>
        <time>2019-12-08T09:45:25.000Z</time>
      </trkpt>
      <trkpt lat="50.40801" lon="3.27528">
        <ele>8.812671</ele>
        <time>2019-12-08T09:45:27.000Z</time>
      </trkpt>
      <trkpt lat="50.40807" lon="3.27538">
        <ele>8.69923</ele>
        <time>2019-12-08T09:45:29.000Z</time>
      </trkpt>
      <trkpt lat="50.40814" lon="3.27549">
        <ele>8.58874</ele>
        <time>2019-12-08T09:45:31.000Z</time>
      </trkpt>
      <trkpt lat="50.40821" lon="3.27563">
        <ele>8.453969</ele>
        <time>2019-12-08T09:45:34.000Z</time>
      </trkpt>
      <trkpt lat="50.40828" lon="3.27578">
        <ele>8.310739</ele>
        <time>2019-12-08T09:45:37.000Z</time>
      </trkpt>
      <trkpt lat="50.40835" lon="3.27597">
        <ele>8.151153</ele>
        <time>2019-12-08T09:45:40.000Z</time>
      </trkpt>
      <trkpt lat="50.4084" lon="3.27609">
        <ele>8.03966</ele>
        <time>2019-12-08T09:45:42.000Z</time>
      </trkpt>
      <trkpt lat="50.40846" lon="3.27626">
        <ele>7.894674</ele>
        <time>2019-12-08T09:45:45.000Z</time>
      </trkpt>
      <trkpt lat="50.40851" lon="3.27639">
        <ele>7.780506</ele>
        <time>2019-12-08T09:45:47.000Z</time>
      </trkpt>
      <trkpt lat="50.40857" lon="3.27655">
        <ele>7.636583</ele>
        <time>2019-12-08T09:45:50.000Z</time>
      </trkpt>
      <trkpt lat="50.40865" lon="3.27665">
        <ele>7.482964</ele>
        <time>2019-12-08T09:45:53.000Z</time>
      </trkpt>
      <trkpt lat="50.40873" lon="3.27673">
        <ele>7.344262</ele>
        <time>2019-12-08T09:45:56.000Z</time>
      </trkpt>
      <trkpt lat="50.40882" lon="3.27676">
        <ele>7.204527</ele>
        <time>2019-12-08T09:46:00.000Z</time>
      </trkpt>
      <trkpt lat="50.40892" lon="3.27665">
        <ele>7.023707</ele>
        <time>2019-12-08T09:46:03.000Z</time>
      </trkpt>
      <trkpt lat="50.40899" lon="3.27648">
        <ele>6.830788</ele>
        <time>2019-12-08T09:46:06.000Z</time>
      </trkpt>
      <trkpt lat="50.40908" lon="3.27634">
        <ele>6.634388</ele>
        <time>2019-12-08T09:46:09.000Z</time>
      </trkpt>
      <trkpt lat="50.40916" lon="3.27626">
        <ele>6.49827</ele>
        <time>2019-12-08T09:46:11.000Z</time>
      </trkpt>
      <trkpt lat="50.40923" lon="3.27618">
        <ele>6.360819</ele>
        <time>2019-12-08T09:46:13.000Z</time>
      </trkpt>
      <trkpt lat="50.40931" lon="3.27609">
        <ele>6.210136</ele>
        <time>2019-12-08T09:46:15.000Z</time>
      </trkpt>
      <trkpt lat="50.40939" lon="3.27599">
        <ele>6.056518</ele>
        <time>2019-12-08T09:46:17.000Z</time>
      </trkpt>
      <trkpt lat="50.40948" lon="3.27587">
        <ele>5.886281</ele>
        <time>2019-12-08T09:46:19.000Z</time>
      </trkpt>
      <trkpt lat="50.40957" lon="3.27577">
        <ele>5.716111</ele>
        <time>2019-12-08T09:46:21.000Z</time>
      </trkpt>
      <trkpt lat="50.40966" lon="3.27564">
        <ele>5.538942</ele>
        <time>2019-12-08T09:46:23.000Z</time>
      </trkpt>
      <trkpt lat="50.40974" lon="3.27547">
        <ele>5.331742</ele>
        <time>2019-12-08T09:46:25.000Z</time>
      </trkpt>
      <trkpt lat="50.40984" lon="3.27535">
        <ele>5.147705</ele>
        <time>2019-12-08T09:46:27.000Z</time>
      </trkpt>
      <trkpt lat="50.40993" lon="3.27523">
        <ele>4.97101</ele>
        <time>2019-12-08T09:46:29.000Z</time>
      </trkpt>
      <trkpt lat="50.41003" lon="3.27509">
        <ele>5.321984</ele>
        <time>2019-12-08T09:46:31.000Z</time>
      </trkpt>
      <trkpt lat="50.41011" lon="3.27495">
        <ele>5.652384</ele>
        <time>2019-12-08T09:46:33.000Z</time>
      </trkpt>
      <trkpt lat="50.41018" lon="3.27481">
        <ele>5.986208</ele>
        <time>2019-12-08T09:46:35.000Z</time>
      </trkpt>
      <trkpt lat="50.41026" lon="3.27467">
        <ele>6.305711</ele>
        <time>2019-12-08T09:46:37.000Z</time>
      </trkpt>
      <trkpt lat="50.41035" lon="3.27455">
        <ele>6.634836</ele>
        <time>2019-12-08T09:46:39.000Z</time>
      </trkpt>
      <trkpt lat="50.41042" lon="3.27441">
        <ele>6.9578</ele>
        <time>2019-12-08T09:46:41.000Z</time>
      </trkpt>
      <trkpt lat="50.4105" lon="3.27428">
        <ele>7.263226</ele>
        <time>2019-12-08T09:46:43.000Z</time>
      </trkpt>
      <trkpt lat="50.41056" lon="3.27416">
        <ele>7.54875</ele>
        <time>2019-12-08T09:46:45.000Z</time>
      </trkpt>
      <trkpt lat="50.41063" lon="3.27405">
        <ele>7.814793</ele>
        <time>2019-12-08T09:46:47.000Z</time>
      </trkpt>
      <trkpt lat="50.41071" lon="3.2739">
        <ele>8.179938</ele>
        <time>2019-12-08T09:46:50.000Z</time>
      </trkpt>
      <trkpt lat="50.41081" lon="3.27378">
        <ele>8.528973</ele>
        <time>2019-12-08T09:46:53.000Z</time>
      </trkpt>
      <trkpt lat="50.4109" lon="3.2737">
        <ele>8.808381</ele>
        <time>2019-12-08T09:46:55.000Z</time>
      </trkpt>
      <trkpt lat="50.411" lon="3.27363">
        <ele>9.119477</ele>
        <time>2019-12-08T09:46:57.000Z</time>
      </trkpt>
      <trkpt lat="50.41111" lon="3.27357">
        <ele>9.437111</ele>
        <time>2019-12-08T09:46:59.000Z</time>
      </trkpt>
      <trkpt lat="50.41121" lon="3.2735">
        <ele>9.72994</ele>
        <time>2019-12-08T09:47:01.000Z</time>
      </trkpt>
      <trkpt lat="50.41131" lon="3.27343">
        <ele>9.996517</ele>
        <time>2019-12-08T09:47:03.000Z</time>
      </trkpt>
      <trkpt lat="50.41141" lon="3.27335">
        <ele>10.065163</ele>
        <time>2019-12-08T09:47:05.000Z</time>
      </trkpt>
      <trkpt lat="50.41151" lon="3.27327">
        <ele>10.134167</ele>
        <time>2019-12-08T09:47:07.000Z</time>
      </trkpt>
      <trkpt lat="50.41162" lon="3.27319">
        <ele>10.205837</ele>
        <time>2019-12-08T09:47:09.000Z</time>
      </trkpt>
      <trkpt lat="50.41171" lon="3.27311">
        <ele>10.271268</ele>
        <time>2019-12-08T09:47:11.000Z</time>
      </trkpt>
      <trkpt lat="50.4118" lon="3.27303">
        <ele>10.334915</ele>
        <time>2019-12-08T09:47:13.000Z</time>
      </trkpt>
      <trkpt lat="50.41189" lon="3.27295">
        <ele>10.397788</ele>
        <time>2019-12-08T09:47:15.000Z</time>
      </trkpt>
      <trkpt lat="50.41199" lon="3.27287">
        <ele>10.463725</ele>
        <time>2019-12-08T09:47:17.000Z</time>
      </trkpt>
      <trkpt lat="50.41209" lon="3.2728">
        <ele>10.532371</ele>
        <time>2019-12-08T09:47:19.000Z</time>
      </trkpt>
      <trkpt lat="50.41219" lon="3.27273">
        <ele>10.597276</ele>
        <time>2019-12-08T09:47:21.000Z</time>
      </trkpt>
      <trkpt lat="50.41229" lon="3.27265">
        <ele>10.666669</ele>
        <time>2019-12-08T09:47:23.000Z</time>
      </trkpt>
      <trkpt lat="50.41239" lon="3.27255">
        <ele>10.740793</ele>
        <time>2019-12-08T09:47:25.000Z</time>
      </trkpt>
      <trkpt lat="50.4125" lon="3.27247">
        <ele>10.815438</ele>
        <time>2019-12-08T09:47:27.000Z</time>
      </trkpt>
      <trkpt lat="50.4126" lon="3.27238">
        <ele>10.884623</ele>
        <time>2019-12-08T09:47:29.000Z</time>
      </trkpt>
      <trkpt lat="50.4127" lon="3.27231">
        <ele>10.953093</ele>
        <time>2019-12-08T09:47:31.000Z</time>
      </trkpt>
      <trkpt lat="50.4128" lon="3.27223">
        <ele>11.019207</ele>
        <time>2019-12-08T09:47:33.000Z</time>
      </trkpt>
      <trkpt lat="50.4129" lon="3.27215">
        <ele>11.081905</ele>
        <time>2019-12-08T09:47:35.000Z</time>
      </trkpt>
      <trkpt lat="50.413" lon="3.27206">
        <ele>11.091765</ele>
        <time>2019-12-08T09:47:37.000Z</time>
      </trkpt>
      <trkpt lat="50.4131" lon="3.27199">
        <ele>11.101061</ele>
        <time>2019-12-08T09:47:39.000Z</time>
      </trkpt>
      <trkpt lat="50.41321" lon="3.27192">
        <ele>11.110801</ele>
        <time>2019-12-08T09:47:41.000Z</time>
      </trkpt>
      <trkpt lat="50.4133" lon="3.27184">
        <ele>11.119843</ele>
        <time>2019-12-08T09:47:43.000Z</time>
      </trkpt>
      <trkpt lat="50.4134" lon="3.27176">
        <ele>11.12896</ele>
        <time>2019-12-08T09:47:45.000Z</time>
      </trkpt>
      <trkpt lat="50.41349" lon="3.27168">
        <ele>11.138006</ele>
        <time>2019-12-08T09:47:47.000Z</time>
      </trkpt>
      <trkpt lat="50.41359" lon="3.2716">
        <ele>11.147419</ele>
        <time>2019-12-08T09:47:49.000Z</time>
      </trkpt>
      <trkpt lat="50.41369" lon="3.27152">
        <ele>11.156808</ele>
        <time>2019-12-08T09:47:51.000Z</time>
      </trkpt>
      <trkpt lat="50.4138" lon="3.27143">
        <ele>11.16687</ele>
        <time>2019-12-08T09:47:53.000Z</time>
      </trkpt>
      <trkpt lat="50.41391" lon="3.27136">
        <ele>11.176887</ele>
        <time>2019-12-08T09:47:55.000Z</time>
      </trkpt>
      <trkpt lat="50.41402" lon="3.27129">
        <ele>11.186609</ele>
        <time>2019-12-08T09:47:57.000Z</time>
      </trkpt>
      <trkpt lat="50.41412" lon="3.27121">
        <ele>11.19632</ele>
        <time>2019-12-08T09:47:59.000Z</time>
      </trkpt>
      <trkpt lat="50.41422" lon="3.27112">
        <ele>11.20613</ele>
        <time>2019-12-08T09:48:01.000Z</time>
      </trkpt>
      <trkpt lat="50.41432" lon="3.27103">
        <ele>11.215527</ele>
        <time>2019-12-08T09:48:03.000Z</time>
      </trkpt>
      <trkpt lat="50.41443" lon="3.27095">
        <ele>11.225363</ele>
        <time>2019-12-08T09:48:05.000Z</time>
      </trkpt>
      <trkpt lat="50.41453" lon="3.27087">
        <ele>11.244308</ele>
        <time>2019-12-08T09:48:07.000Z</time>
      </trkpt>
      <trkpt lat="50.41463" lon="3.27079">
        <ele>11.279753</ele>
        <time>2019-12-08T09:48:09.000Z</time>
      </trkpt>
      <trkpt lat="50.41473" lon="3.2707">
        <ele>11.315482</ele>
        <time>2019-12-08T09:48:11.000Z</time>
      </trkpt>
      <trkpt lat="50.41482" lon="3.27062">
        <ele>11.350015</ele>
        <time>2019-12-08T09:48:13.000Z</time>
      </trkpt>
      <trkpt lat="50.41493" lon="3.27054">
        <ele>11.388523</ele>
        <time>2019-12-08T09:48:15.000Z</time>
      </trkpt>
      <trkpt lat="50.41503" lon="3.27045">
        <ele>11.424723</ele>
        <time>2019-12-08T09:48:17.000Z</time>
      </trkpt>
      <trkpt lat="50.41513" lon="3.27037">
        <ele>11.462049</ele>
        <time>2019-12-08T09:48:19.000Z</time>
      </trkpt>
      <trkpt lat="50.41523" lon="3.27029">
        <ele>11.49787</ele>
        <time>2019-12-08T09:48:21.000Z</time>
      </trkpt>
      <trkpt lat="50.41533" lon="3.27021">
        <ele>11.532776</ele>
        <time>2019-12-08T09:48:23.000Z</time>
      </trkpt>
      <trkpt lat="50.41544" lon="3.27014">
        <ele>11.56892</ele>
        <time>2019-12-08T09:48:25.000Z</time>
      </trkpt>
      <trkpt lat="50.41554" lon="3.27006">
        <ele>11.603913</ele>
        <time>2019-12-08T09:48:27.000Z</time>
      </trkpt>
      <trkpt lat="50.41563" lon="3.26998">
        <ele>11.638328</ele>
        <time>2019-12-08T09:48:29.000Z</time>
      </trkpt>
      <trkpt lat="50.41573" lon="3.2699">
        <ele>11.67491</ele>
        <time>2019-12-08T09:48:31.000Z</time>
      </trkpt>
      <trkpt lat="50.41583" lon="3.26982">
        <ele>11.709981</ele>
        <time>2019-12-08T09:48:33.000Z</time>
      </trkpt>
      <trkpt lat="50.41593" lon="3.26974">
        <ele>11.745333</ele>
        <time>2019-12-08T09:48:35.000Z</time>
      </trkpt>
      <trkpt lat="50.41604" lon="3.26965">
        <ele>11.7836</ele>
        <time>2019-12-08T09:48:37.000Z</time>
      </trkpt>
      <trkpt lat="50.41613" lon="3.26957">
        <ele>11.752466</ele>
        <time>2019-12-08T09:48:39.000Z</time>
      </trkpt>
      <trkpt lat="50.41622" lon="3.26948">
        <ele>11.628807</ele>
        <time>2019-12-08T09:48:41.000Z</time>
      </trkpt>
      <trkpt lat="50.41632" lon="3.2694">
        <ele>11.499101</ele>
        <time>2019-12-08T09:48:43.000Z</time>
      </trkpt>
      <trkpt lat="50.41641" lon="3.26932">
        <ele>11.372881</ele>
        <time>2019-12-08T09:48:45.000Z</time>
      </trkpt>
      <trkpt lat="50.41652" lon="3.26925">
        <ele>11.24104</ele>
        <time>2019-12-08T09:48:47.000Z</time>
      </trkpt>
      <trkpt lat="50.41662" lon="3.26917">
        <ele>11.108902</ele>
        <time>2019-12-08T09:48:49.000Z</time>
      </trkpt>
      <trkpt lat="50.41671" lon="3.26909">
        <ele>10.977466</ele>
        <time>2019-12-08T09:48:51.000Z</time>
      </trkpt>
      <trkpt lat="50.41681" lon="3.26901">
        <ele>10.843891</ele>
        <time>2019-12-08T09:48:53.000Z</time>
      </trkpt>
      <trkpt lat="50.41692" lon="3.26892">
        <ele>10.706892</ele>
        <time>2019-12-08T09:48:55.000Z</time>
      </trkpt>
      <trkpt lat="50.41703" lon="3.26885">
        <ele>10.564621</ele>
        <time>2019-12-08T09:48:57.000Z</time>
      </trkpt>
      <trkpt lat="50.41713" lon="3.26877">
        <ele>10.433531</ele>
        <time>2019-12-08T09:48:59.000Z</time>
      </trkpt>
      <trkpt lat="50.41724" lon="3.26869">
        <ele>10.292341</ele>
        <time>2019-12-08T09:49:01.000Z</time>
      </trkpt>
      <trkpt lat="50.41734" lon="3.26861">
        <ele>10.156966</ele>
        <time>2019-12-08T09:49:03.000Z</time>
      </trkpt>
      <trkpt lat="50.41745" lon="3.26854">
        <ele>10.019142</ele>
        <time>2019-12-08T09:49:05.000Z</time>
      </trkpt>
      <trkpt lat="50.41755" lon="3.26845">
        <ele>9.886293</ele>
        <time>2019-12-08T09:49:07.000Z</time>
      </trkpt>
      <trkpt lat="50.41765" lon="3.26836">
        <ele>9.751325</ele>
        <time>2019-12-08T09:49:09.000Z</time>
      </trkpt>
      <trkpt lat="50.41774" lon="3.26828">
        <ele>9.656827</ele>
        <time>2019-12-08T09:49:11.000Z</time>
      </trkpt>
      <trkpt lat="50.41784" lon="3.26819">
        <ele>9.599487</ele>
        <time>2019-12-08T09:49:13.000Z</time>
      </trkpt>
      <trkpt lat="50.41794" lon="3.26811">
        <ele>9.541683</ele>
        <time>2019-12-08T09:49:15.000Z</time>
      </trkpt>
      <trkpt lat="50.41804" lon="3.26802">
        <ele>9.485668</ele>
        <time>2019-12-08T09:49:17.000Z</time>
      </trkpt>
      <trkpt lat="50.41814" lon="3.26794">
        <ele>9.428024</ele>
        <time>2019-12-08T09:49:19.000Z</time>
      </trkpt>
      <trkpt lat="50.41824" lon="3.26786">
        <ele>9.371134</ele>
        <time>2019-12-08T09:49:21.000Z</time>
      </trkpt>
      <trkpt lat="50.41834" lon="3.26779">
        <ele>9.314681</ele>
        <time>2019-12-08T09:49:23.000Z</time>
      </trkpt>
      <trkpt lat="50.41843" lon="3.26771">
        <ele>9.260963</ele>
        <time>2019-12-08T09:49:25.000Z</time>
      </trkpt>
      <trkpt lat="50.41852" lon="3.26762">
        <ele>9.205835</ele>
        <time>2019-12-08T09:49:27.000Z</time>
      </trkpt>
      <trkpt lat="50.41862" lon="3.26755">
        <ele>9.149063</ele>
        <time>2019-12-08T09:49:29.000Z</time>
      </trkpt>
      <trkpt lat="50.41871" lon="3.26747">
        <ele>9.094582</ele>
        <time>2019-12-08T09:49:31.000Z</time>
      </trkpt>
      <trkpt lat="50.41881" lon="3.26738">
        <ele>9.037674</ele>
        <time>2019-12-08T09:49:33.000Z</time>
      </trkpt>
      <trkpt lat="50.41891" lon="3.2673">
        <ele>8.981696</ele>
        <time>2019-12-08T09:49:35.000Z</time>
      </trkpt>
      <trkpt lat="50.419" lon="3.26723">
        <ele>8.926322</ele>
        <time>2019-12-08T09:49:37.000Z</time>
      </trkpt>
      <trkpt lat="50.4191" lon="3.26715">
        <ele>8.871218</ele>
        <time>2019-12-08T09:49:39.000Z</time>
      </trkpt>
      <trkpt lat="50.4192" lon="3.26708">
        <ele>8.814586</ele>
        <time>2019-12-08T09:49:41.000Z</time>
      </trkpt>
      <trkpt lat="50.4193" lon="3.26701">
        <ele>8.7644</ele>
        <time>2019-12-08T09:49:43.000Z</time>
      </trkpt>
      <trkpt lat="50.41939" lon="3.26694">
        <ele>8.752474</ele>
        <time>2019-12-08T09:49:45.000Z</time>
      </trkpt>
      <trkpt lat="50.41948" lon="3.26686">
        <ele>8.739935</ele>
        <time>2019-12-08T09:49:47.000Z</time>
      </trkpt>
      <trkpt lat="50.41959" lon="3.26678">
        <ele>8.726253</ele>
        <time>2019-12-08T09:49:49.000Z</time>
      </trkpt>
      <trkpt lat="50.41968" lon="3.2667">
        <ele>8.71364</ele>
        <time>2019-12-08T09:49:51.000Z</time>
      </trkpt>
      <trkpt lat="50.41978" lon="3.26662">
        <ele>8.700959</ele>
        <time>2019-12-08T09:49:53.000Z</time>
      </trkpt>
      <trkpt lat="50.41988" lon="3.26655">
        <ele>8.687364</ele>
        <time>2019-12-08T09:49:55.000Z</time>
      </trkpt>
      <trkpt lat="50.41999" lon="3.26647">
        <ele>8.673984</ele>
        <time>2019-12-08T09:49:57.000Z</time>
      </trkpt>
      <trkpt lat="50.42009" lon="3.2664">
        <ele>8.660301</ele>
        <time>2019-12-08T09:49:59.000Z</time>
      </trkpt>
      <trkpt lat="50.4202" lon="3.26633">
        <ele>8.647047</ele>
        <time>2019-12-08T09:50:01.000Z</time>
      </trkpt>
      <trkpt lat="50.4203" lon="3.26625">
        <ele>8.634187</ele>
        <time>2019-12-08T09:50:03.000Z</time>
      </trkpt>
      <trkpt lat="50.4204" lon="3.26618">
        <ele>8.620733</ele>
        <time>2019-12-08T09:50:05.000Z</time>
      </trkpt>
      <trkpt lat="50.42049" lon="3.26611">
        <ele>8.608531</ele>
        <time>2019-12-08T09:50:07.000Z</time>
      </trkpt>
      <trkpt lat="50.42058" lon="3.26604">
        <ele>8.597204</ele>
        <time>2019-12-08T09:50:09.000Z</time>
      </trkpt>
      <trkpt lat="50.42067" lon="3.26597">
        <ele>8.585323</ele>
        <time>2019-12-08T09:50:11.000Z</time>
      </trkpt>
      <trkpt lat="50.42076" lon="3.26588">
        <ele>8.573383</ele>
        <time>2019-12-08T09:50:13.000Z</time>
      </trkpt>
      <trkpt lat="50.42086" lon="3.2658">
        <ele>8.560255</ele>
        <time>2019-12-08T09:50:15.000Z</time>
      </trkpt>
      <trkpt lat="50.42095" lon="3.26572">
        <ele>8.440175</ele>
        <time>2019-12-08T09:50:17.000Z</time>
      </trkpt>
      <trkpt lat="50.42105" lon="3.26565">
        <ele>8.224282</ele>
        <time>2019-12-08T09:50:19.000Z</time>
      </trkpt>
      <trkpt lat="50.42115" lon="3.26556">
        <ele>8.009043</ele>
        <time>2019-12-08T09:50:21.000Z</time>
      </trkpt>
      <trkpt lat="50.42124" lon="3.26549">
        <ele>7.802558</ele>
        <time>2019-12-08T09:50:23.000Z</time>
      </trkpt>
      <trkpt lat="50.42133" lon="3.26541">
        <ele>7.595463</ele>
        <time>2019-12-08T09:50:25.000Z</time>
      </trkpt>
      <trkpt lat="50.42143" lon="3.26533">
        <ele>7.380796</ele>
        <time>2019-12-08T09:50:27.000Z</time>
      </trkpt>
      <trkpt lat="50.42153" lon="3.26526">
        <ele>7.167886</ele>
        <time>2019-12-08T09:50:29.000Z</time>
      </trkpt>
      <trkpt lat="50.42163" lon="3.26518">
        <ele>6.95673</ele>
        <time>2019-12-08T09:50:31.000Z</time>
      </trkpt>
      <trkpt lat="50.42172" lon="3.26512">
        <ele>6.753349</ele>
        <time>2019-12-08T09:50:33.000Z</time>
      </trkpt>
      <trkpt lat="50.42181" lon="3.26503">
        <ele>6.552864</ele>
        <time>2019-12-08T09:50:35.000Z</time>
      </trkpt>
      <trkpt lat="50.42191" lon="3.26496">
        <ele>6.346676</ele>
        <time>2019-12-08T09:50:37.000Z</time>
      </trkpt>
      <trkpt lat="50.422" lon="3.26488">
        <ele>6.139247</ele>
        <time>2019-12-08T09:50:39.000Z</time>
      </trkpt>
      <trkpt lat="50.42209" lon="3.26479">
        <ele>5.925708</ele>
        <time>2019-12-08T09:50:41.000Z</time>
      </trkpt>
      <trkpt lat="50.42219" lon="3.26472">
        <ele>5.716854</ele>
        <time>2019-12-08T09:50:43.000Z</time>
      </trkpt>
      <trkpt lat="50.42228" lon="3.26466">
        <ele>5.523248</ele>
        <time>2019-12-08T09:50:45.000Z</time>
      </trkpt>
      <trkpt lat="50.42238" lon="3.26462">
        <ele>5.320103</ele>
        <time>2019-12-08T09:50:47.000Z</time>
      </trkpt>
      <trkpt lat="50.42247" lon="3.26457">
        <ele>5.133669</ele>
        <time>2019-12-08T09:50:49.000Z</time>
      </trkpt>
      <trkpt lat="50.42257" lon="3.26451">
        <ele>5.14985</ele>
        <time>2019-12-08T09:50:51.000Z</time>
      </trkpt>
      <trkpt lat="50.42266" lon="3.26447">
        <ele>5.339994</ele>
        <time>2019-12-08T09:50:53.000Z</time>
      </trkpt>
      <trkpt lat="50.42276" lon="3.26444">
        <ele>5.53681</ele>
        <time>2019-12-08T09:50:55.000Z</time>
      </trkpt>
      <trkpt lat="50.42286" lon="3.26441">
        <ele>5.724141</ele>
        <time>2019-12-08T09:50:57.000Z</time>
      </trkpt>
      <trkpt lat="50.42295" lon="3.26438">
        <ele>5.904638</ele>
        <time>2019-12-08T09:50:59.000Z</time>
      </trkpt>
      <trkpt lat="50.42304" lon="3.26436">
        <ele>6.086641</ele>
        <time>2019-12-08T09:51:01.000Z</time>
      </trkpt>
      <trkpt lat="50.42314" lon="3.26432">
        <ele>6.286759</ele>
        <time>2019-12-08T09:51:04.000Z</time>
      </trkpt>
      <trkpt lat="50.42324" lon="3.26427">
        <ele>6.483007</ele>
        <time>2019-12-08T09:51:11.000Z</time>
      </trkpt>
      <trkpt lat="50.42327" lon="3.26412">
        <ele>6.673808</ele>
        <time>2019-12-08T09:51:15.000Z</time>
      </trkpt>
      <trkpt lat="50.42325" lon="3.26391">
        <ele>6.9402</ele>
        <time>2019-12-08T09:51:18.000Z</time>
      </trkpt>
      <trkpt lat="50.42322" lon="3.26375">
        <ele>7.144395</ele>
        <time>2019-12-08T09:51:20.000Z</time>
      </trkpt>
      <trkpt lat="50.42319" lon="3.2636">
        <ele>7.340963</ele>
        <time>2019-12-08T09:51:22.000Z</time>
      </trkpt>
      <trkpt lat="50.42316" lon="3.26344">
        <ele>7.544821</ele>
        <time>2019-12-08T09:51:24.000Z</time>
      </trkpt>
      <trkpt lat="50.42313" lon="3.26328">
        <ele>7.744341</ele>
        <time>2019-12-08T09:51:26.000Z</time>
      </trkpt>
      <trkpt lat="50.4231" lon="3.26312">
        <ele>7.955585</ele>
        <time>2019-12-08T09:51:28.000Z</time>
      </trkpt>
      <trkpt lat="50.42307" lon="3.26296">
        <ele>8.167458</ele>
        <time>2019-12-08T09:51:30.000Z</time>
      </trkpt>
      <trkpt lat="50.42304" lon="3.26279">
        <ele>8.373952</ele>
        <time>2019-12-08T09:51:32.000Z</time>
      </trkpt>
      <trkpt lat="50.42302" lon="3.26263">
        <ele>8.5638</ele>
        <time>2019-12-08T09:51:34.000Z</time>
      </trkpt>
      <trkpt lat="50.42299" lon="3.26247">
        <ele>8.712629</ele>
        <time>2019-12-08T09:51:36.000Z</time>
      </trkpt>
      <trkpt lat="50.42295" lon="3.26231">
        <ele>8.858144</ele>
        <time>2019-12-08T09:51:38.000Z</time>
      </trkpt>
      <trkpt lat="50.42292" lon="3.26216">
        <ele>9.001685</ele>
        <time>2019-12-08T09:51:40.000Z</time>
      </trkpt>
      <trkpt lat="50.4229" lon="3.262">
        <ele>9.145583</ele>
        <time>2019-12-08T09:51:42.000Z</time>
      </trkpt>
      <trkpt lat="50.42287" lon="3.26183">
        <ele>9.295041</ele>
        <time>2019-12-08T09:51:44.000Z</time>
      </trkpt>
      <trkpt lat="50.42285" lon="3.26167">
        <ele>9.445665</ele>
        <time>2019-12-08T09:51:46.000Z</time>
      </trkpt>
      <trkpt lat="50.42283" lon="3.2615">
        <ele>9.600049</ele>
        <time>2019-12-08T09:51:48.000Z</time>
      </trkpt>
      <trkpt lat="50.4228" lon="3.26133">
        <ele>9.751237</ele>
        <time>2019-12-08T09:51:50.000Z</time>
      </trkpt>
      <trkpt lat="50.42279" lon="3.26117">
        <ele>9.895553</ele>
        <time>2019-12-08T09:51:52.000Z</time>
      </trkpt>
      <trkpt lat="50.42279" lon="3.26101">
        <ele>10.032772</ele>
        <time>2019-12-08T09:51:54.000Z</time>
      </trkpt>
      <trkpt lat="50.4228" lon="3.26086">
        <ele>10.173744</ele>
        <time>2019-12-08T09:51:56.000Z</time>
      </trkpt>
      <trkpt lat="50.4228" lon="3.2607">
        <ele>10.313582</ele>
        <time>2019-12-08T09:51:58.000Z</time>
      </trkpt>
      <trkpt lat="50.42277" lon="3.26055">
        <ele>10.449369</ele>
        <time>2019-12-08T09:52:00.000Z</time>
      </trkpt>
      <trkpt lat="50.42271" lon="3.26041">
        <ele>10.599409</ele>
        <time>2019-12-08T09:52:02.000Z</time>
      </trkpt>
      <trkpt lat="50.42269" lon="3.26023">
        <ele>10.760142</ele>
        <time>2019-12-08T09:52:04.000Z</time>
      </trkpt>
      <trkpt lat="50.42268" lon="3.26006">
        <ele>10.913628</ele>
        <time>2019-12-08T09:52:06.000Z</time>
      </trkpt>
      <trkpt lat="50.42269" lon="3.25988">
        <ele>10.971331</ele>
        <time>2019-12-08T09:52:08.000Z</time>
      </trkpt>
      <trkpt lat="50.4227" lon="3.25971">
        <ele>10.838902</ele>
        <time>2019-12-08T09:52:10.000Z</time>
      </trkpt>
      <trkpt lat="50.4227" lon="3.25954">
        <ele>10.709456</ele>
        <time>2019-12-08T09:52:12.000Z</time>
      </trkpt>
      <trkpt lat="50.4227" lon="3.25938">
        <ele>10.584211</ele>
        <time>2019-12-08T09:52:14.000Z</time>
      </trkpt>
      <trkpt lat="50.4227" lon="3.25921">
        <ele>10.458147</ele>
        <time>2019-12-08T09:52:16.000Z</time>
      </trkpt>
      <trkpt lat="50.42271" lon="3.25904">
        <ele>10.326484</ele>
        <time>2019-12-08T09:52:18.000Z</time>
      </trkpt>
      <trkpt lat="50.42271" lon="3.25887">
        <ele>10.195811</ele>
        <time>2019-12-08T09:52:20.000Z</time>
      </trkpt>
      <trkpt lat="50.42273" lon="3.25872">
        <ele>10.073644</ele>
        <time>2019-12-08T09:52:22.000Z</time>
      </trkpt>
      <trkpt lat="50.42273" lon="3.25855">
        <ele>9.946582</ele>
        <time>2019-12-08T09:52:24.000Z</time>
      </trkpt>
      <trkpt lat="50.42275" lon="3.25839">
        <ele>9.820504</ele>
        <time>2019-12-08T09:52:26.000Z</time>
      </trkpt>
      <trkpt lat="50.42275" lon="3.25822">
        <ele>9.692045</ele>
        <time>2019-12-08T09:52:28.000Z</time>
      </trkpt>
      <trkpt lat="50.42277" lon="3.25806">
        <ele>9.563419</ele>
        <time>2019-12-08T09:52:30.000Z</time>
      </trkpt>
      <trkpt lat="50.42277" lon="3.2579">
        <ele>9.442016</ele>
        <time>2019-12-08T09:52:32.000Z</time>
      </trkpt>
      <trkpt lat="50.42277" lon="3.25776">
        <ele>9.332881</ele>
        <time>2019-12-08T09:52:34.000Z</time>
      </trkpt>
      <trkpt lat="50.42278" lon="3.25755">
        <ele>9.176881</ele>
        <time>2019-12-08T09:52:37.000Z</time>
      </trkpt>
      <trkpt lat="50.4228" lon="3.25735">
        <ele>9.01575</ele>
        <time>2019-12-08T09:52:40.000Z</time>
      </trkpt>
      <trkpt lat="50.42281" lon="3.2572">
        <ele>8.905635</ele>
        <time>2019-12-08T09:52:42.000Z</time>
      </trkpt>
      <trkpt lat="50.4228" lon="3.25705">
        <ele>8.803536</ele>
        <time>2019-12-08T09:52:44.000Z</time>
      </trkpt>
      <trkpt lat="50.42279" lon="3.2569">
        <ele>8.715219</ele>
        <time>2019-12-08T09:52:46.000Z</time>
      </trkpt>
      <trkpt lat="50.4228" lon="3.25669">
        <ele>8.58614</ele>
        <time>2019-12-08T09:52:49.000Z</time>
      </trkpt>
      <trkpt lat="50.42281" lon="3.25653">
        <ele>8.493658</ele>
        <time>2019-12-08T09:52:51.000Z</time>
      </trkpt>
      <trkpt lat="50.42278" lon="3.25638">
        <ele>8.400902</ele>
        <time>2019-12-08T09:52:53.000Z</time>
      </trkpt>
      <trkpt lat="50.42275" lon="3.25624">
        <ele>8.311937</ele>
        <time>2019-12-08T09:52:55.000Z</time>
      </trkpt>
      <trkpt lat="50.4227" lon="3.25611">
        <ele>8.224937</ele>
        <time>2019-12-08T09:52:57.000Z</time>
      </trkpt>
      <trkpt lat="50.42264" lon="3.25592">
        <ele>8.096303</ele>
        <time>2019-12-08T09:53:00.000Z</time>
      </trkpt>
      <trkpt lat="50.42258" lon="3.2558">
        <ele>8.005683</ele>
        <time>2019-12-08T09:53:02.000Z</time>
      </trkpt>
      <trkpt lat="50.42251" lon="3.25569">
        <ele>7.915624</ele>
        <time>2019-12-08T09:53:04.000Z</time>
      </trkpt>
      <trkpt lat="50.42243" lon="3.25558">
        <ele>7.818798</ele>
        <time>2019-12-08T09:53:06.000Z</time>
      </trkpt>
      <trkpt lat="50.42236" lon="3.25549">
        <ele>7.727847</ele>
        <time>2019-12-08T09:53:08.000Z</time>
      </trkpt>
      <trkpt lat="50.42227" lon="3.2554">
        <ele>7.632849</ele>
        <time>2019-12-08T09:53:10.000Z</time>
      </trkpt>
      <trkpt lat="50.4222" lon="3.25532">
        <ele>7.551394</ele>
        <time>2019-12-08T09:53:12.000Z</time>
      </trkpt>
      <trkpt lat="50.42208" lon="3.25522">
        <ele>7.425796</ele>
        <time>2019-12-08T09:53:15.000Z</time>
      </trkpt>
      <trkpt lat="50.422" lon="3.25515">
        <ele>7.339137</ele>
        <time>2019-12-08T09:53:17.000Z</time>
      </trkpt>
      <trkpt lat="50.42191" lon="3.25508">
        <ele>7.250833</ele>
        <time>2019-12-08T09:53:19.000Z</time>
      </trkpt>
      <trkpt lat="50.42183" lon="3.25501">
        <ele>7.230972</ele>
        <time>2019-12-08T09:53:21.000Z</time>
      </trkpt>
      <trkpt lat="50.42173" lon="3.25491">
        <ele>7.654382</ele>
        <time>2019-12-08T09:53:24.000Z</time>
      </trkpt>
      <trkpt lat="50.42162" lon="3.25482">
        <ele>8.070244</ele>
        <time>2019-12-08T09:53:27.000Z</time>
      </trkpt>
      <trkpt lat="50.42151" lon="3.25472">
        <ele>8.5264</ele>
        <time>2019-12-08T09:53:30.000Z</time>
      </trkpt>
      <trkpt lat="50.42139" lon="3.25463">
        <ele>8.972281</ele>
        <time>2019-12-08T09:53:33.000Z</time>
      </trkpt>
      <trkpt lat="50.42128" lon="3.25454">
        <ele>9.418112</ele>
        <time>2019-12-08T09:53:36.000Z</time>
      </trkpt>
      <trkpt lat="50.42117" lon="3.25445">
        <ele>9.853732</ele>
        <time>2019-12-08T09:53:39.000Z</time>
      </trkpt>
      <trkpt lat="50.42106" lon="3.25433">
        <ele>10.287549</ele>
        <time>2019-12-08T09:53:42.000Z</time>
      </trkpt>
      <trkpt lat="50.42096" lon="3.25421">
        <ele>10.732878</ele>
        <time>2019-12-08T09:53:45.000Z</time>
      </trkpt>
      <trkpt lat="50.42087" lon="3.25407">
        <ele>11.184269</ele>
        <time>2019-12-08T09:53:48.000Z</time>
      </trkpt>
      <trkpt lat="50.42075" lon="3.25399">
        <ele>11.625024</ele>
        <time>2019-12-08T09:53:51.000Z</time>
      </trkpt>
      <trkpt lat="50.42067" lon="3.25404">
        <ele>11.933768</ele>
        <time>2019-12-08T09:53:53.000Z</time>
      </trkpt>
      <trkpt lat="50.42057" lon="3.25416">
        <ele>12.352177</ele>
        <time>2019-12-08T09:53:56.000Z</time>
      </trkpt>
      <trkpt lat="50.42051" lon="3.25427">
        <ele>12.677524</ele>
        <time>2019-12-08T09:53:58.000Z</time>
      </trkpt>
      <trkpt lat="50.4204" lon="3.25429">
        <ele>13.051733</ele>
        <time>2019-12-08T09:54:01.000Z</time>
      </trkpt>
      <trkpt lat="50.42032" lon="3.25415">
        <ele>13.399132</ele>
        <time>2019-12-08T09:54:04.000Z</time>
      </trkpt>
      <trkpt lat="50.42027" lon="3.25398">
        <ele>13.358698</ele>
        <time>2019-12-08T09:54:07.000Z</time>
      </trkpt>
      <trkpt lat="50.4202" lon="3.25379">
        <ele>13.314377</ele>
        <time>2019-12-08T09:54:10.000Z</time>
      </trkpt>
      <trkpt lat="50.42015" lon="3.25366">
        <ele>13.282745</ele>
        <time>2019-12-08T09:54:12.000Z</time>
      </trkpt>
      <trkpt lat="50.4201" lon="3.25353">
        <ele>13.25105</ele>
        <time>2019-12-08T09:54:14.000Z</time>
      </trkpt>
      <trkpt lat="50.42005" lon="3.25338">
        <ele>13.216572</ele>
        <time>2019-12-08T09:54:16.000Z</time>
      </trkpt>
      <trkpt lat="50.42" lon="3.25322">
        <ele>13.180011</ele>
        <time>2019-12-08T09:54:18.000Z</time>
      </trkpt>
      <trkpt lat="50.41997" lon="3.25306">
        <ele>13.144272</ele>
        <time>2019-12-08T09:54:20.000Z</time>
      </trkpt>
      <trkpt lat="50.41995" lon="3.25289">
        <ele>13.109129</ele>
        <time>2019-12-08T09:54:22.000Z</time>
      </trkpt>
      <trkpt lat="50.41993" lon="3.25274">
        <ele>13.077803</ele>
        <time>2019-12-08T09:54:24.000Z</time>
      </trkpt>
      <trkpt lat="50.41991" lon="3.25261">
        <ele>13.048182</ele>
        <time>2019-12-08T09:54:26.000Z</time>
      </trkpt>
      <trkpt lat="50.41987" lon="3.25247">
        <ele>13.018301</ele>
        <time>2019-12-08T09:54:28.000Z</time>
      </trkpt>
      <trkpt lat="50.41985" lon="3.25233">
        <ele>12.986656</ele>
        <time>2019-12-08T09:54:30.000Z</time>
      </trkpt>
      <trkpt lat="50.41983" lon="3.25212">
        <ele>12.942831</ele>
        <time>2019-12-08T09:54:33.000Z</time>
      </trkpt>
      <trkpt lat="50.41982" lon="3.25198">
        <ele>12.913823</ele>
        <time>2019-12-08T09:54:35.000Z</time>
      </trkpt>
      <trkpt lat="50.41979" lon="3.25178">
        <ele>12.872934</ele>
        <time>2019-12-08T09:54:38.000Z</time>
      </trkpt>
      <trkpt lat="50.41979" lon="3.25158">
        <ele>12.831222</ele>
        <time>2019-12-08T09:54:41.000Z</time>
      </trkpt>
      <trkpt lat="50.41977" lon="3.25138">
        <ele>12.603037</ele>
        <time>2019-12-08T09:54:44.000Z</time>
      </trkpt>
      <trkpt lat="50.41975" lon="3.25118">
        <ele>12.305586</ele>
        <time>2019-12-08T09:54:47.000Z</time>
      </trkpt>
      <trkpt lat="50.41972" lon="3.25098">
        <ele>12.01309</ele>
        <time>2019-12-08T09:54:50.000Z</time>
      </trkpt>
      <trkpt lat="50.41972" lon="3.25077">
        <ele>11.713191</ele>
        <time>2019-12-08T09:54:53.000Z</time>
      </trkpt>
      <trkpt lat="50.41972" lon="3.25058">
        <ele>11.432019</ele>
        <time>2019-12-08T09:54:56.000Z</time>
      </trkpt>
      <trkpt lat="50.41974" lon="3.25041">
        <ele>11.188629</ele>
        <time>2019-12-08T09:54:59.000Z</time>
      </trkpt>
      <trkpt lat="50.41975" lon="3.25024">
        <ele>10.944148</ele>
        <time>2019-12-08T09:55:02.000Z</time>
      </trkpt>
      <trkpt lat="50.41977" lon="3.25007">
        <ele>10.702192</ele>
        <time>2019-12-08T09:55:05.000Z</time>
      </trkpt>
      <trkpt lat="50.41978" lon="3.24992">
        <ele>10.471975</ele>
        <time>2019-12-08T09:55:08.000Z</time>
      </trkpt>
      <trkpt lat="50.4198" lon="3.24976">
        <ele>10.244061</ele>
        <time>2019-12-08T09:55:11.000Z</time>
      </trkpt>
      <trkpt lat="50.41983" lon="3.24958">
        <ele>9.97756</ele>
        <time>2019-12-08T09:55:15.000Z</time>
      </trkpt>
      <trkpt lat="50.41983" lon="3.24942">
        <ele>9.746432</ele>
        <time>2019-12-08T09:55:19.000Z</time>
      </trkpt>
      <trkpt lat="50.41996" lon="3.24931">
        <ele>9.421706</ele>
        <time>2019-12-08T09:55:52.000Z</time>
      </trkpt>
      <trkpt lat="50.42005" lon="3.24928">
        <ele>9.218021</ele>
        <time>2019-12-08T09:56:15.000Z</time>
      </trkpt>
      <trkpt lat="50.42014" lon="3.24932">
        <ele>9.014515</ele>
        <time>2019-12-08T09:59:01.000Z</time>
      </trkpt>
      <trkpt lat="50.42005" lon="3.24938">
        <ele>8.803708</ele>
        <time>2019-12-08T10:00:55.000Z</time>
      </trkpt>
      <trkpt lat="50.41997" lon="3.2493">
        <ele>7.82297</ele>
        <time>2019-12-08T10:02:01.000Z</time>
      </trkpt>
      <trkpt lat="50.41988" lon="3.24933">
        <ele>6.625487</ele>
        <time>2019-12-08T10:02:20.000Z</time>
      </trkpt>
      <trkpt lat="50.41983" lon="3.24946">
        <ele>5.37055</ele>
        <time>2019-12-08T10:02:29.000Z</time>
      </trkpt>
      <trkpt lat="50.41977" lon="3.24958">
        <ele>4.148693</ele>
        <time>2019-12-08T10:02:39.000Z</time>
      </trkpt>
      <trkpt lat="50.41984" lon="3.24974">
        <ele>2.505128</ele>
        <time>2019-12-08T10:03:24.000Z</time>
      </trkpt>
      <trkpt lat="50.41988" lon="3.24961">
        <ele>1.26297</ele>
        <time>2019-12-08T10:06:01.000Z</time>
      </trkpt>
      <trkpt lat="50.41987" lon="3.24946">
        <ele>0.061758</ele>
        <time>2019-12-08T10:06:09.000Z</time>
      </trkpt>
      <trkpt lat="50.41985" lon="3.24933">
        <ele>-1.103818</ele>
        <time>2019-12-08T10:06:17.000Z</time>
      </trkpt>
      <trkpt lat="50.41991" lon="3.24922">
        <ele>-2.29446</ele>
        <time>2019-12-08T10:06:28.000Z</time>
      </trkpt>
      <trkpt lat="50.42003" lon="3.24927">
        <ele>-3.860109</ele>
        <time>2019-12-08T10:06:49.000Z</time>
      </trkpt>
      <trkpt lat="50.42009" lon="3.24942">
        <ele>-5.357137</ele>
        <time>2019-12-08T10:07:07.000Z</time>
      </trkpt>
      <trkpt lat="50.42014" lon="3.24926">
        <ele>-6.748854</ele>
        <time>2019-12-08T10:08:03.000Z</time>
      </trkpt>
      <trkpt lat="50.42022" lon="3.24919">
        <ele>-8.030351</ele>
        <time>2019-12-08T10:08:10.000Z</time>
      </trkpt>
      <trkpt lat="50.42024" lon="3.24934">
        <ele>-9.347206</ele>
        <time>2019-12-08T10:08:16.000Z</time>
      </trkpt>
      <trkpt lat="50.42031" lon="3.24949">
        <ele>-10.860326</ele>
        <time>2019-12-08T10:08:23.000Z</time>
      </trkpt>
      <trkpt lat="50.4204" lon="3.24958">
        <ele>-12.204162</ele>
        <time>2019-12-08T10:08:27.000Z</time>
      </trkpt>
      <trkpt lat="50.42048" lon="3.24964">
        <ele>-13.358141</ele>
        <time>2019-12-08T10:08:33.000Z</time>
      </trkpt>
      <trkpt lat="50.42022" lon="3.24942">
        <ele>-14.657287</ele>
        <time>2019-12-08T10:08:52.000Z</time>
      </trkpt>
      <trkpt lat="50.42012" lon="3.24928">
        <ele>-14.657287</ele>
        <time>2019-12-08T10:08:55.000Z</time>
      </trkpt>
      <trkpt lat="50.42001" lon="3.24921">
        <ele>-14.657287</ele>
        <time>2019-12-08T10:08:58.000Z</time>
      </trkpt>
      <trkpt lat="50.41992" lon="3.24916">
        <ele>-14.657287</ele>
        <time>2019-12-08T10:09:03.000Z</time>
      </trkpt>
      <trkpt lat="50.41985" lon="3.24906">
        <ele>-14.657287</ele>
        <time>2019-12-08T10:09:07.000Z</time>
      </trkpt>
      <trkpt lat="50.41993" lon="3.24913">
        <ele>-14.657287</ele>
        <time>2019-12-08T10:09:38.000Z</time>
      </trkpt>
      <trkpt lat="50.42003" lon="3.24915">
        <ele>-14.657287</ele>
        <time>2019-12-08T10:10:15.000Z</time>
      </trkpt>
      <trkpt lat="50.4201" lon="3.24904">
        <ele>-14.657287</ele>
        <time>2019-12-08T10:10:46.000Z</time>
      </trkpt>
      <trkpt lat="50.42015" lon="3.24889">
        <ele>-14.657287</ele>
        <time>2019-12-08T10:10:54.000Z</time>
      </trkpt>
      <trkpt lat="50.42024" lon="3.24892">
        <ele>-14.657287</ele>
        <time>2019-12-08T10:11:00.000Z</time>
      </trkpt>
      <trkpt lat="50.42032" lon="3.24882">
        <ele>-14.657287</ele>
        <time>2019-12-08T10:11:05.000Z</time>
      </trkpt>
      <trkpt lat="50.42038" lon="3.2487">
        <ele>-14.657287</ele>
        <time>2019-12-08T10:11:10.000Z</time>
      </trkpt>
      <trkpt lat="50.42043" lon="3.24856">
        <ele>-14.657287</ele>
        <time>2019-12-08T10:11:14.000Z</time>
      </trkpt>
      <trkpt lat="50.42036" lon="3.24867">
        <ele>-14.657287</ele>
        <time>2019-12-08T10:11:23.000Z</time>
      </trkpt>
      <trkpt lat="50.42029" lon="3.24879">
        <ele>-14.657287</ele>
        <time>2019-12-08T10:11:26.000Z</time>
      </trkpt>
      <trkpt lat="50.42024" lon="3.24894">
        <ele>-14.657287</ele>
        <time>2019-12-08T10:11:30.000Z</time>
      </trkpt>
      <trkpt lat="50.4202" lon="3.24908">
        <ele>-14.657287</ele>
        <time>2019-12-08T10:11:39.000Z</time>
      </trkpt>
      <trkpt lat="50.4198" lon="3.2495">
        <ele>-23.405477</ele>
        <time>2019-12-08T08:09:14.000Z</time>
      </trkpt>
      <trkpt lat="50.4198" lon="3.2495">
        <ele>-23.405477</ele>
        <time>2019-12-08T08:09:14.000Z</time>
      </trkpt>
      <trkpt lat="50.41971" lon="3.24955">
        <ele>-23.405477</ele>
        <time>2019-12-08T08:09:28.000Z</time>
      </trkpt>
      <trkpt lat="50.4198" lon="3.24942">
        <ele>-23.405477</ele>
        <time>2019-12-08T08:11:11.000Z</time>
      </trkpt>
      <trkpt lat="50.41993" lon="3.24961">
        <ele>-23.405477</ele>
        <time>2019-12-08T08:11:41.000Z</time>
      </trkpt>
      <trkpt lat="50.41979" lon="3.24959">
        <ele>-23.405477</ele>
        <time>2019-12-08T08:11:44.000Z</time>
      </trkpt>
      <trkpt lat="50.41961" lon="3.24948">
        <ele>-23.405477</ele>
        <time>2019-12-08T08:13:13.000Z</time>
      </trkpt>
      <trkpt lat="50.4198" lon="3.24944">
        <ele>-23.120781</ele>
        <time>2019-12-08T08:14:06.000Z</time>
      </trkpt>
      <trkpt lat="50.41995" lon="3.24945">
        <ele>-19.546919</ele>
        <time>2019-12-08T08:14:19.000Z</time>
      </trkpt>
      <trkpt lat="50.41987" lon="3.24937">
        <ele>-17.258683</ele>
        <time>2019-12-08T08:14:35.000Z</time>
      </trkpt>
      <trkpt lat="50.41977" lon="3.2494">
        <ele>-14.891131</ele>
        <time>2019-12-08T08:14:40.000Z</time>
      </trkpt>
      <trkpt lat="50.41969" lon="3.24948">
        <ele>-12.45448</ele>
        <time>2019-12-08T08:14:46.000Z</time>
      </trkpt>
      <trkpt lat="50.41965" lon="3.24961">
        <ele>-10.258133</ele>
        <time>2019-12-08T08:14:55.000Z</time>
      </trkpt>
      <trkpt lat="50.41978" lon="3.24967">
        <ele>-7.037465</ele>
        <time>2019-12-08T08:19:16.000Z</time>
      </trkpt>
      <trkpt lat="50.41979" lon="3.24981">
        <ele>-4.848882</ele>
        <time>2019-12-08T08:31:30.000Z</time>
      </trkpt>
      <trkpt lat="50.41976" lon="3.24995">
        <ele>-2.578475</ele>
        <time>2019-12-08T08:31:35.000Z</time>
      </trkpt>
      <trkpt lat="50.4198" lon="3.2498">
        <ele>-0.027205</ele>
        <time>2019-12-08T08:31:48.000Z</time>
      </trkpt>
      <trkpt lat="50.41979" lon="3.24965">
        <ele>2.189628</ele>
        <time>2019-12-08T08:32:02.000Z</time>
      </trkpt>
      <trkpt lat="50.41979" lon="3.24982">
        <ele>4.724336</ele>
        <time>2019-12-08T08:34:11.000Z</time>
      </trkpt>
      <trkpt lat="50.41977" lon="3.24999">
        <ele>7.322304</ele>
        <time>2019-12-08T08:34:15.000Z</time>
      </trkpt>
      <trkpt lat="50.41976" lon="3.25016">
        <ele>9.983071</ele>
        <time>2019-12-08T08:34:19.000Z</time>
      </trkpt>
      <trkpt lat="50.41974" lon="3.25031">
        <ele>12.293279</ele>
        <time>2019-12-08T08:34:24.000Z</time>
      </trkpt>
      <trkpt lat="50.41976" lon="3.25014">
        <ele>14.830589</ele>
        <time>2019-12-08T08:34:36.000Z</time>
      </trkpt>
      <trkpt lat="50.41978" lon="3.24999">
        <ele>17.184783</ele>
        <time>2019-12-08T08:34:39.000Z</time>
      </trkpt>
      <trkpt lat="50.4198" lon="3.24984">
        <ele>19.596918</ele>
        <time>2019-12-08T08:34:42.000Z</time>
      </trkpt>
      <trkpt lat="50.4198" lon="3.24968">
        <ele>19.983887</ele>
        <time>2019-12-08T08:34:46.000Z</time>
      </trkpt>
      <trkpt lat="50.41977" lon="3.24985">
        <ele>20.014807</ele>
        <time>2019-12-08T08:37:34.000Z</time>
      </trkpt>
      <trkpt lat="50.41975" lon="3.25">
        <ele>20.043953</ele>
        <time>2019-12-08T08:37:37.000Z</time>
      </trkpt>
      <trkpt lat="50.41974" lon="3.25019">
        <ele>20.079466</ele>
        <time>2019-12-08T08:37:40.000Z</time>
      </trkpt>
      <trkpt lat="50.41972" lon="3.2504">
        <ele>20.117568</ele>
        <time>2019-12-08T08:37:43.000Z</time>
      </trkpt>
      <trkpt lat="50.41971" lon="3.25054">
        <ele>20.144131</ele>
        <time>2019-12-08T08:37:45.000Z</time>
      </trkpt>
      <trkpt lat="50.4197" lon="3.25069">
        <ele>20.171796</ele>
        <time>2019-12-08T08:37:47.000Z</time>
      </trkpt>
      <trkpt lat="50.4197" lon="3.25083">
        <ele>20.198585</ele>
        <time>2019-12-08T08:37:49.000Z</time>
      </trkpt>
      <trkpt lat="50.4197" lon="3.25098">
        <ele>20.225359</ele>
        <time>2019-12-08T08:37:51.000Z</time>
      </trkpt>
      <trkpt lat="50.41972" lon="3.25117">
        <ele>20.26142</ele>
        <time>2019-12-08T08:37:54.000Z</time>
      </trkpt>
      <trkpt lat="50.41974" lon="3.25135">
        <ele>20.295919</ele>
        <time>2019-12-08T08:37:57.000Z</time>
      </trkpt>
      <trkpt lat="50.41976" lon="3.25154">
        <ele>20.330568</ele>
        <time>2019-12-08T08:38:00.000Z</time>
      </trkpt>
      <trkpt lat="50.41979" lon="3.25173">
        <ele>20.367609</ele>
        <time>2019-12-08T08:38:03.000Z</time>
      </trkpt>
      <trkpt lat="50.41982" lon="3.25191">
        <ele>20.401446</ele>
        <time>2019-12-08T08:38:06.000Z</time>
      </trkpt>
      <trkpt lat="50.41984" lon="3.2521">
        <ele>20.436432</ele>
        <time>2019-12-08T08:38:09.000Z</time>
      </trkpt>
      <trkpt lat="50.41987" lon="3.2523">
        <ele>20.474509</ele>
        <time>2019-12-08T08:38:12.000Z</time>
      </trkpt>
      <trkpt lat="50.41989" lon="3.25244">
        <ele>20.599822</ele>
        <time>2019-12-08T08:38:14.000Z</time>
      </trkpt>
      <trkpt lat="50.41991" lon="3.25264">
        <ele>20.823564</ele>
        <time>2019-12-08T08:38:17.000Z</time>
      </trkpt>
      <trkpt lat="50.41995" lon="3.25284">
        <ele>21.041766</ele>
        <time>2019-12-08T08:38:20.000Z</time>
      </trkpt>
      <trkpt lat="50.41997" lon="3.25304">
        <ele>21.260914</ele>
        <time>2019-12-08T08:38:23.000Z</time>
      </trkpt>
      <trkpt lat="50.42001" lon="3.25324">
        <ele>21.490573</ele>
        <time>2019-12-08T08:38:26.000Z</time>
      </trkpt>
      <trkpt lat="50.42004" lon="3.25337">
        <ele>21.644147</ele>
        <time>2019-12-08T08:38:28.000Z</time>
      </trkpt>
      <trkpt lat="50.42009" lon="3.2535">
        <ele>21.805592</ele>
        <time>2019-12-08T08:38:30.000Z</time>
      </trkpt>
      <trkpt lat="50.42014" lon="3.25364">
        <ele>21.977005</ele>
        <time>2019-12-08T08:38:32.000Z</time>
      </trkpt>
      <trkpt lat="50.42019" lon="3.25377">
        <ele>22.144664</ele>
        <time>2019-12-08T08:38:34.000Z</time>
      </trkpt>
      <trkpt lat="50.42024" lon="3.2539">
        <ele>22.308597</ele>
        <time>2019-12-08T08:38:36.000Z</time>
      </trkpt>
      <trkpt lat="50.42029" lon="3.25402">
        <ele>22.468836</ele>
        <time>2019-12-08T08:38:38.000Z</time>
      </trkpt>
      <trkpt lat="50.42034" lon="3.25415">
        <ele>22.62724</ele>
        <time>2019-12-08T08:38:40.000Z</time>
      </trkpt>
      <trkpt lat="50.42043" lon="3.25429">
        <ele>22.837195</ele>
        <time>2019-12-08T08:38:43.000Z</time>
      </trkpt>
      <trkpt lat="50.42055" lon="3.25424">
        <ele>23.051513</ele>
        <time>2019-12-08T08:38:46.000Z</time>
      </trkpt>
      <trkpt lat="50.42065" lon="3.2541">
        <ele>23.275567</ele>
        <time>2019-12-08T08:38:49.000Z</time>
      </trkpt>
      <trkpt lat="50.42075" lon="3.25403">
        <ele>23.467258</ele>
        <time>2019-12-08T08:38:52.000Z</time>
      </trkpt>
      <trkpt lat="50.42085" lon="3.25415">
        <ele>23.283519</ele>
        <time>2019-12-08T08:38:55.000Z</time>
      </trkpt>
      <trkpt lat="50.42092" lon="3.25425">
        <ele>22.978766</ele>
        <time>2019-12-08T08:38:57.000Z</time>
      </trkpt>
      <trkpt lat="50.42099" lon="3.25435">
        <ele>22.671314</ele>
        <time>2019-12-08T08:38:59.000Z</time>
      </trkpt>
      <trkpt lat="50.42107" lon="3.25445">
        <ele>22.327237</ele>
        <time>2019-12-08T08:39:01.000Z</time>
      </trkpt>
      <trkpt lat="50.42115" lon="3.25453">
        <ele>22.014266</ele>
        <time>2019-12-08T08:39:03.000Z</time>
      </trkpt>
      <trkpt lat="50.42124" lon="3.25461">
        <ele>21.678734</ele>
        <time>2019-12-08T08:39:05.000Z</time>
      </trkpt>
      <trkpt lat="50.42133" lon="3.25469">
        <ele>21.33172</ele>
        <time>2019-12-08T08:39:07.000Z</time>
      </trkpt>
      <trkpt lat="50.42142" lon="3.25476">
        <ele>21.002183</ele>
        <time>2019-12-08T08:39:09.000Z</time>
      </trkpt>
      <trkpt lat="50.42151" lon="3.25484">
        <ele>20.670787</ele>
        <time>2019-12-08T08:39:11.000Z</time>
      </trkpt>
      <trkpt lat="50.42159" lon="3.25492">
        <ele>20.338372</ele>
        <time>2019-12-08T08:39:13.000Z</time>
      </trkpt>
      <trkpt lat="50.42168" lon="3.25499">
        <ele>20.007798</ele>
        <time>2019-12-08T08:39:15.000Z</time>
      </trkpt>
      <trkpt lat="50.42177" lon="3.25507">
        <ele>19.663796</ele>
        <time>2019-12-08T08:39:17.000Z</time>
      </trkpt>
      <trkpt lat="50.42187" lon="3.25515">
        <ele>19.306086</ele>
        <time>2019-12-08T08:39:19.000Z</time>
      </trkpt>
      <trkpt lat="50.42196" lon="3.25523">
        <ele>18.955168</ele>
        <time>2019-12-08T08:39:21.000Z</time>
      </trkpt>
      <trkpt lat="50.42205" lon="3.25532">
        <ele>18.600345</ele>
        <time>2019-12-08T08:39:23.000Z</time>
      </trkpt>
      <trkpt lat="50.42215" lon="3.25541">
        <ele>18.24043</ele>
        <time>2019-12-08T08:39:25.000Z</time>
      </trkpt>
      <trkpt lat="50.42224" lon="3.25551">
        <ele>17.872705</ele>
        <time>2019-12-08T08:39:27.000Z</time>
      </trkpt>
      <trkpt lat="50.42232" lon="3.25562">
        <ele>17.594606</ele>
        <time>2019-12-08T08:39:29.000Z</time>
      </trkpt>
      <trkpt lat="50.4224" lon="3.25574">
        <ele>17.527807</ele>
        <time>2019-12-08T08:39:31.000Z</time>
      </trkpt>
      <trkpt lat="50.42248" lon="3.25586">
        <ele>17.460207</ele>
        <time>2019-12-08T08:39:33.000Z</time>
      </trkpt>
      <trkpt lat="50.42255" lon="3.25599">
        <ele>17.393408</ele>
        <time>2019-12-08T08:39:35.000Z</time>
      </trkpt>
      <trkpt lat="50.42262" lon="3.25614">
        <ele>17.328064</ele>
        <time>2019-12-08T08:39:37.000Z</time>
      </trkpt>
      <trkpt lat="50.42267" lon="3.25629">
        <ele>17.261037</ele>
        <time>2019-12-08T08:39:39.000Z</time>
      </trkpt>
      <trkpt lat="50.42271" lon="3.25645">
        <ele>17.196093</ele>
        <time>2019-12-08T08:39:41.000Z</time>
      </trkpt>
      <trkpt lat="50.42273" lon="3.25661">
        <ele>17.133092</ele>
        <time>2019-12-08T08:39:43.000Z</time>
      </trkpt>
      <trkpt lat="50.42275" lon="3.25677">
        <ele>17.071579</ele>
        <time>2019-12-08T08:39:45.000Z</time>
      </trkpt>
      <trkpt lat="50.42276" lon="3.25692">
        <ele>17.011848</ele>
        <time>2019-12-08T08:39:47.000Z</time>
      </trkpt>
      <trkpt lat="50.42278" lon="3.25708">
        <ele>16.950808</ele>
        <time>2019-12-08T08:39:49.000Z</time>
      </trkpt>
      <trkpt lat="50.42279" lon="3.25724">
        <ele>16.890379</ele>
        <time>2019-12-08T08:39:51.000Z</time>
      </trkpt>
      <trkpt lat="50.42278" lon="3.2574">
        <ele>16.829666</ele>
        <time>2019-12-08T08:39:53.000Z</time>
      </trkpt>
      <trkpt lat="50.42278" lon="3.25756">
        <ele>16.767291</ele>
        <time>2019-12-08T08:39:55.000Z</time>
      </trkpt>
      <trkpt lat="50.42277" lon="3.25773">
        <ele>16.703503</ele>
        <time>2019-12-08T08:39:57.000Z</time>
      </trkpt>
      <trkpt lat="50.42278" lon="3.2579">
        <ele>16.636285</ele>
        <time>2019-12-08T08:39:59.000Z</time>
      </trkpt>
      <trkpt lat="50.42277" lon="3.25807">
        <ele>16.571735</ele>
        <time>2019-12-08T08:40:01.000Z</time>
      </trkpt>
      <trkpt lat="50.42276" lon="3.25824">
        <ele>16.563277</ele>
        <time>2019-12-08T08:40:03.000Z</time>
      </trkpt>
      <trkpt lat="50.42276" lon="3.25841">
        <ele>16.632266</ele>
        <time>2019-12-08T08:40:05.000Z</time>
      </trkpt>
      <trkpt lat="50.42276" lon="3.25858">
        <ele>16.702075</ele>
        <time>2019-12-08T08:40:07.000Z</time>
      </trkpt>
      <trkpt lat="50.42275" lon="3.25875">
        <ele>16.770654</ele>
        <time>2019-12-08T08:40:09.000Z</time>
      </trkpt>
      <trkpt lat="50.42275" lon="3.25891">
        <ele>16.839742</ele>
        <time>2019-12-08T08:40:11.000Z</time>
      </trkpt>
      <trkpt lat="50.42274" lon="3.25908">
        <ele>16.909694</ele>
        <time>2019-12-08T08:40:13.000Z</time>
      </trkpt>
      <trkpt lat="50.42273" lon="3.25926">
        <ele>16.981144</ele>
        <time>2019-12-08T08:40:15.000Z</time>
      </trkpt>
      <trkpt lat="50.42273" lon="3.25943">
        <ele>17.051051</ele>
        <time>2019-12-08T08:40:17.000Z</time>
      </trkpt>
      <trkpt lat="50.42271" lon="3.2596">
        <ele>17.121647</ele>
        <time>2019-12-08T08:40:19.000Z</time>
      </trkpt>
      <trkpt lat="50.42271" lon="3.25978">
        <ele>17.194421</ele>
        <time>2019-12-08T08:40:21.000Z</time>
      </trkpt>
      <trkpt lat="50.4227" lon="3.25995">
        <ele>17.265147</ele>
        <time>2019-12-08T08:40:23.000Z</time>
      </trkpt>
      <trkpt lat="50.42269" lon="3.26012">
        <ele>17.335206</ele>
        <time>2019-12-08T08:40:25.000Z</time>
      </trkpt>
      <trkpt lat="50.42268" lon="3.26028">
        <ele>17.403221</ele>
        <time>2019-12-08T08:40:27.000Z</time>
      </trkpt>
      <trkpt lat="50.4227" lon="3.26045">
        <ele>17.472146</ele>
        <time>2019-12-08T08:40:29.000Z</time>
      </trkpt>
      <trkpt lat="50.42276" lon="3.26057">
        <ele>17.534853</ele>
        <time>2019-12-08T08:40:31.000Z</time>
      </trkpt>
      <trkpt lat="50.42279" lon="3.26071">
        <ele>17.595674</ele>
        <time>2019-12-08T08:40:33.000Z</time>
      </trkpt>
      <trkpt lat="50.42278" lon="3.26088">
        <ele>17.664762</ele>
        <time>2019-12-08T08:40:35.000Z</time>
      </trkpt>
      <trkpt lat="50.42277" lon="3.26105">
        <ele>17.570586</ele>
        <time>2019-12-08T08:40:37.000Z</time>
      </trkpt>
      <trkpt lat="50.42277" lon="3.26123">
        <ele>17.370573</ele>
        <time>2019-12-08T08:40:39.000Z</time>
      </trkpt>
      <trkpt lat="50.42278" lon="3.26139">
        <ele>17.175987</ele>
        <time>2019-12-08T08:40:41.000Z</time>
      </trkpt>
      <trkpt lat="50.4228" lon="3.26156">
        <ele>16.977664</ele>
        <time>2019-12-08T08:40:43.000Z</time>
      </trkpt>
      <trkpt lat="50.42282" lon="3.26172">
        <ele>16.782382</ele>
        <time>2019-12-08T08:40:45.000Z</time>
      </trkpt>
      <trkpt lat="50.42284" lon="3.26189">
        <ele>16.585605</ele>
        <time>2019-12-08T08:40:47.000Z</time>
      </trkpt>
      <trkpt lat="50.42287" lon="3.26205">
        <ele>16.394748</ele>
        <time>2019-12-08T08:40:49.000Z</time>
      </trkpt>
      <trkpt lat="50.42289" lon="3.26222">
        <ele>16.192299</ele>
        <time>2019-12-08T08:40:51.000Z</time>
      </trkpt>
      <trkpt lat="50.42292" lon="3.2624">
        <ele>15.970347</ele>
        <time>2019-12-08T08:40:53.000Z</time>
      </trkpt>
      <trkpt lat="50.42295" lon="3.26257">
        <ele>15.765947</ele>
        <time>2019-12-08T08:40:55.000Z</time>
      </trkpt>
      <trkpt lat="50.42297" lon="3.26274">
        <ele>15.566903</ele>
        <time>2019-12-08T08:40:57.000Z</time>
      </trkpt>
      <trkpt lat="50.423" lon="3.26291">
        <ele>15.367024</ele>
        <time>2019-12-08T08:40:59.000Z</time>
      </trkpt>
      <trkpt lat="50.42303" lon="3.26307">
        <ele>15.167831</ele>
        <time>2019-12-08T08:41:01.000Z</time>
      </trkpt>
      <trkpt lat="50.42305" lon="3.26324">
        <ele>14.96577</ele>
        <time>2019-12-08T08:41:03.000Z</time>
      </trkpt>
      <trkpt lat="50.42308" lon="3.26341">
        <ele>14.767703</ele>
        <time>2019-12-08T08:41:05.000Z</time>
      </trkpt>
      <trkpt lat="50.4231" lon="3.26357">
        <ele>14.579099</ele>
        <time>2019-12-08T08:41:07.000Z</time>
      </trkpt>
      <trkpt lat="50.42313" lon="3.26372">
        <ele>14.42249</ele>
        <time>2019-12-08T08:41:09.000Z</time>
      </trkpt>
      <trkpt lat="50.42315" lon="3.26387">
        <ele>14.52432</ele>
        <time>2019-12-08T08:41:11.000Z</time>
      </trkpt>
      <trkpt lat="50.42318" lon="3.26401">
        <ele>14.622709</ele>
        <time>2019-12-08T08:41:14.000Z</time>
      </trkpt>
      <trkpt lat="50.42322" lon="3.26417">
        <ele>14.738958</ele>
        <time>2019-12-08T08:41:18.000Z</time>
      </trkpt>
      <trkpt lat="50.42333" lon="3.26423">
        <ele>14.85904</ele>
        <time>2019-12-08T08:41:21.000Z</time>
      </trkpt>
      <trkpt lat="50.42342" lon="3.26422">
        <ele>14.960143</ele>
        <time>2019-12-08T08:41:23.000Z</time>
      </trkpt>
      <trkpt lat="50.42352" lon="3.2642">
        <ele>15.070074</ele>
        <time>2019-12-08T08:41:25.000Z</time>
      </trkpt>
      <trkpt lat="50.42363" lon="3.26416">
        <ele>15.184066</ele>
        <time>2019-12-08T08:41:27.000Z</time>
      </trkpt>
      <trkpt lat="50.42373" lon="3.2641">
        <ele>15.301818</ele>
        <time>2019-12-08T08:41:29.000Z</time>
      </trkpt>
      <trkpt lat="50.42383" lon="3.26404">
        <ele>15.416434</ele>
        <time>2019-12-08T08:41:31.000Z</time>
      </trkpt>
      <trkpt lat="50.42394" lon="3.264">
        <ele>15.537775</ele>
        <time>2019-12-08T08:41:33.000Z</time>
      </trkpt>
      <trkpt lat="50.42405" lon="3.26396">
        <ele>15.65777</ele>
        <time>2019-12-08T08:41:35.000Z</time>
      </trkpt>
      <trkpt lat="50.42416" lon="3.26392">
        <ele>15.77482</ele>
        <time>2019-12-08T08:41:37.000Z</time>
      </trkpt>
      <trkpt lat="50.42427" lon="3.26388">
        <ele>15.899263</ele>
        <time>2019-12-08T08:41:39.000Z</time>
      </trkpt>
      <trkpt lat="50.42439" lon="3.26383">
        <ele>16.026248</ele>
        <time>2019-12-08T08:41:41.000Z</time>
      </trkpt>
      <trkpt lat="50.4245" lon="3.26379">
        <ele>16.146718</ele>
        <time>2019-12-08T08:41:43.000Z</time>
      </trkpt>
      <trkpt lat="50.42461" lon="3.26375">
        <ele>16.267026</ele>
        <time>2019-12-08T08:41:45.000Z</time>
      </trkpt>
      <trkpt lat="50.42473" lon="3.26371">
        <ele>16.375982</ele>
        <time>2019-12-08T08:41:47.000Z</time>
      </trkpt>
      <trkpt lat="50.42483" lon="3.26366">
        <ele>16.464657</ele>
        <time>2019-12-08T08:41:49.000Z</time>
      </trkpt>
      <trkpt lat="50.42494" lon="3.26362">
        <ele>16.556927</ele>
        <time>2019-12-08T08:41:51.000Z</time>
      </trkpt>
      <trkpt lat="50.42505" lon="3.26358">
        <ele>16.645735</ele>
        <time>2019-12-08T08:41:53.000Z</time>
      </trkpt>
      <trkpt lat="50.42515" lon="3.26354">
        <ele>16.734154</ele>
        <time>2019-12-08T08:41:55.000Z</time>
      </trkpt>
      <trkpt lat="50.42526" lon="3.2635">
        <ele>16.826664</ele>
        <time>2019-12-08T08:41:57.000Z</time>
      </trkpt>
      <trkpt lat="50.42536" lon="3.26345">
        <ele>16.911256</ele>
        <time>2019-12-08T08:41:59.000Z</time>
      </trkpt>
      <trkpt lat="50.42547" lon="3.26341">
        <ele>17.003525</ele>
        <time>2019-12-08T08:42:01.000Z</time>
      </trkpt>
      <trkpt lat="50.42557" lon="3.26337">
        <ele>17.088253</ele>
        <time>2019-12-08T08:42:03.000Z</time>
      </trkpt>
      <trkpt lat="50.42568" lon="3.26333">
        <ele>17.180888</ele>
        <time>2019-12-08T08:42:05.000Z</time>
      </trkpt>
      <trkpt lat="50.42578" lon="3.26329">
        <ele>17.265217</ele>
        <time>2019-12-08T08:42:07.000Z</time>
      </trkpt>
      <trkpt lat="50.42588" lon="3.26325">
        <ele>17.352594</ele>
        <time>2019-12-08T08:42:09.000Z</time>
      </trkpt>
      <trkpt lat="50.42599" lon="3.26321">
        <ele>17.441683</ele>
        <time>2019-12-08T08:42:11.000Z</time>
      </trkpt>
      <trkpt lat="50.42609" lon="3.26317">
        <ele>17.528941</ele>
        <time>2019-12-08T08:42:13.000Z</time>
      </trkpt>
      <trkpt lat="50.4262" lon="3.26313">
        <ele>17.615647</ele>
        <time>2019-12-08T08:42:15.000Z</time>
      </trkpt>
      <trkpt lat="50.4263" lon="3.26309">
        <ele>17.702742</ele>
        <time>2019-12-08T08:42:17.000Z</time>
      </trkpt>
      <trkpt lat="50.4264" lon="3.26305">
        <ele>17.789704</ele>
        <time>2019-12-08T08:42:19.000Z</time>
      </trkpt>
      <trkpt lat="50.42651" lon="3.26301">
        <ele>17.787857</ele>
        <time>2019-12-08T08:42:21.000Z</time>
      </trkpt>
      <trkpt lat="50.42662" lon="3.26297">
        <ele>17.783814</ele>
        <time>2019-12-08T08:42:23.000Z</time>
      </trkpt>
      <trkpt lat="50.42673" lon="3.26293">
        <ele>17.779659</ele>
        <time>2019-12-08T08:42:25.000Z</time>
      </trkpt>
      <trkpt lat="50.42684" lon="3.26289">
        <ele>17.775487</ele>
        <time>2019-12-08T08:42:27.000Z</time>
      </trkpt>
      <trkpt lat="50.42695" lon="3.26285">
        <ele>17.771265</ele>
        <time>2019-12-08T08:42:29.000Z</time>
      </trkpt>
      <trkpt lat="50.42706" lon="3.26281">
        <ele>17.767283</ele>
        <time>2019-12-08T08:42:31.000Z</time>
      </trkpt>
      <trkpt lat="50.42716" lon="3.26277">
        <ele>17.763212</ele>
        <time>2019-12-08T08:42:33.000Z</time>
      </trkpt>
      <trkpt lat="50.42727" lon="3.26273">
        <ele>17.759129</ele>
        <time>2019-12-08T08:42:35.000Z</time>
      </trkpt>
      <trkpt lat="50.42738" lon="3.2627">
        <ele>17.755007</ele>
        <time>2019-12-08T08:42:37.000Z</time>
      </trkpt>
      <trkpt lat="50.42749" lon="3.26266">
        <ele>17.75089</ele>
        <time>2019-12-08T08:42:39.000Z</time>
      </trkpt>
      <trkpt lat="50.42761" lon="3.26263">
        <ele>17.746398</ele>
        <time>2019-12-08T08:42:41.000Z</time>
      </trkpt>
      <trkpt lat="50.42772" lon="3.26258">
        <ele>17.742058</ele>
        <time>2019-12-08T08:42:43.000Z</time>
      </trkpt>
      <trkpt lat="50.42783" lon="3.26252">
        <ele>17.737914</ele>
        <time>2019-12-08T08:42:45.000Z</time>
      </trkpt>
      <trkpt lat="50.42794" lon="3.26247">
        <ele>17.733805</ele>
        <time>2019-12-08T08:42:47.000Z</time>
      </trkpt>
      <trkpt lat="50.42805" lon="3.26243">
        <ele>17.729639</ele>
        <time>2019-12-08T08:42:49.000Z</time>
      </trkpt>
      <trkpt lat="50.42816" lon="3.26239">
        <ele>17.727866</ele>
        <time>2019-12-08T08:42:51.000Z</time>
      </trkpt>
      <trkpt lat="50.42827" lon="3.26234">
        <ele>17.766412</ele>
        <time>2019-12-08T08:42:53.000Z</time>
      </trkpt>
      <trkpt lat="50.42838" lon="3.2623">
        <ele>17.805839</ele>
        <time>2019-12-08T08:42:55.000Z</time>
      </trkpt>
      <trkpt lat="50.42849" lon="3.26225">
        <ele>17.844386</ele>
        <time>2019-12-08T08:42:57.000Z</time>
      </trkpt>
      <trkpt lat="50.4286" lon="3.26221">
        <ele>17.881893</ele>
        <time>2019-12-08T08:42:59.000Z</time>
      </trkpt>
      <trkpt lat="50.42871" lon="3.26216">
        <ele>17.920439</ele>
        <time>2019-12-08T08:43:01.000Z</time>
      </trkpt>
      <trkpt lat="50.42882" lon="3.26212">
        <ele>17.958879</ele>
        <time>2019-12-08T08:43:03.000Z</time>
      </trkpt>
      <trkpt lat="50.42894" lon="3.26207">
        <ele>17.999558</ele>
        <time>2019-12-08T08:43:05.000Z</time>
      </trkpt>
      <trkpt lat="50.42905" lon="3.26203">
        <ele>18.039366</ele>
        <time>2019-12-08T08:43:07.000Z</time>
      </trkpt>
      <trkpt lat="50.42917" lon="3.26199">
        <ele>18.079355</ele>
        <time>2019-12-08T08:43:09.000Z</time>
      </trkpt>
      <trkpt lat="50.42928" lon="3.26195">
        <ele>18.119392</ele>
        <time>2019-12-08T08:43:11.000Z</time>
      </trkpt>
      <trkpt lat="50.42939" lon="3.2619">
        <ele>18.157832</ele>
        <time>2019-12-08T08:43:13.000Z</time>
      </trkpt>
      <trkpt lat="50.4295" lon="3.26186">
        <ele>18.197443</ele>
        <time>2019-12-08T08:43:15.000Z</time>
      </trkpt>
      <trkpt lat="50.42962" lon="3.26183">
        <ele>18.237581</ele>
        <time>2019-12-08T08:43:17.000Z</time>
      </trkpt>
      <trkpt lat="50.42973" lon="3.26179">
        <ele>18.276724</ele>
        <time>2019-12-08T08:43:19.000Z</time>
      </trkpt>
      <trkpt lat="50.42985" lon="3.26175">
        <ele>18.317238</ele>
        <time>2019-12-08T08:43:21.000Z</time>
      </trkpt>
      <trkpt lat="50.42997" lon="3.26171">
        <ele>18.367728</ele>
        <time>2019-12-08T08:43:23.000Z</time>
      </trkpt>
      <trkpt lat="50.43009" lon="3.26167">
        <ele>18.424483</ele>
        <time>2019-12-08T08:43:25.000Z</time>
      </trkpt>
      <trkpt lat="50.4302" lon="3.26163">
        <ele>18.479337</ele>
        <time>2019-12-08T08:43:27.000Z</time>
      </trkpt>
      <trkpt lat="50.43031" lon="3.26159">
        <ele>18.532881</ele>
        <time>2019-12-08T08:43:29.000Z</time>
      </trkpt>
      <trkpt lat="50.43043" lon="3.26155">
        <ele>18.588258</ele>
        <time>2019-12-08T08:43:31.000Z</time>
      </trkpt>
      <trkpt lat="50.43054" lon="3.26151">
        <ele>18.643243</ele>
        <time>2019-12-08T08:43:33.000Z</time>
      </trkpt>
      <trkpt lat="50.43066" lon="3.26147">
        <ele>18.698435</ele>
        <time>2019-12-08T08:43:35.000Z</time>
      </trkpt>
      <trkpt lat="50.43077" lon="3.26143">
        <ele>18.75342</ele>
        <time>2019-12-08T08:43:37.000Z</time>
      </trkpt>
      <trkpt lat="50.43088" lon="3.26138">
        <ele>18.806788</ele>
        <time>2019-12-08T08:43:39.000Z</time>
      </trkpt>
      <trkpt lat="50.43098" lon="3.26134">
        <ele>18.855379</ele>
        <time>2019-12-08T08:43:41.000Z</time>
      </trkpt>
      <trkpt lat="50.43108" lon="3.26137">
        <ele>18.901285</ele>
        <time>2019-12-08T08:43:44.000Z</time>
      </trkpt>
      <trkpt lat="50.43106" lon="3.26155">
        <ele>18.955337</ele>
        <time>2019-12-08T08:43:47.000Z</time>
      </trkpt>
      <trkpt lat="50.43104" lon="3.26169">
        <ele>18.998019</ele>
        <time>2019-12-08T08:43:49.000Z</time>
      </trkpt>
      <trkpt lat="50.43103" lon="3.26184">
        <ele>19.042294</ele>
        <time>2019-12-08T08:43:51.000Z</time>
      </trkpt>
      <trkpt lat="50.43102" lon="3.26198">
        <ele>19.085401</ele>
        <time>2019-12-08T08:43:53.000Z</time>
      </trkpt>
      <trkpt lat="50.431" lon="3.26212">
        <ele>19.129431</ele>
        <time>2019-12-08T08:43:55.000Z</time>
      </trkpt>
      <trkpt lat="50.43098" lon="3.26227">
        <ele>19.175327</ele>
        <time>2019-12-08T08:43:57.000Z</time>
      </trkpt>
      <trkpt lat="50.43096" lon="3.26243">
        <ele>19.658515</ele>
        <time>2019-12-08T08:43:59.000Z</time>
      </trkpt>
      <trkpt lat="50.43095" lon="3.26258">
        <ele>20.191867</ele>
        <time>2019-12-08T08:44:01.000Z</time>
      </trkpt>
      <trkpt lat="50.43093" lon="3.26274">
        <ele>20.736317</ele>
        <time>2019-12-08T08:44:03.000Z</time>
      </trkpt>
      <trkpt lat="50.43091" lon="3.26289">
        <ele>21.25361</ele>
        <time>2019-12-08T08:44:05.000Z</time>
      </trkpt>
      <trkpt lat="50.4309" lon="3.26305">
        <ele>21.792331</ele>
        <time>2019-12-08T08:44:07.000Z</time>
      </trkpt>
      <trkpt lat="50.43088" lon="3.26321">
        <ele>22.347831</ele>
        <time>2019-12-08T08:44:09.000Z</time>
      </trkpt>
      <trkpt lat="50.43086" lon="3.26337">
        <ele>22.901371</ele>
        <time>2019-12-08T08:44:11.000Z</time>
      </trkpt>
      <trkpt lat="50.43084" lon="3.26353">
        <ele>23.475974</ele>
        <time>2019-12-08T08:44:13.000Z</time>
      </trkpt>
      <trkpt lat="50.43083" lon="3.26369">
        <ele>24.022116</ele>
        <time>2019-12-08T08:44:15.000Z</time>
      </trkpt>
      <trkpt lat="50.43081" lon="3.26385">
        <ele>24.570932</ele>
        <time>2019-12-08T08:44:17.000Z</time>
      </trkpt>
      <trkpt lat="50.43079" lon="3.264">
        <ele>25.083043</ele>
        <time>2019-12-08T08:44:19.000Z</time>
      </trkpt>
      <trkpt lat="50.43078" lon="3.2642">
        <ele>25.769917</ele>
        <time>2019-12-08T08:44:22.000Z</time>
      </trkpt>
      <trkpt lat="50.43076" lon="3.26435">
        <ele>26.278919</ele>
        <time>2019-12-08T08:44:25.000Z</time>
      </trkpt>
      <trkpt lat="50.43074" lon="3.26451">
        <ele>26.841482</ele>
        <time>2019-12-08T08:44:28.000Z</time>
      </trkpt>
      <trkpt lat="50.43071" lon="3.26471">
        <ele>27.544666</ele>
        <time>2019-12-08T08:44:31.000Z</time>
      </trkpt>
      <trkpt lat="50.4307" lon="3.26489">
        <ele>28.179795</ele>
        <time>2019-12-08T08:44:34.000Z</time>
      </trkpt>
      <trkpt lat="50.43068" lon="3.26507">
        <ele>28.77453</ele>
        <time>2019-12-08T08:44:37.000Z</time>
      </trkpt>
      <trkpt lat="50.43064" lon="3.26524">
        <ele>28.325564</ele>
        <time>2019-12-08T08:44:40.000Z</time>
      </trkpt>
      <trkpt lat="50.43061" lon="3.26538">
        <ele>27.939325</ele>
        <time>2019-12-08T08:44:43.000Z</time>
      </trkpt>
      <trkpt lat="50.4306" lon="3.26554">
        <ele>27.489302</ele>
        <time>2019-12-08T08:44:49.000Z</time>
      </trkpt>
      <trkpt lat="50.43058" lon="3.26572">
        <ele>27.007404</ele>
        <time>2019-12-08T08:44:54.000Z</time>
      </trkpt>
      <trkpt lat="50.43057" lon="3.2659">
        <ele>26.522845</ele>
        <time>2019-12-08T08:44:57.000Z</time>
      </trkpt>
      <trkpt lat="50.43054" lon="3.26609">
        <ele>26.001139</ele>
        <time>2019-12-08T08:45:00.000Z</time>
      </trkpt>
      <trkpt lat="50.43052" lon="3.26629">
        <ele>25.459057</ele>
        <time>2019-12-08T08:45:03.000Z</time>
      </trkpt>
      <trkpt lat="50.43049" lon="3.26648">
        <ele>24.933681</ele>
        <time>2019-12-08T08:45:06.000Z</time>
      </trkpt>
      <trkpt lat="50.43047" lon="3.26667">
        <ele>24.403578</ele>
        <time>2019-12-08T08:45:09.000Z</time>
      </trkpt>
      <trkpt lat="50.43044" lon="3.26686">
        <ele>23.896417</ele>
        <time>2019-12-08T08:45:12.000Z</time>
      </trkpt>
      <trkpt lat="50.43042" lon="3.26703">
        <ele>23.41597</ele>
        <time>2019-12-08T08:45:15.000Z</time>
      </trkpt>
      <trkpt lat="50.4304" lon="3.26722">
        <ele>22.891824</ele>
        <time>2019-12-08T08:45:18.000Z</time>
      </trkpt>
      <trkpt lat="50.43037" lon="3.2674">
        <ele>22.416379</ele>
        <time>2019-12-08T08:45:21.000Z</time>
      </trkpt>
      <trkpt lat="50.43036" lon="3.26755">
        <ele>22.003557</ele>
        <time>2019-12-08T08:45:24.000Z</time>
      </trkpt>
      <trkpt lat="50.43034" lon="3.26771">
        <ele>21.550891</ele>
        <time>2019-12-08T08:45:27.000Z</time>
      </trkpt>
      <trkpt lat="50.43032" lon="3.26788">
        <ele>21.09279</ele>
        <time>2019-12-08T08:45:30.000Z</time>
      </trkpt>
      <trkpt lat="50.43031" lon="3.26803">
        <ele>20.665133</ele>
        <time>2019-12-08T08:45:33.000Z</time>
      </trkpt>
      <trkpt lat="50.43029" lon="3.26822">
        <ele>20.128934</ele>
        <time>2019-12-08T08:45:37.000Z</time>
      </trkpt>
      <trkpt lat="50.43028" lon="3.2684">
        <ele>19.638671</ele>
        <time>2019-12-08T08:45:40.000Z</time>
      </trkpt>
      <trkpt lat="50.43026" lon="3.26859">
        <ele>19.090494</ele>
        <time>2019-12-08T08:45:43.000Z</time>
      </trkpt>
      <trkpt lat="50.43023" lon="3.26878">
        <ele>18.548696</ele>
        <time>2019-12-08T08:45:46.000Z</time>
      </trkpt>
      <trkpt lat="50.4302" lon="3.26896">
        <ele>18.032117</ele>
        <time>2019-12-08T08:45:49.000Z</time>
      </trkpt>
      <trkpt lat="50.43019" lon="3.26915">
        <ele>17.50665</ele>
        <time>2019-12-08T08:45:52.000Z</time>
      </trkpt>
      <trkpt lat="50.43018" lon="3.26932">
        <ele>17.018441</ele>
        <time>2019-12-08T08:45:55.000Z</time>
      </trkpt>
      <trkpt lat="50.43016" lon="3.26949">
        <ele>16.536438</ele>
        <time>2019-12-08T08:45:58.000Z</time>
      </trkpt>
      <trkpt lat="50.43013" lon="3.26966">
        <ele>16.06009</ele>
        <time>2019-12-08T08:46:01.000Z</time>
      </trkpt>
      <trkpt lat="50.43011" lon="3.26983">
        <ele>15.574635</ele>
        <time>2019-12-08T08:46:04.000Z</time>
      </trkpt>
      <trkpt lat="50.43009" lon="3.27001">
        <ele>15.051485</ele>
        <time>2019-12-08T08:46:07.000Z</time>
      </trkpt>
      <trkpt lat="50.43007" lon="3.2702">
        <ele>14.522091</ele>
        <time>2019-12-08T08:46:10.000Z</time>
      </trkpt>
      <trkpt lat="50.43005" lon="3.27039">
        <ele>13.991397</ele>
        <time>2019-12-08T08:46:13.000Z</time>
      </trkpt>
      <trkpt lat="50.43005" lon="3.27058">
        <ele>13.450246</ele>
        <time>2019-12-08T08:46:16.000Z</time>
      </trkpt>
      <trkpt lat="50.43003" lon="3.27076">
        <ele>14.042785</ele>
        <time>2019-12-08T08:46:19.000Z</time>
      </trkpt>
      <trkpt lat="50.43" lon="3.27093">
        <ele>14.89448</ele>
        <time>2019-12-08T08:46:22.000Z</time>
      </trkpt>
      <trkpt lat="50.42997" lon="3.27111">
        <ele>15.772494</ele>
        <time>2019-12-08T08:46:25.000Z</time>
      </trkpt>
      <trkpt lat="50.42995" lon="3.27128">
        <ele>16.604974</ele>
        <time>2019-12-08T08:46:28.000Z</time>
      </trkpt>
      <trkpt lat="50.42992" lon="3.27146">
        <ele>17.506437</ele>
        <time>2019-12-08T08:46:31.000Z</time>
      </trkpt>
      <trkpt lat="50.4299" lon="3.27164">
        <ele>18.376499</ele>
        <time>2019-12-08T08:46:34.000Z</time>
      </trkpt>
      <trkpt lat="50.42987" lon="3.27181">
        <ele>19.207722</ele>
        <time>2019-12-08T08:46:37.000Z</time>
      </trkpt>
      <trkpt lat="50.42985" lon="3.27197">
        <ele>20.010942</ele>
        <time>2019-12-08T08:46:40.000Z</time>
      </trkpt>
      <trkpt lat="50.42983" lon="3.27213">
        <ele>20.804241</ele>
        <time>2019-12-08T08:46:43.000Z</time>
      </trkpt>
      <trkpt lat="50.42981" lon="3.2723">
        <ele>21.626588</ele>
        <time>2019-12-08T08:46:46.000Z</time>
      </trkpt>
      <trkpt lat="50.4298" lon="3.27246">
        <ele>22.402085</ele>
        <time>2019-12-08T08:46:49.000Z</time>
      </trkpt>
      <trkpt lat="50.42978" lon="3.27265">
        <ele>23.320751</ele>
        <time>2019-12-08T08:46:52.000Z</time>
      </trkpt>
      <trkpt lat="50.42974" lon="3.27284">
        <ele>24.294798</ele>
        <time>2019-12-08T08:46:55.000Z</time>
      </trkpt>
      <trkpt lat="50.42971" lon="3.27304">
        <ele>25.290337</ele>
        <time>2019-12-08T08:46:58.000Z</time>
      </trkpt>
      <trkpt lat="50.4297" lon="3.27319">
        <ele>26.014468</ele>
        <time>2019-12-08T08:47:00.000Z</time>
      </trkpt>
      <trkpt lat="50.42969" lon="3.2734">
        <ele>26.93232</ele>
        <time>2019-12-08T08:47:03.000Z</time>
      </trkpt>
      <trkpt lat="50.42967" lon="3.2736">
        <ele>27.024021</ele>
        <time>2019-12-08T08:47:06.000Z</time>
      </trkpt>
      <trkpt lat="50.42967" lon="3.27374">
        <ele>27.087557</ele>
        <time>2019-12-08T08:47:08.000Z</time>
      </trkpt>
      <trkpt lat="50.42967" lon="3.27388">
        <ele>27.151528</ele>
        <time>2019-12-08T08:47:10.000Z</time>
      </trkpt>
      <trkpt lat="50.42967" lon="3.27409">
        <ele>27.247033</ele>
        <time>2019-12-08T08:47:13.000Z</time>
      </trkpt>
      <trkpt lat="50.42967" lon="3.27423">
        <ele>27.310651</ele>
        <time>2019-12-08T08:47:15.000Z</time>
      </trkpt>
      <trkpt lat="50.42967" lon="3.27444">
        <ele>27.403003</ele>
        <time>2019-12-08T08:47:18.000Z</time>
      </trkpt>
      <trkpt lat="50.42966" lon="3.27465">
        <ele>27.497777</ele>
        <time>2019-12-08T08:47:21.000Z</time>
      </trkpt>
      <trkpt lat="50.42966" lon="3.2748">
        <ele>27.566252</ele>
        <time>2019-12-08T08:47:23.000Z</time>
      </trkpt>
      <trkpt lat="50.42965" lon="3.27495">
        <ele>27.633886</ele>
        <time>2019-12-08T08:47:25.000Z</time>
      </trkpt>
      <trkpt lat="50.42965" lon="3.2751">
        <ele>27.699242</ele>
        <time>2019-12-08T08:47:27.000Z</time>
      </trkpt>
      <trkpt lat="50.42964" lon="3.2753">
        <ele>27.793329</ele>
        <time>2019-12-08T08:47:30.000Z</time>
      </trkpt>
      <trkpt lat="50.42963" lon="3.2755">
        <ele>27.883379</ele>
        <time>2019-12-08T08:47:33.000Z</time>
      </trkpt>
      <trkpt lat="50.42962" lon="3.2757">
        <ele>27.972678</ele>
        <time>2019-12-08T08:47:36.000Z</time>
      </trkpt>
      <trkpt lat="50.42962" lon="3.27591">
        <ele>28.066448</ele>
        <time>2019-12-08T08:47:39.000Z</time>
      </trkpt>
      <trkpt lat="50.42961" lon="3.27612">
        <ele>28.162121</ele>
        <time>2019-12-08T08:47:42.000Z</time>
      </trkpt>
      <trkpt lat="50.4296" lon="3.27627">
        <ele>28.098164</ele>
        <time>2019-12-08T08:47:44.000Z</time>
      </trkpt>
      <trkpt lat="50.4296" lon="3.27643">
        <ele>27.886717</ele>
        <time>2019-12-08T08:47:46.000Z</time>
      </trkpt>
      <trkpt lat="50.42959" lon="3.27657">
        <ele>27.688171</ele>
        <time>2019-12-08T08:47:48.000Z</time>
      </trkpt>
      <trkpt lat="50.42959" lon="3.27672">
        <ele>27.4835</ele>
        <time>2019-12-08T08:47:50.000Z</time>
      </trkpt>
      <trkpt lat="50.42958" lon="3.27692">
        <ele>27.207891</ele>
        <time>2019-12-08T08:47:53.000Z</time>
      </trkpt>
      <trkpt lat="50.42957" lon="3.27713">
        <ele>26.92434</ele>
        <time>2019-12-08T08:47:56.000Z</time>
      </trkpt>
      <trkpt lat="50.42957" lon="3.27728">
        <ele>26.723806</ele>
        <time>2019-12-08T08:47:58.000Z</time>
      </trkpt>
      <trkpt lat="50.42957" lon="3.27744">
        <ele>26.508266</ele>
        <time>2019-12-08T08:48:00.000Z</time>
      </trkpt>
      <trkpt lat="50.42957" lon="3.2776">
        <ele>26.289998</ele>
        <time>2019-12-08T08:48:02.000Z</time>
      </trkpt>
      <trkpt lat="50.42956" lon="3.27777">
        <ele>26.057841</ele>
        <time>2019-12-08T08:48:04.000Z</time>
      </trkpt>
      <trkpt lat="50.42956" lon="3.27792">
        <ele>25.843666</ele>
        <time>2019-12-08T08:48:06.000Z</time>
      </trkpt>
      <trkpt lat="50.42956" lon="3.27808">
        <ele>25.625356</ele>
        <time>2019-12-08T08:48:08.000Z</time>
      </trkpt>
      <trkpt lat="50.42956" lon="3.27826">
        <ele>25.385261</ele>
        <time>2019-12-08T08:48:10.000Z</time>
      </trkpt>
      <trkpt lat="50.42955" lon="3.27843">
        <ele>25.154079</ele>
        <time>2019-12-08T08:48:12.000Z</time>
      </trkpt>
      <trkpt lat="50.42955" lon="3.27859">
        <ele>24.93428</ele>
        <time>2019-12-08T08:48:14.000Z</time>
      </trkpt>
      <trkpt lat="50.42954" lon="3.27876">
        <ele>24.7061</ele>
        <time>2019-12-08T08:48:16.000Z</time>
      </trkpt>
      <trkpt lat="50.42953" lon="3.27892">
        <ele>24.47592</ele>
        <time>2019-12-08T08:48:18.000Z</time>
      </trkpt>
      <trkpt lat="50.42952" lon="3.2791">
        <ele>23.902449</ele>
        <time>2019-12-08T08:48:20.000Z</time>
      </trkpt>
      <trkpt lat="50.42952" lon="3.27926">
        <ele>22.975023</ele>
        <time>2019-12-08T08:48:22.000Z</time>
      </trkpt>
      <trkpt lat="50.42951" lon="3.27943">
        <ele>22.013299</ele>
        <time>2019-12-08T08:48:24.000Z</time>
      </trkpt>
      <trkpt lat="50.42951" lon="3.2796">
        <ele>21.029363</ele>
        <time>2019-12-08T08:48:26.000Z</time>
      </trkpt>
      <trkpt lat="50.42951" lon="3.27975">
        <ele>20.136776</ele>
        <time>2019-12-08T08:48:28.000Z</time>
      </trkpt>
      <trkpt lat="50.4295" lon="3.27992">
        <ele>19.202722</ele>
        <time>2019-12-08T08:48:30.000Z</time>
      </trkpt>
      <trkpt lat="50.42949" lon="3.28009">
        <ele>18.184465</ele>
        <time>2019-12-08T08:48:32.000Z</time>
      </trkpt>
      <trkpt lat="50.42948" lon="3.28027">
        <ele>17.192815</ele>
        <time>2019-12-08T08:48:34.000Z</time>
      </trkpt>
      <trkpt lat="50.42947" lon="3.28044">
        <ele>16.17773</ele>
        <time>2019-12-08T08:48:36.000Z</time>
      </trkpt>
      <trkpt lat="50.42946" lon="3.28061">
        <ele>15.213995</ele>
        <time>2019-12-08T08:48:38.000Z</time>
      </trkpt>
      <trkpt lat="50.42945" lon="3.28079">
        <ele>14.207113</ele>
        <time>2019-12-08T08:48:40.000Z</time>
      </trkpt>
      <trkpt lat="50.42945" lon="3.28096">
        <ele>13.223177</ele>
        <time>2019-12-08T08:48:42.000Z</time>
      </trkpt>
      <trkpt lat="50.42946" lon="3.28112">
        <ele>12.289645</ele>
        <time>2019-12-08T08:48:44.000Z</time>
      </trkpt>
      <trkpt lat="50.42945" lon="3.28128">
        <ele>11.360134</ele>
        <time>2019-12-08T08:48:46.000Z</time>
      </trkpt>
      <trkpt lat="50.42944" lon="3.28145">
        <ele>10.42699</ele>
        <time>2019-12-08T08:48:48.000Z</time>
      </trkpt>
      <trkpt lat="50.42944" lon="3.2816">
        <ele>9.528458</ele>
        <time>2019-12-08T08:48:50.000Z</time>
      </trkpt>
      <trkpt lat="50.42943" lon="3.28176">
        <ele>8.60308</ele>
        <time>2019-12-08T08:48:52.000Z</time>
      </trkpt>
      <trkpt lat="50.42942" lon="3.28191">
        <ele>8.50959</ele>
        <time>2019-12-08T08:48:54.000Z</time>
      </trkpt>
      <trkpt lat="50.42942" lon="3.28207">
        <ele>9.122208</ele>
        <time>2019-12-08T08:48:56.000Z</time>
      </trkpt>
      <trkpt lat="50.42941" lon="3.28222">
        <ele>9.711212</ele>
        <time>2019-12-08T08:48:58.000Z</time>
      </trkpt>
      <trkpt lat="50.42935" lon="3.28237">
        <ele>10.459067</ele>
        <time>2019-12-08T08:49:01.000Z</time>
      </trkpt>
      <trkpt lat="50.42924" lon="3.28245">
        <ele>11.20446</ele>
        <time>2019-12-08T08:49:04.000Z</time>
      </trkpt>
      <trkpt lat="50.42911" lon="3.28251">
        <ele>12.058977</ele>
        <time>2019-12-08T08:49:07.000Z</time>
      </trkpt>
      <trkpt lat="50.42902" lon="3.28254">
        <ele>12.643169</ele>
        <time>2019-12-08T08:49:09.000Z</time>
      </trkpt>
      <trkpt lat="50.42891" lon="3.28258">
        <ele>13.303588</ele>
        <time>2019-12-08T08:49:11.000Z</time>
      </trkpt>
      <trkpt lat="50.42882" lon="3.2826">
        <ele>13.902973</ele>
        <time>2019-12-08T08:49:13.000Z</time>
      </trkpt>
      <trkpt lat="50.42872" lon="3.28263">
        <ele>14.559129</ele>
        <time>2019-12-08T08:49:15.000Z</time>
      </trkpt>
      <trkpt lat="50.42861" lon="3.28266">
        <ele>15.234356</ele>
        <time>2019-12-08T08:49:17.000Z</time>
      </trkpt>
      <trkpt lat="50.42851" lon="3.28268">
        <ele>15.856098</ele>
        <time>2019-12-08T08:49:19.000Z</time>
      </trkpt>
      <trkpt lat="50.42841" lon="3.2827">
        <ele>16.466245</ele>
        <time>2019-12-08T08:49:21.000Z</time>
      </trkpt>
      <trkpt lat="50.42831" lon="3.28272">
        <ele>17.130924</ele>
        <time>2019-12-08T08:49:23.000Z</time>
      </trkpt>
      <trkpt lat="50.42818" lon="3.28274">
        <ele>17.94842</ele>
        <time>2019-12-08T08:49:26.000Z</time>
      </trkpt>
      <trkpt lat="50.42806" lon="3.2828">
        <ele>18.69765</ele>
        <time>2019-12-08T08:49:28.000Z</time>
      </trkpt>
      <trkpt lat="50.42793" lon="3.28287">
        <ele>19.403872</ele>
        <time>2019-12-08T08:49:30.000Z</time>
      </trkpt>
      <trkpt lat="50.42781" lon="3.28289">
        <ele>19.299299</ele>
        <time>2019-12-08T08:49:32.000Z</time>
      </trkpt>
      <trkpt lat="50.4277" lon="3.28291">
        <ele>19.207563</ele>
        <time>2019-12-08T08:49:34.000Z</time>
      </trkpt>
      <trkpt lat="50.4276" lon="3.28294">
        <ele>19.126966</ele>
        <time>2019-12-08T08:49:36.000Z</time>
      </trkpt>
      <trkpt lat="50.42749" lon="3.28296">
        <ele>19.038993</ele>
        <time>2019-12-08T08:49:38.000Z</time>
      </trkpt>
      <trkpt lat="50.42739" lon="3.28298">
        <ele>18.950439</ele>
        <time>2019-12-08T08:49:40.000Z</time>
      </trkpt>
      <trkpt lat="50.42728" lon="3.283">
        <ele>18.861365</ele>
        <time>2019-12-08T08:49:42.000Z</time>
      </trkpt>
      <trkpt lat="50.42719" lon="3.28303">
        <ele>18.788021</ele>
        <time>2019-12-08T08:49:44.000Z</time>
      </trkpt>
      <trkpt lat="50.4271" lon="3.28306">
        <ele>18.709844</ele>
        <time>2019-12-08T08:49:46.000Z</time>
      </trkpt>
      <trkpt lat="50.427" lon="3.28309">
        <ele>18.627631</ele>
        <time>2019-12-08T08:49:48.000Z</time>
      </trkpt>
      <trkpt lat="50.4269" lon="3.28312">
        <ele>18.541879</ele>
        <time>2019-12-08T08:49:50.000Z</time>
      </trkpt>
      <trkpt lat="50.4268" lon="3.28315">
        <ele>18.458501</ele>
        <time>2019-12-08T08:49:52.000Z</time>
      </trkpt>
      <trkpt lat="50.4267" lon="3.28318">
        <ele>18.374468</ele>
        <time>2019-12-08T08:49:54.000Z</time>
      </trkpt>
      <trkpt lat="50.42659" lon="3.28321">
        <ele>18.28271</ele>
        <time>2019-12-08T08:49:56.000Z</time>
      </trkpt>
      <trkpt lat="50.42648" lon="3.28323">
        <ele>18.188136</ele>
        <time>2019-12-08T08:49:58.000Z</time>
      </trkpt>
      <trkpt lat="50.42636" lon="3.28326">
        <ele>18.091499</ele>
        <time>2019-12-08T08:50:00.000Z</time>
      </trkpt>
      <trkpt lat="50.42625" lon="3.28329">
        <ele>17.999083</ele>
        <time>2019-12-08T08:50:02.000Z</time>
      </trkpt>
      <trkpt lat="50.42613" lon="3.28333">
        <ele>18.294004</ele>
        <time>2019-12-08T08:50:04.000Z</time>
      </trkpt>
      <trkpt lat="50.42601" lon="3.28336">
        <ele>19.15531</ele>
        <time>2019-12-08T08:50:06.000Z</time>
      </trkpt>
      <trkpt lat="50.4259" lon="3.28339">
        <ele>19.947627</ele>
        <time>2019-12-08T08:50:08.000Z</time>
      </trkpt>
      <trkpt lat="50.4258" lon="3.28341">
        <ele>20.680234</ele>
        <time>2019-12-08T08:50:10.000Z</time>
      </trkpt>
      <trkpt lat="50.4257" lon="3.28343">
        <ele>21.376414</ele>
        <time>2019-12-08T08:50:12.000Z</time>
      </trkpt>
      <trkpt lat="50.42561" lon="3.28345">
        <ele>22.050188</ele>
        <time>2019-12-08T08:50:14.000Z</time>
      </trkpt>
      <trkpt lat="50.42551" lon="3.28349">
        <ele>22.766045</ele>
        <time>2019-12-08T08:50:16.000Z</time>
      </trkpt>
      <trkpt lat="50.42538" lon="3.28353">
        <ele>23.683423</ele>
        <time>2019-12-08T08:50:19.000Z</time>
      </trkpt>
      <trkpt lat="50.42525" lon="3.28357">
        <ele>24.647</ele>
        <time>2019-12-08T08:50:22.000Z</time>
      </trkpt>
      <trkpt lat="50.42516" lon="3.28359">
        <ele>25.271837</ele>
        <time>2019-12-08T08:50:24.000Z</time>
      </trkpt>
      <trkpt lat="50.42503" lon="3.28362">
        <ele>26.201784</ele>
        <time>2019-12-08T08:50:27.000Z</time>
      </trkpt>
      <trkpt lat="50.42494" lon="3.28365">
        <ele>26.847582</ele>
        <time>2019-12-08T08:50:29.000Z</time>
      </trkpt>
      <trkpt lat="50.42485" lon="3.28367">
        <ele>27.512387</ele>
        <time>2019-12-08T08:50:31.000Z</time>
      </trkpt>
      <trkpt lat="50.42475" lon="3.28368">
        <ele>28.225256</ele>
        <time>2019-12-08T08:50:33.000Z</time>
      </trkpt>
      <trkpt lat="50.42465" lon="3.28371">
        <ele>28.919372</ele>
        <time>2019-12-08T08:50:35.000Z</time>
      </trkpt>
      <trkpt lat="50.42455" lon="3.28374">
        <ele>29.622304</ele>
        <time>2019-12-08T08:50:37.000Z</time>
      </trkpt>
      <trkpt lat="50.42446" lon="3.28377">
        <ele>30.308602</ele>
        <time>2019-12-08T08:50:39.000Z</time>
      </trkpt>
      <trkpt lat="50.42437" lon="3.2838">
        <ele>30.755416</ele>
        <time>2019-12-08T08:50:41.000Z</time>
      </trkpt>
      <trkpt lat="50.42423" lon="3.28383">
        <ele>31.018039</ele>
        <time>2019-12-08T08:50:44.000Z</time>
      </trkpt>
      <trkpt lat="50.42412" lon="3.28385">
        <ele>31.213881</ele>
        <time>2019-12-08T08:50:46.000Z</time>
      </trkpt>
      <trkpt lat="50.42402" lon="3.28388">
        <ele>31.401791</ele>
        <time>2019-12-08T08:50:48.000Z</time>
      </trkpt>
      <trkpt lat="50.42393" lon="3.28392">
        <ele>31.577772</ele>
        <time>2019-12-08T08:50:50.000Z</time>
      </trkpt>
      <trkpt lat="50.42382" lon="3.28395">
        <ele>31.77306</ele>
        <time>2019-12-08T08:50:52.000Z</time>
      </trkpt>
      <trkpt lat="50.42372" lon="3.28399">
        <ele>31.969132</ele>
        <time>2019-12-08T08:50:54.000Z</time>
      </trkpt>
      <trkpt lat="50.42358" lon="3.28404">
        <ele>32.227211</ele>
        <time>2019-12-08T08:50:57.000Z</time>
      </trkpt>
      <trkpt lat="50.42348" lon="3.28405">
        <ele>32.419523</ele>
        <time>2019-12-08T08:50:59.000Z</time>
      </trkpt>
      <trkpt lat="50.42337" lon="3.28408">
        <ele>32.61921</ele>
        <time>2019-12-08T08:51:01.000Z</time>
      </trkpt>
      <trkpt lat="50.42327" lon="3.28411">
        <ele>32.819825</ele>
        <time>2019-12-08T08:51:03.000Z</time>
      </trkpt>
      <trkpt lat="50.42313" lon="3.28415">
        <ele>33.075646</ele>
        <time>2019-12-08T08:51:05.000Z</time>
      </trkpt>
      <trkpt lat="50.42299" lon="3.28418">
        <ele>33.330955</ele>
        <time>2019-12-08T08:51:07.000Z</time>
      </trkpt>
      <trkpt lat="50.42287" lon="3.2842">
        <ele>33.56508</ele>
        <time>2019-12-08T08:51:09.000Z</time>
      </trkpt>
      <trkpt lat="50.42275" lon="3.28422">
        <ele>33.778906</ele>
        <time>2019-12-08T08:51:11.000Z</time>
      </trkpt>
      <trkpt lat="50.42265" lon="3.28425">
        <ele>33.978135</ele>
        <time>2019-12-08T08:51:13.000Z</time>
      </trkpt>
      <trkpt lat="50.42255" lon="3.28429">
        <ele>34.01044</ele>
        <time>2019-12-08T08:51:15.000Z</time>
      </trkpt>
      <trkpt lat="50.42246" lon="3.28432">
        <ele>34.02529</ele>
        <time>2019-12-08T08:51:17.000Z</time>
      </trkpt>
      <trkpt lat="50.42233" lon="3.28435">
        <ele>34.044685</ele>
        <time>2019-12-08T08:51:20.000Z</time>
      </trkpt>
      <trkpt lat="50.42222" lon="3.28437">
        <ele>34.060008</ele>
        <time>2019-12-08T08:51:22.000Z</time>
      </trkpt>
      <trkpt lat="50.42209" lon="3.28441">
        <ele>34.080451</ele>
        <time>2019-12-08T08:51:25.000Z</time>
      </trkpt>
      <trkpt lat="50.42199" lon="3.28442">
        <ele>34.094027</ele>
        <time>2019-12-08T08:51:27.000Z</time>
      </trkpt>
      <trkpt lat="50.42187" lon="3.28444">
        <ele>34.112732</ele>
        <time>2019-12-08T08:51:30.000Z</time>
      </trkpt>
      <trkpt lat="50.42174" lon="3.28446">
        <ele>34.13154</ele>
        <time>2019-12-08T08:51:33.000Z</time>
      </trkpt>
      <trkpt lat="50.42162" lon="3.28449">
        <ele>34.148895</ele>
        <time>2019-12-08T08:51:35.000Z</time>
      </trkpt>
      <trkpt lat="50.42152" lon="3.28451">
        <ele>34.164218</ele>
        <time>2019-12-08T08:51:37.000Z</time>
      </trkpt>
      <trkpt lat="50.42142" lon="3.28454">
        <ele>34.179647</ele>
        <time>2019-12-08T08:51:39.000Z</time>
      </trkpt>
      <trkpt lat="50.42132" lon="3.28457">
        <ele>34.194208</ele>
        <time>2019-12-08T08:51:41.000Z</time>
      </trkpt>
      <trkpt lat="50.42123" lon="3.28458">
        <ele>34.207528</ele>
        <time>2019-12-08T08:51:43.000Z</time>
      </trkpt>
      <trkpt lat="50.4211" lon="3.28461">
        <ele>34.226245</ele>
        <time>2019-12-08T08:51:46.000Z</time>
      </trkpt>
      <trkpt lat="50.42099" lon="3.28463">
        <ele>34.243769</ele>
        <time>2019-12-08T08:51:49.000Z</time>
      </trkpt>
      <trkpt lat="50.42088" lon="3.28464">
        <ele>34.259388</ele>
        <time>2019-12-08T08:51:53.000Z</time>
      </trkpt>
      <trkpt lat="50.42078" lon="3.28464">
        <ele>33.591725</ele>
        <time>2019-12-08T08:51:56.000Z</time>
      </trkpt>
      <trkpt lat="50.42069" lon="3.28467">
        <ele>32.732619</ele>
        <time>2019-12-08T08:51:58.000Z</time>
      </trkpt>
      <trkpt lat="50.42057" lon="3.2847">
        <ele>31.671071</ele>
        <time>2019-12-08T08:52:00.000Z</time>
      </trkpt>
      <trkpt lat="50.42044" lon="3.28471">
        <ele>30.540892</ele>
        <time>2019-12-08T08:52:02.000Z</time>
      </trkpt>
      <trkpt lat="50.42033" lon="3.28473">
        <ele>29.521365</ele>
        <time>2019-12-08T08:52:04.000Z</time>
      </trkpt>
      <trkpt lat="50.42022" lon="3.28474">
        <ele>28.602959</ele>
        <time>2019-12-08T08:52:06.000Z</time>
      </trkpt>
      <trkpt lat="50.42012" lon="3.28475">
        <ele>27.685759</ele>
        <time>2019-12-08T08:52:08.000Z</time>
      </trkpt>
      <trkpt lat="50.42002" lon="3.28475">
        <ele>26.79681</ele>
        <time>2019-12-08T08:52:10.000Z</time>
      </trkpt>
      <trkpt lat="50.41992" lon="3.28476">
        <ele>25.889381</ele>
        <time>2019-12-08T08:52:12.000Z</time>
      </trkpt>
      <trkpt lat="50.41982" lon="3.28477">
        <ele>25.017192</ele>
        <time>2019-12-08T08:52:14.000Z</time>
      </trkpt>
      <trkpt lat="50.41973" lon="3.28478">
        <ele>24.187832</ele>
        <time>2019-12-08T08:52:16.000Z</time>
      </trkpt>
      <trkpt lat="50.41964" lon="3.28479">
        <ele>23.377056</ele>
        <time>2019-12-08T08:52:18.000Z</time>
      </trkpt>
      <trkpt lat="50.41954" lon="3.28479">
        <ele>22.559294</ele>
        <time>2019-12-08T08:52:20.000Z</time>
      </trkpt>
      <trkpt lat="50.41942" lon="3.28481">
        <ele>21.471195</ele>
        <time>2019-12-08T08:52:23.000Z</time>
      </trkpt>
      <trkpt lat="50.41931" lon="3.28483">
        <ele>20.448134</ele>
        <time>2019-12-08T08:52:26.000Z</time>
      </trkpt>
      <trkpt lat="50.4192" lon="3.28483">
        <ele>19.461175</ele>
        <time>2019-12-08T08:52:29.000Z</time>
      </trkpt>
      <trkpt lat="50.4191" lon="3.28482">
        <ele>18.598382</ele>
        <time>2019-12-08T08:52:32.000Z</time>
      </trkpt>
      <trkpt lat="50.419" lon="3.28484">
        <ele>18.423638</ele>
        <time>2019-12-08T08:52:35.000Z</time>
      </trkpt>
      <trkpt lat="50.41889" lon="3.28484">
        <ele>18.699742</ele>
        <time>2019-12-08T08:52:38.000Z</time>
      </trkpt>
      <trkpt lat="50.4188" lon="3.28486">
        <ele>18.918778</ele>
        <time>2019-12-08T08:52:40.000Z</time>
      </trkpt>
      <trkpt lat="50.41871" lon="3.28486">
        <ele>19.139703</ele>
        <time>2019-12-08T08:52:42.000Z</time>
      </trkpt>
      <trkpt lat="50.41861" lon="3.28487">
        <ele>19.360708</ele>
        <time>2019-12-08T08:52:44.000Z</time>
      </trkpt>
      <trkpt lat="50.41852" lon="3.28488">
        <ele>19.584655</ele>
        <time>2019-12-08T08:52:46.000Z</time>
      </trkpt>
      <trkpt lat="50.41842" lon="3.28489">
        <ele>19.817816</ele>
        <time>2019-12-08T08:52:48.000Z</time>
      </trkpt>
      <trkpt lat="50.41833" lon="3.28491">
        <ele>20.042762</ele>
        <time>2019-12-08T08:52:50.000Z</time>
      </trkpt>
      <trkpt lat="50.41821" lon="3.28494">
        <ele>20.333112</ele>
        <time>2019-12-08T08:52:53.000Z</time>
      </trkpt>
      <trkpt lat="50.41812" lon="3.28496">
        <ele>20.551824</ele>
        <time>2019-12-08T08:52:55.000Z</time>
      </trkpt>
      <trkpt lat="50.41803" lon="3.28498">
        <ele>20.770536</ele>
        <time>2019-12-08T08:52:57.000Z</time>
      </trkpt>
      <trkpt lat="50.41791" lon="3.28501">
        <ele>21.065643</ele>
        <time>2019-12-08T08:53:00.000Z</time>
      </trkpt>
      <trkpt lat="50.41781" lon="3.28503">
        <ele>21.299051</ele>
        <time>2019-12-08T08:53:02.000Z</time>
      </trkpt>
      <trkpt lat="50.41772" lon="3.28506">
        <ele>21.530619</ele>
        <time>2019-12-08T08:53:04.000Z</time>
      </trkpt>
      <trkpt lat="50.41762" lon="3.28508">
        <ele>21.765918</ele>
        <time>2019-12-08T08:53:06.000Z</time>
      </trkpt>
      <trkpt lat="50.41753" lon="3.28511">
        <ele>21.984881</ele>
        <time>2019-12-08T08:53:08.000Z</time>
      </trkpt>
      <trkpt lat="50.41743" lon="3.28512">
        <ele>22.225979</ele>
        <time>2019-12-08T08:53:10.000Z</time>
      </trkpt>
      <trkpt lat="50.41733" lon="3.28514">
        <ele>22.467236</ele>
        <time>2019-12-08T08:53:12.000Z</time>
      </trkpt>
      <trkpt lat="50.41723" lon="3.28516">
        <ele>22.843612</ele>
        <time>2019-12-08T08:53:14.000Z</time>
      </trkpt>
      <trkpt lat="50.41712" lon="3.28517">
        <ele>23.463668</ele>
        <time>2019-12-08T08:53:16.000Z</time>
      </trkpt>
      <trkpt lat="50.41702" lon="3.28518">
        <ele>24.041758</ele>
        <time>2019-12-08T08:53:18.000Z</time>
      </trkpt>
      <trkpt lat="50.4169" lon="3.2852">
        <ele>24.674471</ele>
        <time>2019-12-08T08:53:20.000Z</time>
      </trkpt>
      <trkpt lat="50.41679" lon="3.28521">
        <ele>25.257436</ele>
        <time>2019-12-08T08:53:22.000Z</time>
      </trkpt>
      <trkpt lat="50.41668" lon="3.28523">
        <ele>25.886007</ele>
        <time>2019-12-08T08:53:24.000Z</time>
      </trkpt>
      <trkpt lat="50.41657" lon="3.28525">
        <ele>26.519674</ele>
        <time>2019-12-08T08:53:26.000Z</time>
      </trkpt>
      <trkpt lat="50.41646" lon="3.28526">
        <ele>27.086241</ele>
        <time>2019-12-08T08:53:28.000Z</time>
      </trkpt>
      <trkpt lat="50.41637" lon="3.28528">
        <ele>27.596495</ele>
        <time>2019-12-08T08:53:30.000Z</time>
      </trkpt>
      <trkpt lat="50.41628" lon="3.28529">
        <ele>28.117668</ele>
        <time>2019-12-08T08:53:32.000Z</time>
      </trkpt>
      <trkpt lat="50.41618" lon="3.2853">
        <ele>28.662096</ele>
        <time>2019-12-08T08:53:34.000Z</time>
      </trkpt>
      <trkpt lat="50.41608" lon="3.28532">
        <ele>29.209387</ele>
        <time>2019-12-08T08:53:36.000Z</time>
      </trkpt>
      <trkpt lat="50.41599" lon="3.28533">
        <ele>29.715027</ele>
        <time>2019-12-08T08:53:38.000Z</time>
      </trkpt>
      <trkpt lat="50.41589" lon="3.28534">
        <ele>30.216038</ele>
        <time>2019-12-08T08:53:40.000Z</time>
      </trkpt>
      <trkpt lat="50.41579" lon="3.28535">
        <ele>30.80421</ele>
        <time>2019-12-08T08:53:42.000Z</time>
      </trkpt>
      <trkpt lat="50.41568" lon="3.28537">
        <ele>31.392641</ele>
        <time>2019-12-08T08:53:44.000Z</time>
      </trkpt>
      <trkpt lat="50.41557" lon="3.28538">
        <ele>31.998683</ele>
        <time>2019-12-08T08:53:46.000Z</time>
      </trkpt>
      <trkpt lat="50.41547" lon="3.2854">
        <ele>32.352097</ele>
        <time>2019-12-08T08:53:48.000Z</time>
      </trkpt>
      <trkpt lat="50.41536" lon="3.28541">
        <ele>31.744995</ele>
        <time>2019-12-08T08:53:50.000Z</time>
      </trkpt>
      <trkpt lat="50.41526" lon="3.28543">
        <ele>31.141463</ele>
        <time>2019-12-08T08:53:52.000Z</time>
      </trkpt>
      <trkpt lat="50.41515" lon="3.28545">
        <ele>30.553903</ele>
        <time>2019-12-08T08:53:54.000Z</time>
      </trkpt>
      <trkpt lat="50.41505" lon="3.28547">
        <ele>29.946512</ele>
        <time>2019-12-08T08:53:56.000Z</time>
      </trkpt>
      <trkpt lat="50.41494" lon="3.28548">
        <ele>29.317931</ele>
        <time>2019-12-08T08:53:58.000Z</time>
      </trkpt>
      <trkpt lat="50.41481" lon="3.28549">
        <ele>28.58104</ele>
        <time>2019-12-08T08:54:00.000Z</time>
      </trkpt>
      <trkpt lat="50.41468" lon="3.2855">
        <ele>27.88878</ele>
        <time>2019-12-08T08:54:02.000Z</time>
      </trkpt>
      <trkpt lat="50.41455" lon="3.28551">
        <ele>27.130058</ele>
        <time>2019-12-08T08:54:04.000Z</time>
      </trkpt>
      <trkpt lat="50.41443" lon="3.28553">
        <ele>26.44741</ele>
        <time>2019-12-08T08:54:06.000Z</time>
      </trkpt>
      <trkpt lat="50.41431" lon="3.28555">
        <ele>25.765485</ele>
        <time>2019-12-08T08:54:08.000Z</time>
      </trkpt>
      <trkpt lat="50.41419" lon="3.28557">
        <ele>25.095782</ele>
        <time>2019-12-08T08:54:10.000Z</time>
      </trkpt>
      <trkpt lat="50.41407" lon="3.28558">
        <ele>24.425457</ele>
        <time>2019-12-08T08:54:12.000Z</time>
      </trkpt>
      <trkpt lat="50.41396" lon="3.2856">
        <ele>23.795215</ele>
        <time>2019-12-08T08:54:14.000Z</time>
      </trkpt>
      <trkpt lat="50.41385" lon="3.28561">
        <ele>23.154967</ele>
        <time>2019-12-08T08:54:16.000Z</time>
      </trkpt>
      <trkpt lat="50.41375" lon="3.28562">
        <ele>22.565312</ele>
        <time>2019-12-08T08:54:18.000Z</time>
      </trkpt>
      <trkpt lat="50.41365" lon="3.28563">
        <ele>22.039141</ele>
        <time>2019-12-08T08:54:20.000Z</time>
      </trkpt>
      <trkpt lat="50.41354" lon="3.28565">
        <ele>21.530837</ele>
        <time>2019-12-08T08:54:22.000Z</time>
      </trkpt>
      <trkpt lat="50.41345" lon="3.28567">
        <ele>21.040348</ele>
        <time>2019-12-08T08:54:24.000Z</time>
      </trkpt>
      <trkpt lat="50.41334" lon="3.28568">
        <ele>20.512181</ele>
        <time>2019-12-08T08:54:26.000Z</time>
      </trkpt>
      <trkpt lat="50.41323" lon="3.28569">
        <ele>19.980734</ele>
        <time>2019-12-08T08:54:28.000Z</time>
      </trkpt>
      <trkpt lat="50.41313" lon="3.2857">
        <ele>19.478542</ele>
        <time>2019-12-08T08:54:30.000Z</time>
      </trkpt>
      <trkpt lat="50.41303" lon="3.28571">
        <ele>18.972063</ele>
        <time>2019-12-08T08:54:32.000Z</time>
      </trkpt>
      <trkpt lat="50.41292" lon="3.28572">
        <ele>18.455641</ele>
        <time>2019-12-08T08:54:34.000Z</time>
      </trkpt>
      <trkpt lat="50.41282" lon="3.28573">
        <ele>17.96257</ele>
        <time>2019-12-08T08:54:36.000Z</time>
      </trkpt>
      <trkpt lat="50.41272" lon="3.28575">
        <ele>17.448761</ele>
        <time>2019-12-08T08:54:38.000Z</time>
      </trkpt>
      <trkpt lat="50.41261" lon="3.28576">
        <ele>16.925776</ele>
        <time>2019-12-08T08:54:40.000Z</time>
      </trkpt>
      <trkpt lat="50.41251" lon="3.28577">
        <ele>16.432705</ele>
        <time>2019-12-08T08:54:42.000Z</time>
      </trkpt>
      <trkpt lat="50.41241" lon="3.28579">
        <ele>15.939883</ele>
        <time>2019-12-08T08:54:44.000Z</time>
      </trkpt>
      <trkpt lat="50.41231" lon="3.2858">
        <ele>15.44706</ele>
        <time>2019-12-08T08:54:46.000Z</time>
      </trkpt>
      <trkpt lat="50.41221" lon="3.28581">
        <ele>14.963782</ele>
        <time>2019-12-08T08:54:48.000Z</time>
      </trkpt>
      <trkpt lat="50.41211" lon="3.28583">
        <ele>14.474404</ele>
        <time>2019-12-08T08:54:50.000Z</time>
      </trkpt>
      <trkpt lat="50.41202" lon="3.28584">
        <ele>14.005814</ele>
        <time>2019-12-08T08:54:52.000Z</time>
      </trkpt>
      <trkpt lat="50.41192" lon="3.28585">
        <ele>13.498717</ele>
        <time>2019-12-08T08:54:54.000Z</time>
      </trkpt>
      <trkpt lat="50.41181" lon="3.28587">
        <ele>13.893254</ele>
        <time>2019-12-08T08:54:56.000Z</time>
      </trkpt>
      <trkpt lat="50.41171" lon="3.28588">
        <ele>14.404408</ele>
        <time>2019-12-08T08:54:58.000Z</time>
      </trkpt>
      <trkpt lat="50.4116" lon="3.28589">
        <ele>14.916085</ele>
        <time>2019-12-08T08:55:00.000Z</time>
      </trkpt>
      <trkpt lat="50.4115" lon="3.28591">
        <ele>15.403318</ele>
        <time>2019-12-08T08:55:02.000Z</time>
      </trkpt>
      <trkpt lat="50.41141" lon="3.28592">
        <ele>15.855932</ele>
        <time>2019-12-08T08:55:04.000Z</time>
      </trkpt>
      <trkpt lat="50.41132" lon="3.28593">
        <ele>16.299116</ele>
        <time>2019-12-08T08:55:06.000Z</time>
      </trkpt>
      <trkpt lat="50.41118" lon="3.28596">
        <ele>16.964392</ele>
        <time>2019-12-08T08:55:09.000Z</time>
      </trkpt>
      <trkpt lat="50.41105" lon="3.28599">
        <ele>17.589122</ele>
        <time>2019-12-08T08:55:12.000Z</time>
      </trkpt>
      <trkpt lat="50.41092" lon="3.28602">
        <ele>18.224738</ele>
        <time>2019-12-08T08:55:15.000Z</time>
      </trkpt>
      <trkpt lat="50.41083" lon="3.28603">
        <ele>18.677595</ele>
        <time>2019-12-08T08:55:17.000Z</time>
      </trkpt>
      <trkpt lat="50.41074" lon="3.28604">
        <ele>19.096342</ele>
        <time>2019-12-08T08:55:19.000Z</time>
      </trkpt>
      <trkpt lat="50.41065" lon="3.28605">
        <ele>19.544917</ele>
        <time>2019-12-08T08:55:21.000Z</time>
      </trkpt>
      <trkpt lat="50.41056" lon="3.28607">
        <ele>20.007706</ele>
        <time>2019-12-08T08:55:23.000Z</time>
      </trkpt>
      <trkpt lat="50.41046" lon="3.28608">
        <ele>20.481732</ele>
        <time>2019-12-08T08:55:25.000Z</time>
      </trkpt>
      <trkpt lat="50.41037" lon="3.2861">
        <ele>20.922442</ele>
        <time>2019-12-08T08:55:27.000Z</time>
      </trkpt>
      <trkpt lat="50.41024" lon="3.28613">
        <ele>21.559253</ele>
        <time>2019-12-08T08:55:30.000Z</time>
      </trkpt>
      <trkpt lat="50.41014" lon="3.28615">
        <ele>22.049305</ele>
        <time>2019-12-08T08:55:33.000Z</time>
      </trkpt>
      <trkpt lat="50.41005" lon="3.2861">
        <ele>22.371686</ele>
        <time>2019-12-08T08:55:38.000Z</time>
      </trkpt>
      <trkpt lat="50.40995" lon="3.28612">
        <ele>22.670681</ele>
        <time>2019-12-08T08:55:42.000Z</time>
      </trkpt>
      <trkpt lat="50.40985" lon="3.28624">
        <ele>23.011237</ele>
        <time>2019-12-08T08:55:45.000Z</time>
      </trkpt>
      <trkpt lat="50.40977" lon="3.28636">
        <ele>23.341267</ele>
        <time>2019-12-08T08:55:48.000Z</time>
      </trkpt>
      <trkpt lat="50.40968" lon="3.28649">
        <ele>23.67714</ele>
        <time>2019-12-08T08:55:51.000Z</time>
      </trkpt>
      <trkpt lat="50.40958" lon="3.28663">
        <ele>24.054121</ele>
        <time>2019-12-08T08:55:54.000Z</time>
      </trkpt>
      <trkpt lat="50.4095" lon="3.28677">
        <ele>24.407022</ele>
        <time>2019-12-08T08:55:57.000Z</time>
      </trkpt>
      <trkpt lat="50.40943" lon="3.28692">
        <ele>24.73804</ele>
        <time>2019-12-08T08:56:00.000Z</time>
      </trkpt>
      <trkpt lat="50.40936" lon="3.28705">
        <ele>25.04598</ele>
        <time>2019-12-08T08:56:03.000Z</time>
      </trkpt>
      <trkpt lat="50.40928" lon="3.28715">
        <ele>25.337587</ele>
        <time>2019-12-08T08:56:06.000Z</time>
      </trkpt>
      <trkpt lat="50.40921" lon="3.28725">
        <ele>25.595356</ele>
        <time>2019-12-08T08:56:10.000Z</time>
      </trkpt>
      <trkpt lat="50.40914" lon="3.28737">
        <ele>25.902241</ele>
        <time>2019-12-08T08:56:15.000Z</time>
      </trkpt>
      <trkpt lat="50.4091" lon="3.28751">
        <ele>26.177214</ele>
        <time>2019-12-08T08:56:21.000Z</time>
      </trkpt>
      <trkpt lat="50.40903" lon="3.28765">
        <ele>26.509491</ele>
        <time>2019-12-08T08:56:25.000Z</time>
      </trkpt>
      <trkpt lat="50.40896" lon="3.2878">
        <ele>26.846291</ele>
        <time>2019-12-08T08:56:28.000Z</time>
      </trkpt>
      <trkpt lat="50.4089" lon="3.2879">
        <ele>27.105302</ele>
        <time>2019-12-08T08:56:30.000Z</time>
      </trkpt>
      <trkpt lat="50.40884" lon="3.28802">
        <ele>27.358242</ele>
        <time>2019-12-08T08:56:32.000Z</time>
      </trkpt>
      <trkpt lat="50.40876" lon="3.28818">
        <ele>27.648428</ele>
        <time>2019-12-08T08:56:35.000Z</time>
      </trkpt>
      <trkpt lat="50.40869" lon="3.28831">
        <ele>27.901512</ele>
        <time>2019-12-08T08:56:38.000Z</time>
      </trkpt>
      <trkpt lat="50.40861" lon="3.28847">
        <ele>28.194961</ele>
        <time>2019-12-08T08:56:41.000Z</time>
      </trkpt>
      <trkpt lat="50.40855" lon="3.28859">
        <ele>28.413599</ele>
        <time>2019-12-08T08:56:43.000Z</time>
      </trkpt>
      <trkpt lat="50.4085" lon="3.28871">
        <ele>28.626604</ele>
        <time>2019-12-08T08:56:45.000Z</time>
      </trkpt>
      <trkpt lat="50.40843" lon="3.28883">
        <ele>28.857845</ele>
        <time>2019-12-08T08:56:47.000Z</time>
      </trkpt>
      <trkpt lat="50.40837" lon="3.28895">
        <ele>29.084655</ele>
        <time>2019-12-08T08:56:49.000Z</time>
      </trkpt>
      <trkpt lat="50.4083" lon="3.28906">
        <ele>29.308035</ele>
        <time>2019-12-08T08:56:51.000Z</time>
      </trkpt>
      <trkpt lat="50.40823" lon="3.28917">
        <ele>29.537196</ele>
        <time>2019-12-08T08:56:53.000Z</time>
      </trkpt>
      <trkpt lat="50.40815" lon="3.2893">
        <ele>29.790535</ele>
        <time>2019-12-08T08:56:55.000Z</time>
      </trkpt>
      <trkpt lat="50.40809" lon="3.28943">
        <ele>30.038799</ele>
        <time>2019-12-08T08:56:57.000Z</time>
      </trkpt>
      <trkpt lat="50.40803" lon="3.28955">
        <ele>30.257609</ele>
        <time>2019-12-08T08:56:59.000Z</time>
      </trkpt>
      <trkpt lat="50.40796" lon="3.28968">
        <ele>30.494476</ele>
        <time>2019-12-08T08:57:01.000Z</time>
      </trkpt>
      <trkpt lat="50.40789" lon="3.2898">
        <ele>30.738892</ele>
        <time>2019-12-08T08:57:03.000Z</time>
      </trkpt>
      <trkpt lat="50.40782" lon="3.28992">
        <ele>30.974389</ele>
        <time>2019-12-08T08:57:05.000Z</time>
      </trkpt>
      <trkpt lat="50.40775" lon="3.29004">
        <ele>31.20882</ele>
        <time>2019-12-08T08:57:07.000Z</time>
      </trkpt>
      <trkpt lat="50.40767" lon="3.29016">
        <ele>31.25179</ele>
        <time>2019-12-08T08:57:09.000Z</time>
      </trkpt>
      <trkpt lat="50.4076" lon="3.29028">
        <ele>30.754623</ele>
        <time>2019-12-08T08:57:11.000Z</time>
      </trkpt>
      <trkpt lat="50.40754" lon="3.29038">
        <ele>30.312033</ele>
        <time>2019-12-08T08:57:13.000Z</time>
      </trkpt>
      <trkpt lat="50.40748" lon="3.2905">
        <ele>29.834691</ele>
        <time>2019-12-08T08:57:15.000Z</time>
      </trkpt>
      <trkpt lat="50.40741" lon="3.29061">
        <ele>29.33723</ele>
        <time>2019-12-08T08:57:17.000Z</time>
      </trkpt>
      <trkpt lat="50.40735" lon="3.29074">
        <ele>28.827061</ele>
        <time>2019-12-08T08:57:19.000Z</time>
      </trkpt>
      <trkpt lat="50.40728" lon="3.29087">
        <ele>28.301001</ele>
        <time>2019-12-08T08:57:21.000Z</time>
      </trkpt>
      <trkpt lat="50.40723" lon="3.291">
        <ele>27.817189</ele>
        <time>2019-12-08T08:57:23.000Z</time>
      </trkpt>
      <trkpt lat="50.40717" lon="3.29113">
        <ele>27.301399</ele>
        <time>2019-12-08T08:57:25.000Z</time>
      </trkpt>
      <trkpt lat="50.40711" lon="3.29126">
        <ele>26.818209</ele>
        <time>2019-12-08T08:57:27.000Z</time>
      </trkpt>
      <trkpt lat="50.40707" lon="3.29138">
        <ele>26.366579</ele>
        <time>2019-12-08T08:57:29.000Z</time>
      </trkpt>
      <trkpt lat="50.40702" lon="3.2915">
        <ele>25.923256</ele>
        <time>2019-12-08T08:57:31.000Z</time>
      </trkpt>
      <trkpt lat="50.40696" lon="3.29161">
        <ele>25.476031</ele>
        <time>2019-12-08T08:57:33.000Z</time>
      </trkpt>
      <trkpt lat="50.40688" lon="3.29171">
        <ele>24.982637</ele>
        <time>2019-12-08T08:57:35.000Z</time>
      </trkpt>
      <trkpt lat="50.40681" lon="3.29183">
        <ele>24.450113</ele>
        <time>2019-12-08T08:57:37.000Z</time>
      </trkpt>
      <trkpt lat="50.40674" lon="3.29196">
        <ele>23.928725</ele>
        <time>2019-12-08T08:57:39.000Z</time>
      </trkpt>
      <trkpt lat="50.40667" lon="3.29209">
        <ele>23.402455</ele>
        <time>2019-12-08T08:57:41.000Z</time>
      </trkpt>
      <trkpt lat="50.40661" lon="3.29222">
        <ele>22.886661</ele>
        <time>2019-12-08T08:57:43.000Z</time>
      </trkpt>
      <trkpt lat="50.40656" lon="3.29235">
        <ele>22.362619</ele>
        <time>2019-12-08T08:57:45.000Z</time>
      </trkpt>
      <trkpt lat="50.40649" lon="3.29248">
        <ele>21.747705</ele>
        <time>2019-12-08T08:57:47.000Z</time>
      </trkpt>
      <trkpt lat="50.40643" lon="3.2926">
        <ele>21.133725</ele>
        <time>2019-12-08T08:57:49.000Z</time>
      </trkpt>
      <trkpt lat="50.40636" lon="3.29272">
        <ele>20.521618</ele>
        <time>2019-12-08T08:57:51.000Z</time>
      </trkpt>
      <trkpt lat="50.4063" lon="3.29283">
        <ele>19.942836</ele>
        <time>2019-12-08T08:57:53.000Z</time>
      </trkpt>
      <trkpt lat="50.40623" lon="3.29295">
        <ele>19.32076</ele>
        <time>2019-12-08T08:57:55.000Z</time>
      </trkpt>
      <trkpt lat="50.40616" lon="3.29305">
        <ele>18.746236</ele>
        <time>2019-12-08T08:57:57.000Z</time>
      </trkpt>
      <trkpt lat="50.40608" lon="3.29316">
        <ele>18.120183</ele>
        <time>2019-12-08T08:57:59.000Z</time>
      </trkpt>
      <trkpt lat="50.40601" lon="3.29326">
        <ele>17.526436</ele>
        <time>2019-12-08T08:58:01.000Z</time>
      </trkpt>
      <trkpt lat="50.40593" lon="3.29336">
        <ele>16.910665</ele>
        <time>2019-12-08T08:58:03.000Z</time>
      </trkpt>
      <trkpt lat="50.40585" lon="3.29346">
        <ele>16.311564</ele>
        <time>2019-12-08T08:58:05.000Z</time>
      </trkpt>
      <trkpt lat="50.40577" lon="3.29356">
        <ele>15.676666</ele>
        <time>2019-12-08T08:58:07.000Z</time>
      </trkpt>
      <trkpt lat="50.40569" lon="3.29366">
        <ele>15.056104</ele>
        <time>2019-12-08T08:58:09.000Z</time>
      </trkpt>
      <trkpt lat="50.40562" lon="3.29377">
        <ele>14.44204</ele>
        <time>2019-12-08T08:58:11.000Z</time>
      </trkpt>
      <trkpt lat="50.40555" lon="3.29387">
        <ele>13.867513</ele>
        <time>2019-12-08T08:58:13.000Z</time>
      </trkpt>
      <trkpt lat="50.40546" lon="3.29396">
        <ele>13.220007</ele>
        <time>2019-12-08T08:58:15.000Z</time>
      </trkpt>
      <trkpt lat="50.40538" lon="3.29405">
        <ele>12.617738</ele>
        <time>2019-12-08T08:58:17.000Z</time>
      </trkpt>
      <trkpt lat="50.40529" lon="3.29413">
        <ele>12.012139</ele>
        <time>2019-12-08T08:58:19.000Z</time>
      </trkpt>
      <trkpt lat="50.40521" lon="3.29422">
        <ele>11.721535</ele>
        <time>2019-12-08T08:58:21.000Z</time>
      </trkpt>
      <trkpt lat="50.40512" lon="3.2943">
        <ele>12.159006</ele>
        <time>2019-12-08T08:58:23.000Z</time>
      </trkpt>
      <trkpt lat="50.40503" lon="3.29439">
        <ele>12.612445</ele>
        <time>2019-12-08T08:58:25.000Z</time>
      </trkpt>
      <trkpt lat="50.40493" lon="3.29447">
        <ele>13.056898</ele>
        <time>2019-12-08T08:58:27.000Z</time>
      </trkpt>
      <trkpt lat="50.40484" lon="3.29455">
        <ele>13.473539</ele>
        <time>2019-12-08T08:58:29.000Z</time>
      </trkpt>
      <trkpt lat="50.40476" lon="3.29462">
        <ele>13.847358</ele>
        <time>2019-12-08T08:58:31.000Z</time>
      </trkpt>
      <trkpt lat="50.40466" lon="3.2947">
        <ele>14.321012</ele>
        <time>2019-12-08T08:58:34.000Z</time>
      </trkpt>
      <trkpt lat="50.40457" lon="3.29476">
        <ele>14.724115</ele>
        <time>2019-12-08T08:58:38.000Z</time>
      </trkpt>
      <trkpt lat="50.40448" lon="3.29475">
        <ele>15.112494</ele>
        <time>2019-12-08T08:58:45.000Z</time>
      </trkpt>
      <trkpt lat="50.40438" lon="3.29483">
        <ele>15.571543</ele>
        <time>2019-12-08T08:58:49.000Z</time>
      </trkpt>
      <trkpt lat="50.40426" lon="3.2949">
        <ele>16.078123</ele>
        <time>2019-12-08T08:58:52.000Z</time>
      </trkpt>
      <trkpt lat="50.40417" lon="3.29494">
        <ele>16.474278</ele>
        <time>2019-12-08T08:58:54.000Z</time>
      </trkpt>
      <trkpt lat="50.40408" lon="3.29497">
        <ele>16.855882</ele>
        <time>2019-12-08T08:58:56.000Z</time>
      </trkpt>
      <trkpt lat="50.40395" lon="3.29502">
        <ele>17.408271</ele>
        <time>2019-12-08T08:58:59.000Z</time>
      </trkpt>
      <trkpt lat="50.40385" lon="3.29508">
        <ele>17.849609</ele>
        <time>2019-12-08T08:59:01.000Z</time>
      </trkpt>
      <trkpt lat="50.40376" lon="3.29514">
        <ele>18.270786</ele>
        <time>2019-12-08T08:59:03.000Z</time>
      </trkpt>
      <trkpt lat="50.40366" lon="3.29519">
        <ele>18.680624</ele>
        <time>2019-12-08T08:59:05.000Z</time>
      </trkpt>
      <trkpt lat="50.40356" lon="3.29523">
        <ele>19.138449</ele>
        <time>2019-12-08T08:59:07.000Z</time>
      </trkpt>
      <trkpt lat="50.40348" lon="3.29526">
        <ele>19.750385</ele>
        <time>2019-12-08T08:59:09.000Z</time>
      </trkpt>
      <trkpt lat="50.40335" lon="3.29531">
        <ele>20.662458</ele>
        <time>2019-12-08T08:59:12.000Z</time>
      </trkpt>
      <trkpt lat="50.40323" lon="3.29536">
        <ele>21.52793</ele>
        <time>2019-12-08T08:59:15.000Z</time>
      </trkpt>
      <trkpt lat="50.40311" lon="3.29538">
        <ele>22.341992</ele>
        <time>2019-12-08T08:59:18.000Z</time>
      </trkpt>
      <trkpt lat="50.40297" lon="3.29538">
        <ele>23.25812</ele>
        <time>2019-12-08T08:59:21.000Z</time>
      </trkpt>
      <trkpt lat="50.40286" lon="3.2954">
        <ele>24.068254</ele>
        <time>2019-12-08T08:59:23.000Z</time>
      </trkpt>
      <trkpt lat="50.40275" lon="3.29541">
        <ele>24.788017</ele>
        <time>2019-12-08T08:59:25.000Z</time>
      </trkpt>
      <trkpt lat="50.40265" lon="3.29543">
        <ele>25.45484</ele>
        <time>2019-12-08T08:59:27.000Z</time>
      </trkpt>
      <trkpt lat="50.40256" lon="3.29543">
        <ele>26.09072</ele>
        <time>2019-12-08T08:59:29.000Z</time>
      </trkpt>
      <trkpt lat="50.40245" lon="3.29543">
        <ele>26.863325</ele>
        <time>2019-12-08T08:59:32.000Z</time>
      </trkpt>
      <trkpt lat="50.40232" lon="3.29545">
        <ele>27.73439</ele>
        <time>2019-12-08T08:59:35.000Z</time>
      </trkpt>
      <trkpt lat="50.40222" lon="3.29545">
        <ele>28.431741</ele>
        <time>2019-12-08T08:59:38.000Z</time>
      </trkpt>
      <trkpt lat="50.4021" lon="3.29543">
        <ele>29.224334</ele>
        <time>2019-12-08T08:59:41.000Z</time>
      </trkpt>
      <trkpt lat="50.402" lon="3.29541">
        <ele>29.933894</ele>
        <time>2019-12-08T08:59:45.000Z</time>
      </trkpt>
      <trkpt lat="50.40191" lon="3.29541">
        <ele>30.550191</ele>
        <time>2019-12-08T08:59:47.000Z</time>
      </trkpt>
      <trkpt lat="50.40179" lon="3.29541">
        <ele>31.291677</ele>
        <time>2019-12-08T08:59:50.000Z</time>
      </trkpt>
      <trkpt lat="50.40168" lon="3.29544">
        <ele>31.145586</ele>
        <time>2019-12-08T08:59:55.000Z</time>
      </trkpt>
      <trkpt lat="50.40163" lon="3.29532">
        <ele>31.016607</ele>
        <time>2019-12-08T09:00:03.000Z</time>
      </trkpt>
      <trkpt lat="50.40164" lon="3.29513">
        <ele>30.841392</ele>
        <time>2019-12-08T09:00:07.000Z</time>
      </trkpt>
      <trkpt lat="50.40165" lon="3.29494">
        <ele>30.670964</ele>
        <time>2019-12-08T09:00:10.000Z</time>
      </trkpt>
      <trkpt lat="50.40166" lon="3.29475">
        <ele>30.50288</ele>
        <time>2019-12-08T09:00:13.000Z</time>
      </trkpt>
      <trkpt lat="50.40166" lon="3.29456">
        <ele>30.33456</ele>
        <time>2019-12-08T09:00:16.000Z</time>
      </trkpt>
      <trkpt lat="50.40167" lon="3.29442">
        <ele>30.204911</ele>
        <time>2019-12-08T09:00:18.000Z</time>
      </trkpt>
      <trkpt lat="50.40167" lon="3.29422">
        <ele>30.030378</ele>
        <time>2019-12-08T09:00:21.000Z</time>
      </trkpt>
      <trkpt lat="50.40166" lon="3.29403">
        <ele>29.859742</ele>
        <time>2019-12-08T09:00:24.000Z</time>
      </trkpt>
      <trkpt lat="50.40166" lon="3.29383">
        <ele>29.679789</ele>
        <time>2019-12-08T09:00:27.000Z</time>
      </trkpt>
      <trkpt lat="50.40166" lon="3.29368">
        <ele>29.545467</ele>
        <time>2019-12-08T09:00:29.000Z</time>
      </trkpt>
      <trkpt lat="50.40167" lon="3.29352">
        <ele>29.402161</ele>
        <time>2019-12-08T09:00:31.000Z</time>
      </trkpt>
      <trkpt lat="50.40168" lon="3.29337">
        <ele>29.262084</ele>
        <time>2019-12-08T09:00:33.000Z</time>
      </trkpt>
      <trkpt lat="50.4017" lon="3.29322">
        <ele>29.12707</ele>
        <time>2019-12-08T09:00:35.000Z</time>
      </trkpt>
      <trkpt lat="50.40171" lon="3.29307">
        <ele>28.990189</ele>
        <time>2019-12-08T09:00:37.000Z</time>
      </trkpt>
      <trkpt lat="50.40172" lon="3.29291">
        <ele>28.850111</ele>
        <time>2019-12-08T09:00:39.000Z</time>
      </trkpt>
      <trkpt lat="50.40173" lon="3.29276">
        <ele>28.407445</ele>
        <time>2019-12-08T09:00:41.000Z</time>
      </trkpt>
      <trkpt lat="50.40175" lon="3.29259">
        <ele>27.617679</ele>
        <time>2019-12-08T09:00:43.000Z</time>
      </trkpt>
      <trkpt lat="50.40177" lon="3.29243">
        <ele>26.833335</ele>
        <time>2019-12-08T09:00:45.000Z</time>
      </trkpt>
      <trkpt lat="50.40178" lon="3.29226">
        <ele>26.057392</ele>
        <time>2019-12-08T09:00:47.000Z</time>
      </trkpt>
      <trkpt lat="50.40178" lon="3.2921">
        <ele>25.305811</ele>
        <time>2019-12-08T09:00:49.000Z</time>
      </trkpt>
      <trkpt lat="50.40178" lon="3.29194">
        <ele>24.523821</ele>
        <time>2019-12-08T09:00:51.000Z</time>
      </trkpt>
      <trkpt lat="50.40179" lon="3.29177">
        <ele>23.721162</ele>
        <time>2019-12-08T09:00:53.000Z</time>
      </trkpt>
      <trkpt lat="50.40181" lon="3.29158">
        <ele>22.852332</ele>
        <time>2019-12-08T09:00:55.000Z</time>
      </trkpt>
      <trkpt lat="50.40181" lon="3.29141">
        <ele>22.039686</ele>
        <time>2019-12-08T09:00:57.000Z</time>
      </trkpt>
      <trkpt lat="50.40179" lon="3.29122">
        <ele>21.142814</ele>
        <time>2019-12-08T09:00:59.000Z</time>
      </trkpt>
      <trkpt lat="50.40181" lon="3.29104">
        <ele>20.283329</ele>
        <time>2019-12-08T09:01:01.000Z</time>
      </trkpt>
      <trkpt lat="50.40183" lon="3.29086">
        <ele>19.449449</ele>
        <time>2019-12-08T09:01:03.000Z</time>
      </trkpt>
      <trkpt lat="50.40184" lon="3.29069">
        <ele>18.601673</ele>
        <time>2019-12-08T09:01:05.000Z</time>
      </trkpt>
      <trkpt lat="50.40187" lon="3.2905">
        <ele>17.73011</ele>
        <time>2019-12-08T09:01:07.000Z</time>
      </trkpt>
      <trkpt lat="50.40188" lon="3.29034">
        <ele>16.94255</ele>
        <time>2019-12-08T09:01:09.000Z</time>
      </trkpt>
      <trkpt lat="50.4019" lon="3.29017">
        <ele>16.137688</ele>
        <time>2019-12-08T09:01:11.000Z</time>
      </trkpt>
      <trkpt lat="50.40192" lon="3.29">
        <ele>15.516924</ele>
        <time>2019-12-08T09:01:13.000Z</time>
      </trkpt>
      <trkpt lat="50.40194" lon="3.28983">
        <ele>15.473739</ele>
        <time>2019-12-08T09:01:15.000Z</time>
      </trkpt>
      <trkpt lat="50.40197" lon="3.28967">
        <ele>15.431984</ele>
        <time>2019-12-08T09:01:17.000Z</time>
      </trkpt>
      <trkpt lat="50.402" lon="3.28952">
        <ele>15.390657</ele>
        <time>2019-12-08T09:01:19.000Z</time>
      </trkpt>
      <trkpt lat="50.40205" lon="3.28938">
        <ele>15.350343</ele>
        <time>2019-12-08T09:01:21.000Z</time>
      </trkpt>
      <trkpt lat="50.4021" lon="3.28925">
        <ele>15.311035</ele>
        <time>2019-12-08T09:01:23.000Z</time>
      </trkpt>
      <trkpt lat="50.40216" lon="3.28913">
        <ele>15.270727</ele>
        <time>2019-12-08T09:01:25.000Z</time>
      </trkpt>
      <trkpt lat="50.40224" lon="3.28901">
        <ele>15.228865</ele>
        <time>2019-12-08T09:01:27.000Z</time>
      </trkpt>
      <trkpt lat="50.40231" lon="3.2889">
        <ele>15.187046</ele>
        <time>2019-12-08T09:01:29.000Z</time>
      </trkpt>
      <trkpt lat="50.40239" lon="3.28879">
        <ele>15.145059</ele>
        <time>2019-12-08T09:01:31.000Z</time>
      </trkpt>
      <trkpt lat="50.40247" lon="3.28868">
        <ele>15.102908</ele>
        <time>2019-12-08T09:01:33.000Z</time>
      </trkpt>
      <trkpt lat="50.40255" lon="3.28858">
        <ele>15.060943</ele>
        <time>2019-12-08T09:01:35.000Z</time>
      </trkpt>
      <trkpt lat="50.40262" lon="3.28847">
        <ele>15.023583</ele>
        <time>2019-12-08T09:01:37.000Z</time>
      </trkpt>
      <trkpt lat="50.40271" lon="3.28833">
        <ele>14.972964</ele>
        <time>2019-12-08T09:01:40.000Z</time>
      </trkpt>
      <trkpt lat="50.40278" lon="3.28817">
        <ele>14.92248</ele>
        <time>2019-12-08T09:01:43.000Z</time>
      </trkpt>
      <trkpt lat="50.40284" lon="3.28806">
        <ele>14.885363</ele>
        <time>2019-12-08T09:01:45.000Z</time>
      </trkpt>
      <trkpt lat="50.40293" lon="3.28796">
        <ele>14.843706</ele>
        <time>2019-12-08T09:01:47.000Z</time>
      </trkpt>
      <trkpt lat="50.40302" lon="3.28788">
        <ele>14.771507</ele>
        <time>2019-12-08T09:01:49.000Z</time>
      </trkpt>
      <trkpt lat="50.40312" lon="3.28778">
        <ele>14.576971</ele>
        <time>2019-12-08T09:01:51.000Z</time>
      </trkpt>
      <trkpt lat="50.40321" lon="3.28766">
        <ele>14.385358</ele>
        <time>2019-12-08T09:01:53.000Z</time>
      </trkpt>
      <trkpt lat="50.40329" lon="3.28755">
        <ele>14.2069</ele>
        <time>2019-12-08T09:01:55.000Z</time>
      </trkpt>
      <trkpt lat="50.40337" lon="3.28744">
        <ele>14.024747</ele>
        <time>2019-12-08T09:01:57.000Z</time>
      </trkpt>
      <trkpt lat="50.40345" lon="3.28734">
        <ele>13.851816</ele>
        <time>2019-12-08T09:01:59.000Z</time>
      </trkpt>
      <trkpt lat="50.40353" lon="3.28724">
        <ele>13.674322</ele>
        <time>2019-12-08T09:02:01.000Z</time>
      </trkpt>
      <trkpt lat="50.40362" lon="3.28714">
        <ele>13.497953</ele>
        <time>2019-12-08T09:02:03.000Z</time>
      </trkpt>
      <trkpt lat="50.40371" lon="3.28706">
        <ele>13.318637</ele>
        <time>2019-12-08T09:02:05.000Z</time>
      </trkpt>
      <trkpt lat="50.4038" lon="3.28698">
        <ele>13.152759</ele>
        <time>2019-12-08T09:02:07.000Z</time>
      </trkpt>
      <trkpt lat="50.40389" lon="3.28692">
        <ele>12.987199</ele>
        <time>2019-12-08T09:02:09.000Z</time>
      </trkpt>
      <trkpt lat="50.40397" lon="3.28686">
        <ele>12.835371</ele>
        <time>2019-12-08T09:02:11.000Z</time>
      </trkpt>
      <trkpt lat="50.40408" lon="3.28681">
        <ele>12.644001</ele>
        <time>2019-12-08T09:02:14.000Z</time>
      </trkpt>
      <trkpt lat="50.40418" lon="3.2868">
        <ele>12.481128</ele>
        <time>2019-12-08T09:02:19.000Z</time>
      </trkpt>
      <trkpt lat="50.40427" lon="3.28675">
        <ele>12.317807</ele>
        <time>2019-12-08T09:02:26.000Z</time>
      </trkpt>
      <trkpt lat="50.4044" lon="3.28672">
        <ele>12.11037</ele>
        <time>2019-12-08T09:02:30.000Z</time>
      </trkpt>
      <trkpt lat="50.40451" lon="3.28669">
        <ele>11.91685</ele>
        <time>2019-12-08T09:02:33.000Z</time>
      </trkpt>
      <trkpt lat="50.40463" lon="3.28665">
        <ele>11.870739</ele>
        <time>2019-12-08T09:02:36.000Z</time>
      </trkpt>
      <trkpt lat="50.40476" lon="3.28661">
        <ele>12.023362</ele>
        <time>2019-12-08T09:02:39.000Z</time>
      </trkpt>
      <trkpt lat="50.40488" lon="3.28655">
        <ele>12.175921</ele>
        <time>2019-12-08T09:02:42.000Z</time>
      </trkpt>
      <trkpt lat="50.40501" lon="3.28646">
        <ele>12.331504</ele>
        <time>2019-12-08T09:02:45.000Z</time>
      </trkpt>
      <trkpt lat="50.40512" lon="3.28637">
        <ele>12.482819</ele>
        <time>2019-12-08T09:02:48.000Z</time>
      </trkpt>
      <trkpt lat="50.4052" lon="3.2863">
        <ele>12.591304</ele>
        <time>2019-12-08T09:02:50.000Z</time>
      </trkpt>
      <trkpt lat="50.40528" lon="3.28621">
        <ele>12.703732</ele>
        <time>2019-12-08T09:02:52.000Z</time>
      </trkpt>
      <trkpt lat="50.40536" lon="3.28612">
        <ele>12.818558</ele>
        <time>2019-12-08T09:02:54.000Z</time>
      </trkpt>
      <trkpt lat="50.40543" lon="3.28602">
        <ele>12.933145</ele>
        <time>2019-12-08T09:02:56.000Z</time>
      </trkpt>
      <trkpt lat="50.4055" lon="3.28591">
        <ele>13.050949</ele>
        <time>2019-12-08T09:02:58.000Z</time>
      </trkpt>
      <trkpt lat="50.40557" lon="3.28578">
        <ele>13.172036</ele>
        <time>2019-12-08T09:03:00.000Z</time>
      </trkpt>
      <trkpt lat="50.40564" lon="3.28565">
        <ele>13.299747</ele>
        <time>2019-12-08T09:03:02.000Z</time>
      </trkpt>
      <trkpt lat="50.4057" lon="3.2855">
        <ele>13.428928</ele>
        <time>2019-12-08T09:03:04.000Z</time>
      </trkpt>
      <trkpt lat="50.40575" lon="3.28536">
        <ele>13.551547</ele>
        <time>2019-12-08T09:03:06.000Z</time>
      </trkpt>
      <trkpt lat="50.4058" lon="3.28521">
        <ele>13.678016</ele>
        <time>2019-12-08T09:03:08.000Z</time>
      </trkpt>
      <trkpt lat="50.40584" lon="3.28506">
        <ele>13.802063</ele>
        <time>2019-12-08T09:03:10.000Z</time>
      </trkpt>
      <trkpt lat="50.40589" lon="3.28491">
        <ele>13.929537</ele>
        <time>2019-12-08T09:03:12.000Z</time>
      </trkpt>
      <trkpt lat="50.40593" lon="3.28476">
        <ele>14.056381</ele>
        <time>2019-12-08T09:03:14.000Z</time>
      </trkpt>
      <trkpt lat="50.40598" lon="3.28462">
        <ele>14.182705</ele>
        <time>2019-12-08T09:03:16.000Z</time>
      </trkpt>
      <trkpt lat="50.40602" lon="3.28447">
        <ele>14.313479</ele>
        <time>2019-12-08T09:03:18.000Z</time>
      </trkpt>
      <trkpt lat="50.40607" lon="3.28432">
        <ele>14.443209</ele>
        <time>2019-12-08T09:03:20.000Z</time>
      </trkpt>
      <trkpt lat="50.4061" lon="3.28418">
        <ele>14.565325</ele>
        <time>2019-12-08T09:03:22.000Z</time>
      </trkpt>
      <trkpt lat="50.40613" lon="3.28403">
        <ele>14.689258</ele>
        <time>2019-12-08T09:03:24.000Z</time>
      </trkpt>
      <trkpt lat="50.40616" lon="3.28387">
        <ele>14.816068</ele>
        <time>2019-12-08T09:03:26.000Z</time>
      </trkpt>
      <trkpt lat="50.40617" lon="3.28371">
        <ele>14.944335</ele>
        <time>2019-12-08T09:03:28.000Z</time>
      </trkpt>
      <trkpt lat="50.40618" lon="3.28355">
        <ele>15.073997</ele>
        <time>2019-12-08T09:03:30.000Z</time>
      </trkpt>
      <trkpt lat="50.40619" lon="3.28339">
        <ele>15.20357</ele>
        <time>2019-12-08T09:03:32.000Z</time>
      </trkpt>
      <trkpt lat="50.40618" lon="3.28323">
        <ele>15.332208</ele>
        <time>2019-12-08T09:03:34.000Z</time>
      </trkpt>
      <trkpt lat="50.40617" lon="3.28306">
        <ele>15.461703</ele>
        <time>2019-12-08T09:03:36.000Z</time>
      </trkpt>
      <trkpt lat="50.40617" lon="3.2829">
        <ele>15.592157</ele>
        <time>2019-12-08T09:03:38.000Z</time>
      </trkpt>
      <trkpt lat="50.40616" lon="3.28274">
        <ele>15.719277</ele>
        <time>2019-12-08T09:03:40.000Z</time>
      </trkpt>
      <trkpt lat="50.40615" lon="3.28258">
        <ele>15.843272</ele>
        <time>2019-12-08T09:03:42.000Z</time>
      </trkpt>
      <trkpt lat="50.40614" lon="3.28243">
        <ele>15.964723</ele>
        <time>2019-12-08T09:03:44.000Z</time>
      </trkpt>
      <trkpt lat="50.40614" lon="3.28228">
        <ele>16.086384</ele>
        <time>2019-12-08T09:03:46.000Z</time>
      </trkpt>
      <trkpt lat="50.40613" lon="3.28213">
        <ele>16.139108</ele>
        <time>2019-12-08T09:03:48.000Z</time>
      </trkpt>
      <trkpt lat="50.40612" lon="3.28197">
        <ele>16.113534</ele>
        <time>2019-12-08T09:03:50.000Z</time>
      </trkpt>
      <trkpt lat="50.40611" lon="3.28182">
        <ele>16.088191</ele>
        <time>2019-12-08T09:03:52.000Z</time>
      </trkpt>
      <trkpt lat="50.4061" lon="3.28166">
        <ele>16.062417</ele>
        <time>2019-12-08T09:03:54.000Z</time>
      </trkpt>
      <trkpt lat="50.40608" lon="3.28152">
        <ele>16.038861</ele>
        <time>2019-12-08T09:03:56.000Z</time>
      </trkpt>
      <trkpt lat="50.40606" lon="3.28138">
        <ele>16.014204</ele>
        <time>2019-12-08T09:03:58.000Z</time>
      </trkpt>
      <trkpt lat="50.40603" lon="3.28123">
        <ele>15.989098</ele>
        <time>2019-12-08T09:04:00.000Z</time>
      </trkpt>
      <trkpt lat="50.406" lon="3.28108">
        <ele>15.963526</ele>
        <time>2019-12-08T09:04:02.000Z</time>
      </trkpt>
      <trkpt lat="50.40598" lon="3.2809">
        <ele>15.932852</ele>
        <time>2019-12-08T09:04:05.000Z</time>
      </trkpt>
      <trkpt lat="50.40594" lon="3.28075">
        <ele>15.907116</ele>
        <time>2019-12-08T09:04:10.000Z</time>
      </trkpt>
      <trkpt lat="50.40591" lon="3.28061">
        <ele>15.882589</ele>
        <time>2019-12-08T09:04:13.000Z</time>
      </trkpt>
      <trkpt lat="50.40588" lon="3.28041">
        <ele>15.849181</ele>
        <time>2019-12-08T09:04:16.000Z</time>
      </trkpt>
      <trkpt lat="50.40587" lon="3.28027">
        <ele>15.825685</ele>
        <time>2019-12-08T09:04:18.000Z</time>
      </trkpt>
      <trkpt lat="50.40585" lon="3.28013">
        <ele>15.801868</ele>
        <time>2019-12-08T09:04:20.000Z</time>
      </trkpt>
      <trkpt lat="50.40582" lon="3.27993">
        <ele>15.768201</ele>
        <time>2019-12-08T09:04:23.000Z</time>
      </trkpt>
      <trkpt lat="50.4058" lon="3.27975">
        <ele>15.737885</ele>
        <time>2019-12-08T09:04:26.000Z</time>
      </trkpt>
      <trkpt lat="50.40579" lon="3.27956">
        <ele>15.707408</ele>
        <time>2019-12-08T09:04:29.000Z</time>
      </trkpt>
      <trkpt lat="50.40577" lon="3.27938">
        <ele>15.621682</ele>
        <time>2019-12-08T09:04:32.000Z</time>
      </trkpt>
      <trkpt lat="50.40575" lon="3.27918">
        <ele>15.405352</ele>
        <time>2019-12-08T09:04:35.000Z</time>
      </trkpt>
      <trkpt lat="50.40572" lon="3.27898">
        <ele>15.192226</ele>
        <time>2019-12-08T09:04:38.000Z</time>
      </trkpt>
      <trkpt lat="50.4057" lon="3.27879">
        <ele>14.984941</ele>
        <time>2019-12-08T09:04:41.000Z</time>
      </trkpt>
      <trkpt lat="50.40566" lon="3.2786">
        <ele>14.774918</ele>
        <time>2019-12-08T09:04:44.000Z</time>
      </trkpt>
      <trkpt lat="50.40561" lon="3.27841">
        <ele>14.556257</ele>
        <time>2019-12-08T09:04:47.000Z</time>
      </trkpt>
      <trkpt lat="50.40556" lon="3.27828">
        <ele>14.402602</ele>
        <time>2019-12-08T09:04:49.000Z</time>
      </trkpt>
      <trkpt lat="50.40551" lon="3.27808">
        <ele>14.176709</ele>
        <time>2019-12-08T09:04:52.000Z</time>
      </trkpt>
      <trkpt lat="50.40548" lon="3.27794">
        <ele>14.016286</ele>
        <time>2019-12-08T09:04:54.000Z</time>
      </trkpt>
      <trkpt lat="50.40543" lon="3.2778">
        <ele>13.85768</ele>
        <time>2019-12-08T09:04:56.000Z</time>
      </trkpt>
      <trkpt lat="50.40539" lon="3.27767">
        <ele>13.699771</ele>
        <time>2019-12-08T09:04:58.000Z</time>
      </trkpt>
      <trkpt lat="50.40535" lon="3.27753">
        <ele>13.541592</ele>
        <time>2019-12-08T09:05:00.000Z</time>
      </trkpt>
      <trkpt lat="50.40532" lon="3.27739">
        <ele>13.377611</ele>
        <time>2019-12-08T09:05:02.000Z</time>
      </trkpt>
      <trkpt lat="50.40528" lon="3.27724">
        <ele>13.212174</ele>
        <time>2019-12-08T09:05:04.000Z</time>
      </trkpt>
      <trkpt lat="50.40525" lon="3.27709">
        <ele>13.044879</ele>
        <time>2019-12-08T09:05:06.000Z</time>
      </trkpt>
      <trkpt lat="50.40521" lon="3.27694">
        <ele>12.876004</ele>
        <time>2019-12-08T09:05:08.000Z</time>
      </trkpt>
      <trkpt lat="50.40517" lon="3.2768">
        <ele>12.712039</ele>
        <time>2019-12-08T09:05:10.000Z</time>
      </trkpt>
      <trkpt lat="50.40514" lon="3.27665">
        <ele>12.693583</ele>
        <time>2019-12-08T09:05:12.000Z</time>
      </trkpt>
      <trkpt lat="50.4051" lon="3.27651">
        <ele>12.674466</ele>
        <time>2019-12-08T09:05:14.000Z</time>
      </trkpt>
      <trkpt lat="50.40507" lon="3.27634">
        <ele>12.653597</ele>
        <time>2019-12-08T09:05:16.000Z</time>
      </trkpt>
      <trkpt lat="50.40503" lon="3.27616">
        <ele>12.631288</ele>
        <time>2019-12-08T09:05:18.000Z</time>
      </trkpt>
      <trkpt lat="50.405" lon="3.276">
        <ele>12.610879</ele>
        <time>2019-12-08T09:05:20.000Z</time>
      </trkpt>
      <trkpt lat="50.40496" lon="3.27585">
        <ele>12.591311</ele>
        <time>2019-12-08T09:05:22.000Z</time>
      </trkpt>
      <trkpt lat="50.40493" lon="3.27571">
        <ele>12.573005</ele>
        <time>2019-12-08T09:05:24.000Z</time>
      </trkpt>
      <trkpt lat="50.4049" lon="3.27557">
        <ele>12.554813</ele>
        <time>2019-12-08T09:05:26.000Z</time>
      </trkpt>
      <trkpt lat="50.40486" lon="3.27543">
        <ele>12.536227</ele>
        <time>2019-12-08T09:05:28.000Z</time>
      </trkpt>
      <trkpt lat="50.40481" lon="3.27529">
        <ele>12.517783</ele>
        <time>2019-12-08T09:05:30.000Z</time>
      </trkpt>
      <trkpt lat="50.40476" lon="3.27517">
        <ele>12.500686</ele>
        <time>2019-12-08T09:05:32.000Z</time>
      </trkpt>
      <trkpt lat="50.40469" lon="3.27502">
        <ele>12.476894</ele>
        <time>2019-12-08T09:05:35.000Z</time>
      </trkpt>
      <trkpt lat="50.40459" lon="3.27488">
        <ele>12.45329</ele>
        <time>2019-12-08T09:05:38.000Z</time>
      </trkpt>
      <trkpt lat="50.40452" lon="3.27477">
        <ele>12.433738</ele>
        <time>2019-12-08T09:05:41.000Z</time>
      </trkpt>
      <trkpt lat="50.40445" lon="3.27467">
        <ele>12.416395</ele>
        <time>2019-12-08T09:05:46.000Z</time>
      </trkpt>
      <trkpt lat="50.40437" lon="3.27459">
        <ele>12.398432</ele>
        <time>2019-12-08T09:05:58.000Z</time>
      </trkpt>
      <trkpt lat="50.40429" lon="3.2745">
        <ele>12.379289</ele>
        <time>2019-12-08T09:06:02.000Z</time>
      </trkpt>
      <trkpt lat="50.40419" lon="3.27437">
        <ele>12.565017</ele>
        <time>2019-12-08T09:06:05.000Z</time>
      </trkpt>
      <trkpt lat="50.40409" lon="3.27425">
        <ele>12.841606</ele>
        <time>2019-12-08T09:06:08.000Z</time>
      </trkpt>
      <trkpt lat="50.404" lon="3.27412">
        <ele>13.111319</ele>
        <time>2019-12-08T09:06:11.000Z</time>
      </trkpt>
      <trkpt lat="50.4039" lon="3.27399">
        <ele>13.400239</ele>
        <time>2019-12-08T09:06:14.000Z</time>
      </trkpt>
      <trkpt lat="50.4038" lon="3.27386">
        <ele>13.681137</ele>
        <time>2019-12-08T09:06:17.000Z</time>
      </trkpt>
      <trkpt lat="50.4037" lon="3.27374">
        <ele>13.965486</ele>
        <time>2019-12-08T09:06:20.000Z</time>
      </trkpt>
      <trkpt lat="50.40363" lon="3.27363">
        <ele>14.170451</ele>
        <time>2019-12-08T09:06:22.000Z</time>
      </trkpt>
      <trkpt lat="50.40356" lon="3.27352">
        <ele>14.397724</ele>
        <time>2019-12-08T09:06:24.000Z</time>
      </trkpt>
      <trkpt lat="50.4035" lon="3.2734">
        <ele>14.601718</ele>
        <time>2019-12-08T09:06:26.000Z</time>
      </trkpt>
      <trkpt lat="50.40345" lon="3.27328">
        <ele>14.80246</ele>
        <time>2019-12-08T09:06:28.000Z</time>
      </trkpt>
      <trkpt lat="50.4034" lon="3.27316">
        <ele>15.011489</ele>
        <time>2019-12-08T09:06:30.000Z</time>
      </trkpt>
      <trkpt lat="50.40336" lon="3.27303">
        <ele>15.215132</ele>
        <time>2019-12-08T09:06:32.000Z</time>
      </trkpt>
      <trkpt lat="50.40332" lon="3.2729">
        <ele>15.415089</ele>
        <time>2019-12-08T09:06:34.000Z</time>
      </trkpt>
      <trkpt lat="50.40326" lon="3.27278">
        <ele>15.619525</ele>
        <time>2019-12-08T09:06:36.000Z</time>
      </trkpt>
      <trkpt lat="50.4032" lon="3.27266">
        <ele>15.839975</ele>
        <time>2019-12-08T09:06:38.000Z</time>
      </trkpt>
      <trkpt lat="50.40316" lon="3.27252">
        <ele>16.052854</ele>
        <time>2019-12-08T09:06:40.000Z</time>
      </trkpt>
      <trkpt lat="50.40312" lon="3.27238">
        <ele>16.267692</ele>
        <time>2019-12-08T09:06:42.000Z</time>
      </trkpt>
      <trkpt lat="50.40307" lon="3.27224">
        <ele>16.332646</ele>
        <time>2019-12-08T09:06:44.000Z</time>
      </trkpt>
      <trkpt lat="50.40303" lon="3.2721">
        <ele>16.344448</ele>
        <time>2019-12-08T09:06:46.000Z</time>
      </trkpt>
      <trkpt lat="50.403" lon="3.27196">
        <ele>16.355951</ele>
        <time>2019-12-08T09:06:48.000Z</time>
      </trkpt>
      <trkpt lat="50.40297" lon="3.27182">
        <ele>16.36738</ele>
        <time>2019-12-08T09:06:50.000Z</time>
      </trkpt>
      <trkpt lat="50.40294" lon="3.27168">
        <ele>16.379161</ele>
        <time>2019-12-08T09:06:52.000Z</time>
      </trkpt>
      <trkpt lat="50.40291" lon="3.27153">
        <ele>16.390636</ele>
        <time>2019-12-08T09:06:54.000Z</time>
      </trkpt>
      <trkpt lat="50.40288" lon="3.27139">
        <ele>16.402432</ele>
        <time>2019-12-08T09:06:56.000Z</time>
      </trkpt>
      <trkpt lat="50.40286" lon="3.27124">
        <ele>16.413981</ele>
        <time>2019-12-08T09:06:58.000Z</time>
      </trkpt>
      <trkpt lat="50.40283" lon="3.2711">
        <ele>16.425456</ele>
        <time>2019-12-08T09:07:00.000Z</time>
      </trkpt>
      <trkpt lat="50.4028" lon="3.27096">
        <ele>16.437032</ele>
        <time>2019-12-08T09:07:02.000Z</time>
      </trkpt>
      <trkpt lat="50.40276" lon="3.27082">
        <ele>16.448763</ele>
        <time>2019-12-08T09:07:04.000Z</time>
      </trkpt>
      <trkpt lat="50.40273" lon="3.27067">
        <ele>16.46115</ele>
        <time>2019-12-08T09:07:06.000Z</time>
      </trkpt>
      <trkpt lat="50.40271" lon="3.27051">
        <ele>16.473493</ele>
        <time>2019-12-08T09:07:08.000Z</time>
      </trkpt>
      <trkpt lat="50.40266" lon="3.27036">
        <ele>16.486313</ele>
        <time>2019-12-08T09:07:10.000Z</time>
      </trkpt>
      <trkpt lat="50.40262" lon="3.27022">
        <ele>16.498392</ele>
        <time>2019-12-08T09:07:12.000Z</time>
      </trkpt>
      <trkpt lat="50.40256" lon="3.27009">
        <ele>16.511001</ele>
        <time>2019-12-08T09:07:14.000Z</time>
      </trkpt>
      <trkpt lat="50.4025" lon="3.26996">
        <ele>16.52311</ele>
        <time>2019-12-08T09:07:16.000Z</time>
      </trkpt>
      <trkpt lat="50.40243" lon="3.26985">
        <ele>16.535527</ele>
        <time>2019-12-08T09:07:18.000Z</time>
      </trkpt>
      <trkpt lat="50.40236" lon="3.26973">
        <ele>16.430209</ele>
        <time>2019-12-08T09:07:20.000Z</time>
      </trkpt>
      <trkpt lat="50.40229" lon="3.26964">
        <ele>16.218987</ele>
        <time>2019-12-08T09:07:22.000Z</time>
      </trkpt>
      <trkpt lat="50.4022" lon="3.26953">
        <ele>15.9542</ele>
        <time>2019-12-08T09:07:25.000Z</time>
      </trkpt>
      <trkpt lat="50.40212" lon="3.26945">
        <ele>15.744656</ele>
        <time>2019-12-08T09:07:27.000Z</time>
      </trkpt>
      <trkpt lat="50.40202" lon="3.26932">
        <ele>15.445116</ele>
        <time>2019-12-08T09:07:30.000Z</time>
      </trkpt>
      <trkpt lat="50.40195" lon="3.2692">
        <ele>15.217583</ele>
        <time>2019-12-08T09:07:32.000Z</time>
      </trkpt>
      <trkpt lat="50.40189" lon="3.26906">
        <ele>14.971578</ele>
        <time>2019-12-08T09:07:34.000Z</time>
      </trkpt>
      <trkpt lat="50.40183" lon="3.26891">
        <ele>14.719411</ele>
        <time>2019-12-08T09:07:36.000Z</time>
      </trkpt>
      <trkpt lat="50.40178" lon="3.26876">
        <ele>14.471763</ele>
        <time>2019-12-08T09:07:38.000Z</time>
      </trkpt>
      <trkpt lat="50.40174" lon="3.2686">
        <ele>14.216856</ele>
        <time>2019-12-08T09:07:40.000Z</time>
      </trkpt>
      <trkpt lat="50.4017" lon="3.26842">
        <ele>13.947879</ele>
        <time>2019-12-08T09:07:42.000Z</time>
      </trkpt>
      <trkpt lat="50.40167" lon="3.26824">
        <ele>13.674078</ele>
        <time>2019-12-08T09:07:44.000Z</time>
      </trkpt>
      <trkpt lat="50.40163" lon="3.26806">
        <ele>13.400276</ele>
        <time>2019-12-08T09:07:46.000Z</time>
      </trkpt>
      <trkpt lat="50.40159" lon="3.26788">
        <ele>13.126202</ele>
        <time>2019-12-08T09:07:48.000Z</time>
      </trkpt>
      <trkpt lat="50.40154" lon="3.26771">
        <ele>12.856186</ele>
        <time>2019-12-08T09:07:50.000Z</time>
      </trkpt>
      <trkpt lat="50.40151" lon="3.26754">
        <ele>12.599578</ele>
        <time>2019-12-08T09:07:52.000Z</time>
      </trkpt>
      <trkpt lat="50.40147" lon="3.26738">
        <ele>12.57861</ele>
        <time>2019-12-08T09:07:54.000Z</time>
      </trkpt>
      <trkpt lat="50.40144" lon="3.26722">
        <ele>12.809639</ele>
        <time>2019-12-08T09:07:56.000Z</time>
      </trkpt>
      <trkpt lat="50.40142" lon="3.26707">
        <ele>13.033334</ele>
        <time>2019-12-08T09:07:58.000Z</time>
      </trkpt>
      <trkpt lat="50.40139" lon="3.26692">
        <ele>13.258885</ele>
        <time>2019-12-08T09:08:00.000Z</time>
      </trkpt>
      <trkpt lat="50.40136" lon="3.26677">
        <ele>13.483969</ele>
        <time>2019-12-08T09:08:02.000Z</time>
      </trkpt>
      <trkpt lat="50.40134" lon="3.26662">
        <ele>13.712985</ele>
        <time>2019-12-08T09:08:04.000Z</time>
      </trkpt>
      <trkpt lat="50.40131" lon="3.26647">
        <ele>13.937284</ele>
        <time>2019-12-08T09:08:06.000Z</time>
      </trkpt>
      <trkpt lat="50.40128" lon="3.26632">
        <ele>14.164353</ele>
        <time>2019-12-08T09:08:08.000Z</time>
      </trkpt>
      <trkpt lat="50.40125" lon="3.26616">
        <ele>14.39471</ele>
        <time>2019-12-08T09:08:10.000Z</time>
      </trkpt>
      <trkpt lat="50.40123" lon="3.266">
        <ele>14.632889</ele>
        <time>2019-12-08T09:08:12.000Z</time>
      </trkpt>
      <trkpt lat="50.40119" lon="3.26585">
        <ele>14.870288</ele>
        <time>2019-12-08T09:08:14.000Z</time>
      </trkpt>
      <trkpt lat="50.40117" lon="3.2657">
        <ele>15.086449</ele>
        <time>2019-12-08T09:08:16.000Z</time>
      </trkpt>
      <trkpt lat="50.40114" lon="3.26556">
        <ele>15.305389</ele>
        <time>2019-12-08T09:08:18.000Z</time>
      </trkpt>
      <trkpt lat="50.40111" lon="3.26541">
        <ele>15.530289</ele>
        <time>2019-12-08T09:08:20.000Z</time>
      </trkpt>
      <trkpt lat="50.40108" lon="3.26527">
        <ele>15.744188</ele>
        <time>2019-12-08T09:08:22.000Z</time>
      </trkpt>
      <trkpt lat="50.40104" lon="3.26508">
        <ele>16.02804</ele>
        <time>2019-12-08T09:08:25.000Z</time>
      </trkpt>
      <trkpt lat="50.401" lon="3.26493">
        <ele>16.268667</ele>
        <time>2019-12-08T09:08:28.000Z</time>
      </trkpt>
      <trkpt lat="50.40097" lon="3.26477">
        <ele>16.505911</ele>
        <time>2019-12-08T09:08:31.000Z</time>
      </trkpt>
      <trkpt lat="50.40092" lon="3.26457">
        <ele>16.641</ele>
        <time>2019-12-08T09:08:34.000Z</time>
      </trkpt>
      <trkpt lat="50.40088" lon="3.26441">
        <ele>16.740125</ele>
        <time>2019-12-08T09:08:36.000Z</time>
      </trkpt>
      <trkpt lat="50.40084" lon="3.26425">
        <ele>16.840734</ele>
        <time>2019-12-08T09:08:38.000Z</time>
      </trkpt>
      <trkpt lat="50.4008" lon="3.26409">
        <ele>16.937272</ele>
        <time>2019-12-08T09:08:40.000Z</time>
      </trkpt>
      <trkpt lat="50.40074" lon="3.26395">
        <ele>17.034465</ele>
        <time>2019-12-08T09:08:42.000Z</time>
      </trkpt>
      <trkpt lat="50.40069" lon="3.2638">
        <ele>17.129426</ele>
        <time>2019-12-08T09:08:44.000Z</time>
      </trkpt>
      <trkpt lat="50.40063" lon="3.26367">
        <ele>17.225649</ele>
        <time>2019-12-08T09:08:46.000Z</time>
      </trkpt>
      <trkpt lat="50.40057" lon="3.26354">
        <ele>17.315076</ele>
        <time>2019-12-08T09:08:48.000Z</time>
      </trkpt>
      <trkpt lat="50.40052" lon="3.2634">
        <ele>17.408352</ele>
        <time>2019-12-08T09:08:50.000Z</time>
      </trkpt>
      <trkpt lat="50.40046" lon="3.26328">
        <ele>17.49629</ele>
        <time>2019-12-08T09:08:52.000Z</time>
      </trkpt>
      <trkpt lat="50.40041" lon="3.26315">
        <ele>17.581803</ele>
        <time>2019-12-08T09:08:54.000Z</time>
      </trkpt>
      <trkpt lat="50.40036" lon="3.26302">
        <ele>17.672636</ele>
        <time>2019-12-08T09:08:56.000Z</time>
      </trkpt>
      <trkpt lat="50.40032" lon="3.26288">
        <ele>17.759436</ele>
        <time>2019-12-08T09:08:58.000Z</time>
      </trkpt>
      <trkpt lat="50.40028" lon="3.26274">
        <ele>17.84935</ele>
        <time>2019-12-08T09:09:00.000Z</time>
      </trkpt>
      <trkpt lat="50.40024" lon="3.26259">
        <ele>17.939658</ele>
        <time>2019-12-08T09:09:02.000Z</time>
      </trkpt>
      <trkpt lat="50.4002" lon="3.26244">
        <ele>18.035856</ele>
        <time>2019-12-08T09:09:04.000Z</time>
      </trkpt>
      <trkpt lat="50.40016" lon="3.26228">
        <ele>18.131646</ele>
        <time>2019-12-08T09:09:06.000Z</time>
      </trkpt>
      <trkpt lat="50.40013" lon="3.26213">
        <ele>18.228939</ele>
        <time>2019-12-08T09:09:08.000Z</time>
      </trkpt>
      <trkpt lat="50.40009" lon="3.26198">
        <ele>18.330904</ele>
        <time>2019-12-08T09:09:10.000Z</time>
      </trkpt>
      <trkpt lat="50.40005" lon="3.26183">
        <ele>18.431675</ele>
        <time>2019-12-08T09:09:12.000Z</time>
      </trkpt>
      <trkpt lat="50.40001" lon="3.26168">
        <ele>18.531479</ele>
        <time>2019-12-08T09:09:14.000Z</time>
      </trkpt>
      <trkpt lat="50.39997" lon="3.26153">
        <ele>18.631124</ele>
        <time>2019-12-08T09:09:16.000Z</time>
      </trkpt>
      <trkpt lat="50.39994" lon="3.26138">
        <ele>18.728525</ele>
        <time>2019-12-08T09:09:18.000Z</time>
      </trkpt>
      <trkpt lat="50.3999" lon="3.26124">
        <ele>18.825085</ele>
        <time>2019-12-08T09:09:20.000Z</time>
      </trkpt>
      <trkpt lat="50.39986" lon="3.2611">
        <ele>18.921074</ele>
        <time>2019-12-08T09:09:22.000Z</time>
      </trkpt>
      <trkpt lat="50.39982" lon="3.26096">
        <ele>19.015819</ele>
        <time>2019-12-08T09:09:24.000Z</time>
      </trkpt>
      <trkpt lat="50.39979" lon="3.26081">
        <ele>19.11096</ele>
        <time>2019-12-08T09:09:26.000Z</time>
      </trkpt>
      <trkpt lat="50.39975" lon="3.26067">
        <ele>19.208429</ele>
        <time>2019-12-08T09:09:28.000Z</time>
      </trkpt>
      <trkpt lat="50.39972" lon="3.26051">
        <ele>19.308234</ele>
        <time>2019-12-08T09:09:30.000Z</time>
      </trkpt>
      <trkpt lat="50.39968" lon="3.26037">
        <ele>19.409005</ele>
        <time>2019-12-08T09:09:32.000Z</time>
      </trkpt>
      <trkpt lat="50.39964" lon="3.26021">
        <ele>19.512215</ele>
        <time>2019-12-08T09:09:34.000Z</time>
      </trkpt>
      <trkpt lat="50.39959" lon="3.26006">
        <ele>19.613721</ele>
        <time>2019-12-08T09:09:36.000Z</time>
      </trkpt>
      <trkpt lat="50.39956" lon="3.25992">
        <ele>19.710281</ele>
        <time>2019-12-08T09:09:38.000Z</time>
      </trkpt>
      <trkpt lat="50.39951" lon="3.25977">
        <ele>19.809413</ele>
        <time>2019-12-08T09:09:40.000Z</time>
      </trkpt>
      <trkpt lat="50.39946" lon="3.25963">
        <ele>19.888814</ele>
        <time>2019-12-08T09:09:42.000Z</time>
      </trkpt>
      <trkpt lat="50.3994" lon="3.2595">
        <ele>19.713627</ele>
        <time>2019-12-08T09:09:44.000Z</time>
      </trkpt>
      <trkpt lat="50.39934" lon="3.25938">
        <ele>19.54448</ele>
        <time>2019-12-08T09:09:46.000Z</time>
      </trkpt>
      <trkpt lat="50.39926" lon="3.25927">
        <ele>19.370285</ele>
        <time>2019-12-08T09:09:48.000Z</time>
      </trkpt>
      <trkpt lat="50.39918" lon="3.25916">
        <ele>19.19648</ele>
        <time>2019-12-08T09:09:50.000Z</time>
      </trkpt>
      <trkpt lat="50.39909" lon="3.25907">
        <ele>19.025725</ele>
        <time>2019-12-08T09:09:52.000Z</time>
      </trkpt>
      <trkpt lat="50.39901" lon="3.25898">
        <ele>18.857967</ele>
        <time>2019-12-08T09:09:54.000Z</time>
      </trkpt>
      <trkpt lat="50.39892" lon="3.2589">
        <ele>18.689046</ele>
        <time>2019-12-08T09:09:56.000Z</time>
      </trkpt>
      <trkpt lat="50.39883" lon="3.25883">
        <ele>18.521695</ele>
        <time>2019-12-08T09:09:58.000Z</time>
      </trkpt>
      <trkpt lat="50.39876" lon="3.25874">
        <ele>18.365438</ele>
        <time>2019-12-08T09:10:00.000Z</time>
      </trkpt>
      <trkpt lat="50.39868" lon="3.25865">
        <ele>18.205871</ele>
        <time>2019-12-08T09:10:02.000Z</time>
      </trkpt>
      <trkpt lat="50.39861" lon="3.25856">
        <ele>18.047748</ele>
        <time>2019-12-08T09:10:04.000Z</time>
      </trkpt>
      <trkpt lat="50.39854" lon="3.25845">
        <ele>17.890498</ele>
        <time>2019-12-08T09:10:06.000Z</time>
      </trkpt>
      <trkpt lat="50.39847" lon="3.25833">
        <ele>17.720618</ele>
        <time>2019-12-08T09:10:08.000Z</time>
      </trkpt>
      <trkpt lat="50.39842" lon="3.25821">
        <ele>17.559815</ele>
        <time>2019-12-08T09:10:10.000Z</time>
      </trkpt>
      <trkpt lat="50.39836" lon="3.25808">
        <ele>17.39639</ele>
        <time>2019-12-08T09:10:12.000Z</time>
      </trkpt>
      <trkpt lat="50.39832" lon="3.25794">
        <ele>17.233224</ele>
        <time>2019-12-08T09:10:14.000Z</time>
      </trkpt>
      <trkpt lat="50.39827" lon="3.25781">
        <ele>17.070999</ele>
        <time>2019-12-08T09:10:16.000Z</time>
      </trkpt>
      <trkpt lat="50.39822" lon="3.25767">
        <ele>16.909643</ele>
        <time>2019-12-08T09:10:18.000Z</time>
      </trkpt>
      <trkpt lat="50.39817" lon="3.25754">
        <ele>16.771842</ele>
        <time>2019-12-08T09:10:20.000Z</time>
      </trkpt>
      <trkpt lat="50.39813" lon="3.25742">
        <ele>16.640652</ele>
        <time>2019-12-08T09:10:22.000Z</time>
      </trkpt>
      <trkpt lat="50.39808" lon="3.25729">
        <ele>16.505009</ele>
        <time>2019-12-08T09:10:24.000Z</time>
      </trkpt>
      <trkpt lat="50.39804" lon="3.25715">
        <ele>16.368472</ele>
        <time>2019-12-08T09:10:26.000Z</time>
      </trkpt>
      <trkpt lat="50.398" lon="3.25703">
        <ele>16.237811</ele>
        <time>2019-12-08T09:10:28.000Z</time>
      </trkpt>
      <trkpt lat="50.39793" lon="3.25684">
        <ele>16.046089</ele>
        <time>2019-12-08T09:10:31.000Z</time>
      </trkpt>
      <trkpt lat="50.39788" lon="3.25672">
        <ele>15.913687</ele>
        <time>2019-12-08T09:10:33.000Z</time>
      </trkpt>
      <trkpt lat="50.39781" lon="3.25653">
        <ele>15.719208</ele>
        <time>2019-12-08T09:10:36.000Z</time>
      </trkpt>
      <trkpt lat="50.39776" lon="3.25641">
        <ele>15.584502</ele>
        <time>2019-12-08T09:10:38.000Z</time>
      </trkpt>
      <trkpt lat="50.39771" lon="3.25629">
        <ele>15.451095</ele>
        <time>2019-12-08T09:10:40.000Z</time>
      </trkpt>
      <trkpt lat="50.39764" lon="3.25618">
        <ele>15.316287</ele>
        <time>2019-12-08T09:10:42.000Z</time>
      </trkpt>
      <trkpt lat="50.39754" lon="3.25605">
        <ele>15.126345</ele>
        <time>2019-12-08T09:10:45.000Z</time>
      </trkpt>
      <trkpt lat="50.39743" lon="3.25592">
        <ele>14.938689</ele>
        <time>2019-12-08T09:10:48.000Z</time>
      </trkpt>
      <trkpt lat="50.39736" lon="3.25583">
        <ele>14.803687</ele>
        <time>2019-12-08T09:10:50.000Z</time>
      </trkpt>
      <trkpt lat="50.39729" lon="3.25574">
        <ele>14.677651</ele>
        <time>2019-12-08T09:10:52.000Z</time>
      </trkpt>
      <trkpt lat="50.39718" lon="3.25562">
        <ele>14.488162</ele>
        <time>2019-12-08T09:10:55.000Z</time>
      </trkpt>
      <trkpt lat="50.39708" lon="3.2555">
        <ele>14.395701</ele>
        <time>2019-12-08T09:10:58.000Z</time>
      </trkpt>
      <trkpt lat="50.397" lon="3.25541">
        <ele>14.500953</ele>
        <time>2019-12-08T09:11:00.000Z</time>
      </trkpt>
      <trkpt lat="50.39693" lon="3.25533">
        <ele>14.6049</ele>
        <time>2019-12-08T09:11:02.000Z</time>
      </trkpt>
      <trkpt lat="50.39686" lon="3.25524">
        <ele>14.707383</ele>
        <time>2019-12-08T09:11:04.000Z</time>
      </trkpt>
      <trkpt lat="50.39678" lon="3.25516">
        <ele>14.816502</ele>
        <time>2019-12-08T09:11:06.000Z</time>
      </trkpt>
      <trkpt lat="50.39671" lon="3.25508">
        <ele>14.924562</ele>
        <time>2019-12-08T09:11:08.000Z</time>
      </trkpt>
      <trkpt lat="50.39663" lon="3.25499">
        <ele>15.028509</ele>
        <time>2019-12-08T09:11:10.000Z</time>
      </trkpt>
      <trkpt lat="50.39656" lon="3.25491">
        <ele>15.136569</ele>
        <time>2019-12-08T09:11:12.000Z</time>
      </trkpt>
      <trkpt lat="50.39648" lon="3.25482">
        <ele>15.243156</ele>
        <time>2019-12-08T09:11:14.000Z</time>
      </trkpt>
      <trkpt lat="50.39641" lon="3.25473">
        <ele>15.353399</ele>
        <time>2019-12-08T09:11:16.000Z</time>
      </trkpt>
      <trkpt lat="50.39634" lon="3.25464">
        <ele>15.46091</ele>
        <time>2019-12-08T09:11:18.000Z</time>
      </trkpt>
      <trkpt lat="50.39626" lon="3.25455">
        <ele>15.569784</ele>
        <time>2019-12-08T09:11:20.000Z</time>
      </trkpt>
      <trkpt lat="50.39619" lon="3.25446">
        <ele>15.67637</ele>
        <time>2019-12-08T09:11:22.000Z</time>
      </trkpt>
      <trkpt lat="50.39612" lon="3.25437">
        <ele>15.778854</ele>
        <time>2019-12-08T09:11:24.000Z</time>
      </trkpt>
      <trkpt lat="50.39604" lon="3.25429">
        <ele>15.889492</ele>
        <time>2019-12-08T09:11:26.000Z</time>
      </trkpt>
      <trkpt lat="50.39597" lon="3.25421">
        <ele>15.991079</ele>
        <time>2019-12-08T09:11:28.000Z</time>
      </trkpt>
      <trkpt lat="50.39589" lon="3.25412">
        <ele>16.102531</ele>
        <time>2019-12-08T09:11:30.000Z</time>
      </trkpt>
      <trkpt lat="50.39581" lon="3.25404">
        <ele>16.219233</ele>
        <time>2019-12-08T09:11:32.000Z</time>
      </trkpt>
      <trkpt lat="50.39573" lon="3.25395">
        <ele>16.332778</ele>
        <time>2019-12-08T09:11:34.000Z</time>
      </trkpt>
      <trkpt lat="50.39565" lon="3.25386">
        <ele>16.435432</ele>
        <time>2019-12-08T09:11:36.000Z</time>
      </trkpt>
      <trkpt lat="50.39557" lon="3.25378">
        <ele>16.440048</ele>
        <time>2019-12-08T09:11:38.000Z</time>
      </trkpt>
      <trkpt lat="50.3955" lon="3.25368">
        <ele>16.444638</ele>
        <time>2019-12-08T09:11:40.000Z</time>
      </trkpt>
      <trkpt lat="50.39542" lon="3.2536">
        <ele>16.448994</ele>
        <time>2019-12-08T09:11:42.000Z</time>
      </trkpt>
      <trkpt lat="50.39534" lon="3.25352">
        <ele>16.453477</ele>
        <time>2019-12-08T09:11:44.000Z</time>
      </trkpt>
      <trkpt lat="50.39526" lon="3.25343">
        <ele>16.458145</ele>
        <time>2019-12-08T09:11:46.000Z</time>
      </trkpt>
      <trkpt lat="50.39518" lon="3.25334">
        <ele>16.463055</ele>
        <time>2019-12-08T09:11:48.000Z</time>
      </trkpt>
      <trkpt lat="50.3951" lon="3.25324">
        <ele>16.467813</ele>
        <time>2019-12-08T09:11:50.000Z</time>
      </trkpt>
      <trkpt lat="50.39502" lon="3.25315">
        <ele>16.472571</ele>
        <time>2019-12-08T09:11:52.000Z</time>
      </trkpt>
      <trkpt lat="50.39494" lon="3.25306">
        <ele>16.477141</ele>
        <time>2019-12-08T09:11:54.000Z</time>
      </trkpt>
      <trkpt lat="50.39486" lon="3.25296">
        <ele>16.481845</ele>
        <time>2019-12-08T09:11:56.000Z</time>
      </trkpt>
      <trkpt lat="50.39478" lon="3.25288">
        <ele>16.486625</ele>
        <time>2019-12-08T09:11:58.000Z</time>
      </trkpt>
      <trkpt lat="50.3947" lon="3.25279">
        <ele>16.491206</ele>
        <time>2019-12-08T09:12:00.000Z</time>
      </trkpt>
      <trkpt lat="50.39462" lon="3.25272">
        <ele>16.495673</ele>
        <time>2019-12-08T09:12:02.000Z</time>
      </trkpt>
      <trkpt lat="50.39453" lon="3.25265">
        <ele>16.500225</ele>
        <time>2019-12-08T09:12:04.000Z</time>
      </trkpt>
      <trkpt lat="50.39444" lon="3.25258">
        <ele>16.504713</ele>
        <time>2019-12-08T09:12:06.000Z</time>
      </trkpt>
      <trkpt lat="50.39436" lon="3.25253">
        <ele>16.509161</ele>
        <time>2019-12-08T09:12:08.000Z</time>
      </trkpt>
      <trkpt lat="50.39427" lon="3.25248">
        <ele>16.513553</ele>
        <time>2019-12-08T09:12:10.000Z</time>
      </trkpt>
      <trkpt lat="50.39418" lon="3.25242">
        <ele>16.518321</ele>
        <time>2019-12-08T09:12:12.000Z</time>
      </trkpt>
      <trkpt lat="50.39407" lon="3.25236">
        <ele>16.478088</ele>
        <time>2019-12-08T09:12:14.000Z</time>
      </trkpt>
      <trkpt lat="50.39397" lon="3.25229">
        <ele>16.403457</ele>
        <time>2019-12-08T09:12:16.000Z</time>
      </trkpt>
      <trkpt lat="50.39387" lon="3.25223">
        <ele>16.329893</ele>
        <time>2019-12-08T09:12:18.000Z</time>
      </trkpt>
      <trkpt lat="50.39378" lon="3.25217">
        <ele>16.263702</ele>
        <time>2019-12-08T09:12:20.000Z</time>
      </trkpt>
      <trkpt lat="50.39368" lon="3.25212">
        <ele>16.197365</ele>
        <time>2019-12-08T09:12:22.000Z</time>
      </trkpt>
      <trkpt lat="50.3936" lon="3.25206">
        <ele>16.13365</ele>
        <time>2019-12-08T09:12:24.000Z</time>
      </trkpt>
      <trkpt lat="50.39351" lon="3.25201">
        <ele>16.068058</ele>
        <time>2019-12-08T09:12:26.000Z</time>
      </trkpt>
      <trkpt lat="50.39342" lon="3.25195">
        <ele>16.003726</ele>
        <time>2019-12-08T09:12:28.000Z</time>
      </trkpt>
      <trkpt lat="50.39333" lon="3.2519">
        <ele>15.938911</ele>
        <time>2019-12-08T09:12:30.000Z</time>
      </trkpt>
      <trkpt lat="50.39323" lon="3.25184">
        <ele>15.869757</ele>
        <time>2019-12-08T09:12:32.000Z</time>
      </trkpt>
      <trkpt lat="50.39314" lon="3.25179">
        <ele>15.801977</ele>
        <time>2019-12-08T09:12:34.000Z</time>
      </trkpt>
      <trkpt lat="50.39305" lon="3.25173">
        <ele>15.737977</ele>
        <time>2019-12-08T09:12:36.000Z</time>
      </trkpt>
      <trkpt lat="50.39296" lon="3.25168">
        <ele>15.677114</ele>
        <time>2019-12-08T09:12:38.000Z</time>
      </trkpt>
      <trkpt lat="50.39284" lon="3.25161">
        <ele>15.588591</ele>
        <time>2019-12-08T09:12:41.000Z</time>
      </trkpt>
      <trkpt lat="50.39272" lon="3.25153">
        <ele>15.499245</ele>
        <time>2019-12-08T09:12:44.000Z</time>
      </trkpt>
      <trkpt lat="50.39262" lon="3.25148">
        <ele>15.431174</ele>
        <time>2019-12-08T09:12:46.000Z</time>
      </trkpt>
      <trkpt lat="50.39253" lon="3.25143">
        <ele>15.363395</ele>
        <time>2019-12-08T09:12:48.000Z</time>
      </trkpt>
      <trkpt lat="50.39243" lon="3.25137">
        <ele>15.409054</ele>
        <time>2019-12-08T09:12:50.000Z</time>
      </trkpt>
      <trkpt lat="50.39233" lon="3.25131">
        <ele>15.76929</ele>
        <time>2019-12-08T09:12:52.000Z</time>
      </trkpt>
      <trkpt lat="50.39225" lon="3.25124">
        <ele>16.101943</ele>
        <time>2019-12-08T09:12:54.000Z</time>
      </trkpt>
      <trkpt lat="50.39216" lon="3.25119">
        <ele>16.43837</ele>
        <time>2019-12-08T09:12:56.000Z</time>
      </trkpt>
      <trkpt lat="50.39208" lon="3.25113">
        <ele>16.752492</ele>
        <time>2019-12-08T09:12:58.000Z</time>
      </trkpt>
      <trkpt lat="50.39199" lon="3.25108">
        <ele>17.095529</ele>
        <time>2019-12-08T09:13:00.000Z</time>
      </trkpt>
      <trkpt lat="50.39191" lon="3.25102">
        <ele>17.423002</ele>
        <time>2019-12-08T09:13:02.000Z</time>
      </trkpt>
      <trkpt lat="50.39182" lon="3.25095">
        <ele>17.760816</ele>
        <time>2019-12-08T09:13:04.000Z</time>
      </trkpt>
      <trkpt lat="50.39174" lon="3.25087">
        <ele>18.122045</ele>
        <time>2019-12-08T09:13:06.000Z</time>
      </trkpt>
      <trkpt lat="50.39166" lon="3.25077">
        <ele>18.478404</ele>
        <time>2019-12-08T09:13:08.000Z</time>
      </trkpt>
      <trkpt lat="50.39158" lon="3.25067">
        <ele>18.827121</ele>
        <time>2019-12-08T09:13:10.000Z</time>
      </trkpt>
      <trkpt lat="50.39151" lon="3.25055">
        <ele>19.185592</ele>
        <time>2019-12-08T09:13:12.000Z</time>
      </trkpt>
      <trkpt lat="50.39144" lon="3.25044">
        <ele>19.543034</ele>
        <time>2019-12-08T09:13:14.000Z</time>
      </trkpt>
      <trkpt lat="50.39138" lon="3.25034">
        <ele>19.873589</ele>
        <time>2019-12-08T09:13:16.000Z</time>
      </trkpt>
      <trkpt lat="50.39132" lon="3.25023">
        <ele>20.195234</ele>
        <time>2019-12-08T09:13:18.000Z</time>
      </trkpt>
      <trkpt lat="50.39122" lon="3.25008">
        <ele>20.670664</ele>
        <time>2019-12-08T09:13:21.000Z</time>
      </trkpt>
      <trkpt lat="50.39114" lon="3.24992">
        <ele>21.136477</ele>
        <time>2019-12-08T09:13:24.000Z</time>
      </trkpt>
      <trkpt lat="50.39104" lon="3.24978">
        <ele>21.617068</ele>
        <time>2019-12-08T09:13:27.000Z</time>
      </trkpt>
      <trkpt lat="50.39097" lon="3.24968">
        <ele>21.615278</ele>
        <time>2019-12-08T09:13:29.000Z</time>
      </trkpt>
      <trkpt lat="50.39088" lon="3.24953">
        <ele>21.453819</ele>
        <time>2019-12-08T09:13:32.000Z</time>
      </trkpt>
      <trkpt lat="50.39081" lon="3.24943">
        <ele>21.341962</ele>
        <time>2019-12-08T09:13:34.000Z</time>
      </trkpt>
      <trkpt lat="50.39074" lon="3.24932">
        <ele>21.225926</ele>
        <time>2019-12-08T09:13:36.000Z</time>
      </trkpt>
      <trkpt lat="50.39067" lon="3.24922">
        <ele>21.110941</ele>
        <time>2019-12-08T09:13:38.000Z</time>
      </trkpt>
      <trkpt lat="50.39059" lon="3.24912">
        <ele>20.994517</ele>
        <time>2019-12-08T09:13:40.000Z</time>
      </trkpt>
      <trkpt lat="50.39051" lon="3.24903">
        <ele>20.869553</ele>
        <time>2019-12-08T09:13:42.000Z</time>
      </trkpt>
      <trkpt lat="50.39043" lon="3.24893">
        <ele>20.74417</ele>
        <time>2019-12-08T09:13:44.000Z</time>
      </trkpt>
      <trkpt lat="50.39035" lon="3.24882">
        <ele>20.626538</ele>
        <time>2019-12-08T09:13:46.000Z</time>
      </trkpt>
      <trkpt lat="50.39028" lon="3.24871">
        <ele>20.503342</ele>
        <time>2019-12-08T09:13:48.000Z</time>
      </trkpt>
      <trkpt lat="50.3902" lon="3.2486">
        <ele>20.376891</ele>
        <time>2019-12-08T09:13:50.000Z</time>
      </trkpt>
      <trkpt lat="50.39013" lon="3.2485">
        <ele>20.261382</ele>
        <time>2019-12-08T09:13:52.000Z</time>
      </trkpt>
      <trkpt lat="50.39006" lon="3.2484">
        <ele>20.147256</ele>
        <time>2019-12-08T09:13:54.000Z</time>
      </trkpt>
      <trkpt lat="50.38998" lon="3.24831">
        <ele>20.033619</ele>
        <time>2019-12-08T09:13:56.000Z</time>
      </trkpt>
      <trkpt lat="50.38991" lon="3.24821">
        <ele>19.915598</ele>
        <time>2019-12-08T09:13:58.000Z</time>
      </trkpt>
      <trkpt lat="50.38984" lon="3.2481">
        <ele>19.799562</ele>
        <time>2019-12-08T09:14:00.000Z</time>
      </trkpt>
      <trkpt lat="50.38977" lon="3.248">
        <ele>19.689627</ele>
        <time>2019-12-08T09:14:02.000Z</time>
      </trkpt>
      <trkpt lat="50.3897" lon="3.2479">
        <ele>19.571606</ele>
        <time>2019-12-08T09:14:04.000Z</time>
      </trkpt>
      <trkpt lat="50.38963" lon="3.2478">
        <ele>19.435497</ele>
        <time>2019-12-08T09:14:06.000Z</time>
      </trkpt>
      <trkpt lat="50.38957" lon="3.24771">
        <ele>19.292992</ele>
        <time>2019-12-08T09:14:08.000Z</time>
      </trkpt>
      <trkpt lat="50.38947" lon="3.24756">
        <ele>19.084318</ele>
        <time>2019-12-08T09:14:11.000Z</time>
      </trkpt>
      <trkpt lat="50.38941" lon="3.24746">
        <ele>18.946032</ele>
        <time>2019-12-08T09:14:13.000Z</time>
      </trkpt>
      <trkpt lat="50.38934" lon="3.24736">
        <ele>18.79175</ele>
        <time>2019-12-08T09:14:15.000Z</time>
      </trkpt>
      <trkpt lat="50.38927" lon="3.24725">
        <ele>18.63635</ele>
        <time>2019-12-08T09:14:17.000Z</time>
      </trkpt>
      <trkpt lat="50.38919" lon="3.24715">
        <ele>18.479219</ele>
        <time>2019-12-08T09:14:19.000Z</time>
      </trkpt>
      <trkpt lat="50.38912" lon="3.24705">
        <ele>18.327315</ele>
        <time>2019-12-08T09:14:21.000Z</time>
      </trkpt>
      <trkpt lat="50.38906" lon="3.24695">
        <ele>18.183502</ele>
        <time>2019-12-08T09:14:23.000Z</time>
      </trkpt>
      <trkpt lat="50.38899" lon="3.24685">
        <ele>18.038109</ele>
        <time>2019-12-08T09:14:25.000Z</time>
      </trkpt>
      <trkpt lat="50.38892" lon="3.24675">
        <ele>17.888555</ele>
        <time>2019-12-08T09:14:27.000Z</time>
      </trkpt>
      <trkpt lat="50.38885" lon="3.24664">
        <ele>17.734868</ele>
        <time>2019-12-08T09:14:29.000Z</time>
      </trkpt>
      <trkpt lat="50.38878" lon="3.24654">
        <ele>17.574728</ele>
        <time>2019-12-08T09:14:31.000Z</time>
      </trkpt>
      <trkpt lat="50.3887" lon="3.24643">
        <ele>17.414588</ele>
        <time>2019-12-08T09:14:33.000Z</time>
      </trkpt>
      <trkpt lat="50.38863" lon="3.24632">
        <ele>17.259494</ele>
        <time>2019-12-08T09:14:35.000Z</time>
      </trkpt>
      <trkpt lat="50.38856" lon="3.24622">
        <ele>17.1044</ele>
        <time>2019-12-08T09:14:37.000Z</time>
      </trkpt>
      <trkpt lat="50.38849" lon="3.24611">
        <ele>16.955508</ele>
        <time>2019-12-08T09:14:39.000Z</time>
      </trkpt>
      <trkpt lat="50.38842" lon="3.24601">
        <ele>16.807019</ele>
        <time>2019-12-08T09:14:41.000Z</time>
      </trkpt>
      <trkpt lat="50.38836" lon="3.24591">
        <ele>16.652315</ele>
        <time>2019-12-08T09:14:43.000Z</time>
      </trkpt>
      <trkpt lat="50.38829" lon="3.24581">
        <ele>16.485392</ele>
        <time>2019-12-08T09:14:45.000Z</time>
      </trkpt>
      <trkpt lat="50.38822" lon="3.2457">
        <ele>16.318957</ele>
        <time>2019-12-08T09:14:47.000Z</time>
      </trkpt>
      <trkpt lat="50.38815" lon="3.2456">
        <ele>16.151743</ele>
        <time>2019-12-08T09:14:49.000Z</time>
      </trkpt>
      <trkpt lat="50.38808" lon="3.2455">
        <ele>15.979051</ele>
        <time>2019-12-08T09:14:51.000Z</time>
      </trkpt>
      <trkpt lat="50.38801" lon="3.2454">
        <ele>15.813405</ele>
        <time>2019-12-08T09:14:53.000Z</time>
      </trkpt>
      <trkpt lat="50.38794" lon="3.2453">
        <ele>15.647759</ele>
        <time>2019-12-08T09:14:55.000Z</time>
      </trkpt>
      <trkpt lat="50.38788" lon="3.2452">
        <ele>15.492718</ele>
        <time>2019-12-08T09:14:57.000Z</time>
      </trkpt>
      <trkpt lat="50.38781" lon="3.2451">
        <ele>15.322441</ele>
        <time>2019-12-08T09:14:59.000Z</time>
      </trkpt>
      <trkpt lat="50.38774" lon="3.245">
        <ele>15.150607</ele>
        <time>2019-12-08T09:15:01.000Z</time>
      </trkpt>
      <trkpt lat="50.38768" lon="3.24489">
        <ele>14.986302</ele>
        <time>2019-12-08T09:15:03.000Z</time>
      </trkpt>
      <trkpt lat="50.38761" lon="3.24478">
        <ele>14.810548</ele>
        <time>2019-12-08T09:15:05.000Z</time>
      </trkpt>
      <trkpt lat="50.38754" lon="3.24467">
        <ele>14.63174</ele>
        <time>2019-12-08T09:15:07.000Z</time>
      </trkpt>
      <trkpt lat="50.38747" lon="3.24456">
        <ele>14.458804</ele>
        <time>2019-12-08T09:15:09.000Z</time>
      </trkpt>
      <trkpt lat="50.3874" lon="3.24446">
        <ele>14.294974</ele>
        <time>2019-12-08T09:15:11.000Z</time>
      </trkpt>
      <trkpt lat="50.3873" lon="3.24432">
        <ele>14.060874</ele>
        <time>2019-12-08T09:15:14.000Z</time>
      </trkpt>
      <trkpt lat="50.3872" lon="3.24418">
        <ele>13.822109</ele>
        <time>2019-12-08T09:15:17.000Z</time>
      </trkpt>
      <trkpt lat="50.38712" lon="3.24403">
        <ele>13.589876</ele>
        <time>2019-12-08T09:15:20.000Z</time>
      </trkpt>
      <trkpt lat="50.38705" lon="3.24388">
        <ele>13.713329</ele>
        <time>2019-12-08T09:15:23.000Z</time>
      </trkpt>
      <trkpt lat="50.38701" lon="3.24372">
        <ele>14.012647</ele>
        <time>2019-12-08T09:15:26.000Z</time>
      </trkpt>
      <trkpt lat="50.38698" lon="3.24355">
        <ele>14.324471</ele>
        <time>2019-12-08T09:15:30.000Z</time>
      </trkpt>
      <trkpt lat="50.38689" lon="3.24349">
        <ele>14.605312</ele>
        <time>2019-12-08T09:15:35.000Z</time>
      </trkpt>
      <trkpt lat="50.3868" lon="3.24345">
        <ele>14.868611</ele>
        <time>2019-12-08T09:15:40.000Z</time>
      </trkpt>
      <trkpt lat="50.38672" lon="3.24333">
        <ele>15.165632</ele>
        <time>2019-12-08T09:15:46.000Z</time>
      </trkpt>
      <trkpt lat="50.38664" lon="3.24325">
        <ele>15.424</ele>
        <time>2019-12-08T09:15:57.000Z</time>
      </trkpt>
      <trkpt lat="50.38656" lon="3.24337">
        <ele>15.731322</ele>
        <time>2019-12-08T09:16:45.000Z</time>
      </trkpt>
      <trkpt lat="50.38653" lon="3.24354">
        <ele>16.051638</ele>
        <time>2019-12-08T09:16:50.000Z</time>
      </trkpt>
      <trkpt lat="50.38651" lon="3.24369">
        <ele>16.322674</ele>
        <time>2019-12-08T09:16:53.000Z</time>
      </trkpt>
      <trkpt lat="50.38648" lon="3.24387">
        <ele>16.649451</ele>
        <time>2019-12-08T09:16:56.000Z</time>
      </trkpt>
      <trkpt lat="50.38643" lon="3.24406">
        <ele>17.011034</ele>
        <time>2019-12-08T09:16:59.000Z</time>
      </trkpt>
      <trkpt lat="50.38637" lon="3.24425">
        <ele>17.382649</ele>
        <time>2019-12-08T09:17:02.000Z</time>
      </trkpt>
      <trkpt lat="50.38634" lon="3.2444">
        <ele>17.661459</ele>
        <time>2019-12-08T09:17:04.000Z</time>
      </trkpt>
      <trkpt lat="50.38631" lon="3.24455">
        <ele>17.935967</ele>
        <time>2019-12-08T09:17:06.000Z</time>
      </trkpt>
      <trkpt lat="50.38628" lon="3.2447">
        <ele>18.216579</ele>
        <time>2019-12-08T09:17:08.000Z</time>
      </trkpt>
      <trkpt lat="50.38625" lon="3.24486">
        <ele>18.51344</ele>
        <time>2019-12-08T09:17:10.000Z</time>
      </trkpt>
      <trkpt lat="50.38622" lon="3.24501">
        <ele>18.811114</ele>
        <time>2019-12-08T09:17:12.000Z</time>
      </trkpt>
      <trkpt lat="50.38619" lon="3.24517">
        <ele>19.114934</ele>
        <time>2019-12-08T09:17:14.000Z</time>
      </trkpt>
      <trkpt lat="50.38615" lon="3.24534">
        <ele>19.431796</ele>
        <time>2019-12-08T09:17:16.000Z</time>
      </trkpt>
      <trkpt lat="50.38612" lon="3.2455">
        <ele>19.739114</ele>
        <time>2019-12-08T09:17:18.000Z</time>
      </trkpt>
      <trkpt lat="50.38609" lon="3.24568">
        <ele>20.066485</ele>
        <time>2019-12-08T09:17:20.000Z</time>
      </trkpt>
      <trkpt lat="50.38606" lon="3.24584">
        <ele>20.373803</ele>
        <time>2019-12-08T09:17:22.000Z</time>
      </trkpt>
      <trkpt lat="50.38602" lon="3.24599">
        <ele>20.66891</ele>
        <time>2019-12-08T09:17:24.000Z</time>
      </trkpt>
      <trkpt lat="50.38599" lon="3.24612">
        <ele>20.926131</ele>
        <time>2019-12-08T09:17:26.000Z</time>
      </trkpt>
      <trkpt lat="50.38594" lon="3.24624">
        <ele>21.193803</ele>
        <time>2019-12-08T09:17:28.000Z</time>
      </trkpt>
      <trkpt lat="50.38589" lon="3.24644">
        <ele>21.583463</ele>
        <time>2019-12-08T09:17:31.000Z</time>
      </trkpt>
      <trkpt lat="50.38586" lon="3.24659">
        <ele>21.862909</ele>
        <time>2019-12-08T09:17:33.000Z</time>
      </trkpt>
      <trkpt lat="50.38584" lon="3.24673">
        <ele>22.132667</ele>
        <time>2019-12-08T09:17:35.000Z</time>
      </trkpt>
      <trkpt lat="50.38581" lon="3.24689">
        <ele>22.431415</ele>
        <time>2019-12-08T09:17:37.000Z</time>
      </trkpt>
      <trkpt lat="50.38578" lon="3.24704">
        <ele>22.725659</ele>
        <time>2019-12-08T09:17:39.000Z</time>
      </trkpt>
      <trkpt lat="50.38574" lon="3.2472">
        <ele>23.033817</ele>
        <time>2019-12-08T09:17:41.000Z</time>
      </trkpt>
      <trkpt lat="50.38571" lon="3.24737">
        <ele>23.344519</ele>
        <time>2019-12-08T09:17:43.000Z</time>
      </trkpt>
      <trkpt lat="50.38567" lon="3.2475">
        <ele>23.608946</ele>
        <time>2019-12-08T09:17:45.000Z</time>
      </trkpt>
      <trkpt lat="50.38564" lon="3.24764">
        <ele>23.751332</ele>
        <time>2019-12-08T09:17:47.000Z</time>
      </trkpt>
      <trkpt lat="50.38562" lon="3.2478">
        <ele>23.891337</ele>
        <time>2019-12-08T09:17:49.000Z</time>
      </trkpt>
      <trkpt lat="50.38559" lon="3.24794">
        <ele>24.025127</ele>
        <time>2019-12-08T09:17:51.000Z</time>
      </trkpt>
      <trkpt lat="50.38555" lon="3.24811">
        <ele>24.181656</ele>
        <time>2019-12-08T09:17:54.000Z</time>
      </trkpt>
      <trkpt lat="50.38551" lon="3.24828">
        <ele>24.342726</ele>
        <time>2019-12-08T09:17:58.000Z</time>
      </trkpt>
      <trkpt lat="50.38549" lon="3.24842">
        <ele>24.466357</ele>
        <time>2019-12-08T09:18:01.000Z</time>
      </trkpt>
      <trkpt lat="50.38561" lon="3.24901">
        <ele>20.8</ele>
      </trkpt>
      <trkpt lat="50.38557" lon="3.24983">
        <ele>21.5</ele>
      </trkpt>
    </trkseg>
  </trk>
</gpx>